[[{"header":{"parameterUnit":"m.s-1","parameterCategory":1,"la1":31.0,"la2":29.5877,"lo1":-88.7671,"lo2":-86.6584,"dy":0.0162,"dx":0.0185,"nx":115,"ny":88,"refTime":"2023-11-09T06:00:00:Z","depth":0,"parameterNumber":2,"parameterNumberName":"U-component_of_WINDS"},"data":[0.0,0.0,0.0,0.0,0.0,0.0,0.0,0.0,0.0,0.0,0.0,0.0,0.0,0.0,0.0,0.0,0.0,0.0,0.0,0.0,0.0,0.0,0.0,0.0,0.0,0.0,0.0,0.0,0.0,0.0,0.0,0.0,0.0,0.0,0.0,0.0,0.0,0.0,0.0,0.0,0.0,0.0,0.0,0.0,0.0,0.0,0.0,0.0,0.0,0.0,0.0,0.0,0.0,0.0,0.0,0.0,0.0,0.0,0.0,0.0,0.0,0.0,0.0,0.0,0.0,0.0,0.0,0.0,0.0,0.0,0.0,0.0,0.0,0.0,0.0,0.0,0.0,0.0,0.0,0.0,0.0,0.0,0.0,0.0,0.0,0.0,0.0,0.0,0.0,0.0,0.0,0.0,0.0,0.0,0.0,0.0,0.0,0.0,0.0,0.0,0.0,0.0,0.0,0.0,0.0,0.0,0.0,0.0,0.0,0.0,0.0,0.0,0.0,0.0,0.0,0.0,0.0,0.0,0.0,0.0,0.0,0.0,0.0,0.0,0.0,0.0,0.0,0.0,0.0,0.0,0.0,0.0,0.0,0.0,0.0,0.0,0.0,0.0,0.0,0.0,0.0,0.0,0.0,0.0,0.0,0.0,0.0,0.0,0.0,0.0,0.0,0.0,0.0,0.0,0.0,0.0,0.0,0.0,0.0,0.0,0.0,0.0,0.0,0.0,0.0,0.0,0.0,0.0,0.0,0.0,0.0,0.0,0.0,0.0,0.0,0.0,0.0,0.0,0.0,0.0,0.0,0.0,0.0,0.0,0.0,0.0,0.0,0.0,0.0,0.0,0.0,0.0,0.0,0.0,0.0,0.0,0.0,0.0,0.0,0.0,0.0,0.0,0.0,0.0,0.0,0.0,0.0,0.0,0.0,0.0,0.0,0.0,0.0,0.0,0.0,0.0,0.0,0.0,0.0,0.0,0.0,0.0,0.0,0.0,0.0,0.0,0.0,0.0,0.0,0.0,0.0,0.0,0.0,0.0,0.0,0.0,0.0,0.0,0.0,0.0,0.0,0.0,0.0,0.0,0.0,0.0,0.0,0.0,0.0,0.0,0.0,0.0,0.0,0.0,0.0,0.0,0.0,0.0,0.0,0.0,0.0,0.0,0.0,0.0,0.0,0.0,0.0,0.0,0.0,0.0,0.0,0.0,0.0,0.0,0.0,0.0,0.0,0.0,0.0,0.0,0.0,0.0,0.0,0.0,0.0,0.0,0.0,0.0,0.0,0.0,0.0,0.0,0.0,0.0,0.0,0.0,0.0,0.0,0.0,0.0,0.0,0.0,0.0,0.0,0.0,0.0,0.0,0.0,0.0,0.0,0.0,0.0,0.0,0.0,0.0,0.0,0.0,0.0,0.0,0.0,0.0,0.0,0.0,0.0,0.0,0.0,0.0,0.0,0.0,0.0,0.0,0.0,0.0,0.0,0.0,0.0,0.0,0.0,0.0,0.0,0.0,0.0,0.0,0.0,0.0,0.0,0.0,0.0,0.0,0.0,0.0,0.0,0.0,0.0,0.0,0.0,0.0,0.0,0.0,0.0,0.0,0.0,0.0,0.0,0.0,0.0,0.0,0.0,0.0,0.0,0.0,0.0,0.0,0.0,0.0,0.0,0.0,0.0,0.0,0.0,0.0,0.0,0.0,0.0,0.0,0.0,0.0,0.0,0.0,0.0,0.0,0.0,0.0,0.0,0.0,0.0,0.0,0.0,0.0,0.0,0.0,0.0,0.0,0.0,0.0,0.0,0.0,0.0,0.0,0.0,0.0,0.0,0.0,0.0,0.0,0.0,0.0,0.0,0.0,0.0,0.0,0.0,0.0,0.0,0.0,0.0,0.0,0.0,0.0,0.0,0.0,0.0,0.0,0.0,0.0,0.0,0.0,0.0,0.0,0.0,0.0,0.0,0.0,0.0,0.0,0.0,0.0,0.0,0.0,0.0,0.0,0.0,0.0,0.0,0.0,0.0,0.0,0.0,0.0,0.0,0.0,0.0,0.0,0.0,0.0,0.0,0.0,0.0,0.0,0.0,0.0,0.0,0.0,0.0,0.0,0.0,0.0,0.0,0.0,0.0,0.0,0.0,0.0,0.0,0.0,0.0,0.0,0.0,0.0,0.0,0.0,0.0,0.0,0.0,0.0,0.0,0.0,0.0,0.0,0.0,0.0,0.0,0.0,0.0,0.0,0.0,0.0,0.0,0.0,0.0,0.0,0.0,0.0,0.0,0.0,0.0,0.0,0.0,0.0,0.0,0.0,0.0,0.0,0.0,0.0,0.0,0.0,0.0,0.0,0.0,0.0,0.0,0.0,0.0,0.0,0.0,0.0,0.0,0.0,0.0,0.0,0.0,0.0,0.0,0.0,0.0,0.0,0.0,0.0,0.0,0.0,0.0,0.0,0.0,0.0,0.0,0.0,0.0,0.0,0.0,0.0,0.0,0.0,0.0,0.0,0.0,0.0,0.0,0.0,0.0,0.0,0.0,0.0,0.0,0.0,0.0,0.0,0.0,0.0,0.0,0.0,0.0,0.0,0.0,0.0,0.0,0.0,0.0,0.0,0.0,0.0,0.0,0.0,0.0,0.0,0.0,0.0,0.0,0.0,0.0,0.0,0.0,0.0,0.0,0.0,0.0,0.0,0.0,0.0,0.0,0.0,0.0,0.0,0.0,0.0,0.0,0.0,0.0,0.0,0.0,0.0,0.0,0.0,0.0,0.0,0.0,0.0,0.0,0.0,0.0,0.0,0.0,0.0,0.0,0.0,0.0,0.0,0.0,0.0,0.0,0.0,0.0,0.0,0.0,0.0,0.0,0.0,0.0,0.0,0.0,0.0,0.0,0.0,0.0,0.0,0.0,0.0,0.0,0.0,0.0,0.0,0.0,0.0,0.0,0.0,0.0,0.0,0.0,0.0,0.0,0.0,0.0,0.0,0.0,0.0,0.0,0.0,0.0,0.0,0.0,0.0,0.0,0.0,0.0,0.0,0.0,0.0,0.0,0.0,0.0,0.0,0.0,0.0,0.0,0.0,0.0,0.0,0.0,0.0,0.0,0.0,0.0,0.0,0.0,0.0,0.0,0.0,0.0,0.0,0.0,0.0,0.0,0.0,0.0,0.0,0.0,0.0,0.0,0.0,0.0,0.0,0.0,0.0,0.0,0.0,0.0,0.0,0.0,0.0,0.0,0.0,0.0,0.0,0.0,0.0,0.0,0.0,0.0,0.0,0.0,0.0,0.0,0.0,0.0,0.0,0.0,0.0,0.0,0.0,0.0,0.0,0.0,0.0,0.0,0.0,0.0,0.0,0.0,0.0,0.0,0.0,0.0,0.0,0.0,0.0,0.0,0.0,0.0,0.0,0.0,0.0,0.0,0.0,0.0,0.0,0.0,0.0,0.0,0.0,0.0,0.0,0.0,0.0,0.0,0.0,0.0,0.0,0.0,0.0,0.0,0.0,0.0,0.0,0.0,0.0,0.0,0.0,0.0,0.0,0.0,0.0,0.0,0.0,0.0,0.0,0.0,0.0,0.0,0.0,0.0,0.0,0.0,0.0,0.0,0.0,0.0,0.0,0.0,0.0,0.0,0.0,0.0,0.0,0.0,0.0,0.0,0.0,0.0,0.0,0.0,0.0,0.0,0.0,0.0,0.0,0.0,0.0,0.0,0.0,0.0,0.0,0.0,0.0,0.0,0.0,0.0,0.0,0.0,0.0,0.0,0.0,0.0,0.0,0.0,0.0,0.0,0.0,0.0,0.0,0.0,0.0,0.0,0.0,0.0,0.0,0.0,0.0,0.0,0.0,0.0,0.0,0.0,0.0,0.0,0.0,0.0,0.0,0.0,0.0,0.0,0.0,0.0,0.0,0.0,0.0,0.0,0.0,0.0,0.0,0.0,0.0,0.0,0.0,0.0,0.0,0.0,0.0,0.0,0.0,0.0,0.0,0.0,0.0,0.0,0.0,0.0,0.0,0.0,0.0,0.0,0.0,0.0,0.0,0.0,0.0,0.0,0.0,0.0,0.0,0.0,0.0,0.0,0.0,0.0,0.0,0.0,0.0,0.0,0.0,0.0,0.0,0.0,0.0,0.0,0.0,0.0,0.0,0.0,0.0,0.0,0.0,0.0,0.0,0.0,0.0,0.0,0.0,0.0,0.0,0.0,0.0,0.0,0.0,0.0,0.0,0.0,0.0,0.0,0.0,0.0,0.0,0.0,0.0,0.0,0.0,0.0,2.4098,0.0,0.0,0.0,0.0,0.0,0.0,0.0,0.0,0.0,0.0,0.0,0.0,0.0,0.0,0.0,0.0,0.0,0.0,0.0,0.0,0.0,0.0,0.0,0.0,0.0,0.0,0.0,0.0,0.0,0.0,0.0,0.0,0.0,0.0,0.0,0.0,0.0,0.0,0.0,0.0,0.0,0.0,0.0,0.0,0.0,0.0,0.0,0.0,0.0,0.0,0.0,0.0,0.0,0.0,0.0,0.0,0.0,0.0,0.0,0.0,0.0,0.0,0.0,0.0,0.0,0.0,0.0,0.0,0.0,0.0,0.0,0.0,0.0,0.0,0.0,0.0,0.0,0.0,0.0,0.0,0.0,0.0,0.0,0.0,0.0,0.0,0.0,0.0,0.0,0.0,0.0,0.0,0.0,0.0,0.0,0.0,0.0,0.0,0.0,0.0,0.0,0.0,0.0,0.0,0.0,0.0,0.0,0.0,0.0,0.0,2.5118,2.4592,2.4272,2.4111,2.4098,0.0,0.0,0.0,0.0,0.0,0.0,0.0,0.0,0.0,0.0,0.0,0.0,0.0,0.0,0.0,0.0,0.0,0.0,0.0,0.0,0.0,0.0,0.0,0.0,0.0,0.0,0.0,0.0,0.0,0.0,0.0,0.0,0.0,0.0,0.0,0.0,0.0,0.0,0.0,0.0,0.0,0.0,0.0,0.0,0.0,0.0,0.0,0.0,0.0,0.0,0.0,0.0,0.0,0.0,0.0,0.0,0.0,0.0,0.0,0.0,0.0,0.0,0.0,0.0,0.0,0.0,0.0,0.0,0.0,0.0,0.0,0.0,0.0,0.0,0.0,0.0,0.0,0.0,0.0,0.0,0.0,0.0,0.0,0.0,0.0,0.0,0.0,0.0,0.0,0.0,0.0,0.0,0.0,0.0,0.0,0.0,0.0,0.0,0.0,0.0,0.0,0.0,0.0,0.0,0.0,0.0,0.0,0.0,0.0,0.0,0.0,0.0,2.4345,2.4067,2.398,0.0,0.0,0.0,0.0,0.0,0.0,0.0,0.0,0.0,0.0,0.0,0.0,0.0,0.0,0.0,0.0,0.0,0.0,0.0,0.0,0.0,0.0,0.0,0.0,0.0,0.0,0.0,0.0,0.0,0.0,0.0,0.0,0.0,0.0,0.0,0.0,0.0,0.0,0.0,0.0,0.0,0.0,0.0,0.0,0.0,0.0,0.0,0.0,0.0,0.0,0.0,0.0,0.0,0.0,0.0,0.0,0.0,0.0,0.0,0.0,0.0,0.0,0.0,0.0,0.0,0.0,0.0,0.0,0.0,0.0,0.0,0.0,0.0,0.0,0.0,0.0,0.0,0.0,0.0,0.0,0.0,0.0,0.0,0.0,0.0,0.0,0.0,0.0,0.0,0.0,0.0,0.0,0.0,0.0,0.0,0.0,0.0,0.0,0.0,0.0,0.0,0.0,0.0,0.0,0.0,0.0,0.0,0.0,0.0,0.0,2.4749,2.42,2.4127,0.0,2.3628,0.0,0.0,0.0,0.0,0.0,0.0,0.0,0.0,0.0,0.0,0.0,0.0,0.0,0.0,0.0,0.0,0.0,0.0,0.0,0.0,0.0,0.0,0.0,0.0,0.0,0.0,0.0,0.0,0.0,0.0,0.0,0.0,0.0,0.0,0.0,0.0,0.0,0.0,0.0,0.0,0.0,0.0,0.0,0.0,0.0,0.0,0.0,0.0,0.0,0.0,0.0,0.0,0.0,0.0,0.0,0.0,0.0,0.0,0.0,0.0,0.0,0.0,0.0,0.0,0.0,0.0,0.0,0.0,0.0,0.0,0.0,0.0,0.0,0.0,0.0,0.0,0.0,0.0,0.0,0.0,0.0,0.0,0.0,0.0,0.0,0.0,0.0,0.0,0.0,0.0,0.0,0.0,0.0,0.0,0.0,0.0,0.0,0.0,0.0,0.0,0.0,0.0,0.0,0.0,0.0,0.0,0.0,0.0,0.0,0.0,2.3818,2.3562,2.3562,2.3588,0.0,0.0,0.0,0.0,0.0,0.0,0.0,0.0,0.0,0.0,0.0,0.0,0.0,0.0,0.0,0.0,0.0,0.0,0.0,0.0,0.0,0.0,0.0,0.0,0.0,0.0,0.0,0.0,0.0,0.0,0.0,0.0,0.0,0.0,0.0,0.0,0.0,0.0,0.0,0.0,0.0,0.0,0.0,0.0,0.0,0.0,0.0,0.0,0.0,0.0,0.0,0.0,0.0,0.0,0.0,0.0,0.0,0.0,0.0,0.0,0.0,0.0,0.0,0.0,0.0,0.0,0.0,0.0,0.0,0.0,0.0,0.0,0.0,0.0,0.0,0.0,0.0,0.0,0.0,0.0,0.0,0.0,0.0,0.0,0.0,0.0,0.0,0.0,0.0,0.0,0.0,0.0,0.0,0.0,0.0,0.0,0.0,0.0,0.0,0.0,0.0,0.0,0.0,0.0,0.0,0.0,0.0,0.0,0.0,0.0,2.3643,2.3196,2.3196,2.3196,2.3263,2.3357,0.0,0.0,0.0,0.0,0.0,0.0,0.0,0.0,0.0,0.0,0.0,0.0,0.0,0.0,0.0,0.0,0.0,0.0,0.0,0.0,0.0,0.0,0.0,0.0,0.0,0.0,0.0,0.0,0.0,0.0,0.0,0.0,0.0,0.0,0.0,0.0,0.0,0.0,0.0,0.0,0.0,0.0,0.0,0.0,0.0,0.0,0.0,0.0,0.0,0.0,0.0,0.0,0.0,0.0,0.0,0.0,0.0,0.0,0.0,0.0,0.0,0.0,0.0,0.0,0.0,0.0,0.0,0.0,0.0,0.0,0.0,0.0,0.0,0.0,0.0,0.0,0.0,0.0,0.0,0.0,0.0,0.0,0.0,0.0,0.0,0.0,0.0,0.0,0.0,0.0,0.0,0.0,0.0,0.0,0.0,0.0,0.0,0.0,0.0,0.0,0.0,0.0,0.0,0.0,0.0,0.0,0.0,0.0,2.3338,2.3212,2.3196,2.3196,2.3196,2.3081,0.0,0.0,0.0,0.0,0.0,0.0,0.0,0.0,0.0,0.0,0.0,0.0,0.0,0.0,0.0,0.0,0.0,0.0,0.0,0.0,0.0,0.0,0.0,0.0,0.0,0.0,0.0,0.0,0.0,0.0,0.0,0.0,0.0,0.0,0.0,0.0,0.0,0.0,0.0,0.0,0.0,0.0,0.0,0.0,0.0,0.0,0.0,0.0,0.0,0.0,0.0,0.0,0.0,0.0,0.0,0.0,0.0,0.0,0.0,0.0,0.0,0.0,0.0,0.0,0.0,0.0,0.0,0.0,0.0,0.0,0.0,0.0,0.0,0.0,0.0,0.0,0.0,0.0,0.0,0.0,0.0,0.0,0.0,0.0,0.0,0.0,0.0,0.0,0.0,0.0,0.0,0.0,0.0,0.0,0.0,0.0,0.0,0.0,0.0,0.0,0.0,0.0,0.0,0.0,0.0,0.0,0.0,0.0,0.0,2.2722,2.2326,2.2465,2.3131,2.2491,2.2342,0.0,0.0,0.0,0.0,0.0,0.0,0.0,0.0,0.0,0.0,0.0,0.0,0.0,0.0,0.0,0.0,0.0,0.0,0.0,0.0,0.0,0.0,0.0,0.0,0.0,0.0,0.0,0.0,0.0,0.0,0.0,0.0,0.0,0.0,0.0,0.0,0.0,0.0,0.0,0.0,0.0,0.0,0.0,0.0,0.0,0.0,0.0,0.0,0.0,0.0,0.0,0.0,0.0,0.0,0.0,0.0,0.0,0.0,0.0,0.0,0.0,0.0,0.0,0.0,0.0,0.0,0.0,0.0,0.0,0.0,0.0,0.0,0.0,0.0,0.0,0.0,0.0,0.0,0.0,0.0,0.0,0.0,0.0,0.0,0.0,0.0,0.0,0.0,0.0,0.0,0.0,0.0,0.0,0.0,0.0,0.0,0.0,0.0,0.0,0.0,0.0,0.0,0.0,0.0,0.0,0.0,0.0,0.0,0.0,2.2412,0.0,2.1956,2.2857,2.2008,2.1822,0.0,0.0,0.0,0.0,0.0,0.0,0.0,0.0,0.0,0.0,0.0,0.0,0.0,0.0,0.0,0.0,0.0,0.0,0.0,0.0,0.0,0.0,0.0,0.0,0.0,0.0,0.0,0.0,0.0,0.0,0.0,0.0,0.0,0.0,0.0,0.0,0.0,0.0,0.0,0.0,0.0,0.0,0.0,0.0,0.0,0.0,0.0,0.0,0.0,0.0,0.0,0.0,0.0,0.0,0.0,0.0,0.0,0.0,0.0,0.0,0.0,0.0,0.0,0.0,0.0,0.0,0.0,0.0,0.0,0.0,0.0,0.0,0.0,0.0,0.0,0.0,0.0,0.0,0.0,0.0,0.0,0.0,0.0,0.0,0.0,0.0,0.0,0.0,0.0,0.0,0.0,0.0,0.0,0.0,0.0,0.0,0.0,0.0,0.0,0.0,0.0,0.0,0.0,0.0,0.0,0.0,0.0,0.0,2.2829,2.2376,2.1812,2.1851,2.2387,2.1851,2.164,0.0,0.0,0.0,0.0,0.0,0.0,0.0,0.0,0.0,0.0,0.0,0.0,0.0,0.0,0.0,0.0,0.0,0.0,0.0,0.0,0.0,0.0,0.0,0.0,0.0,0.0,0.0,0.0,0.0,0.0,0.0,0.0,0.0,0.0,0.0,0.0,0.0,0.0,0.0,0.0,0.0,0.0,0.0,0.0,0.0,0.0,0.0,0.0,0.0,0.0,0.0,0.0,0.0,0.0,0.0,0.0,0.0,0.0,0.0,0.0,0.0,0.0,0.0,0.0,0.0,0.0,0.0,0.0,0.0,0.0,0.0,0.0,0.0,0.0,0.0,0.0,0.0,0.0,0.0,0.0,0.0,0.0,0.0,0.0,0.0,0.0,0.0,0.0,0.0,0.0,0.0,0.0,0.0,0.0,0.0,0.0,0.0,0.0,0.0,0.0,0.0,0.0,0.0,0.0,0.0,0.0,0.0,0.0,0.0,2.1262,2.1812,2.2374,2.2896,2.2008,2.2004,0.0,0.0,0.0,0.0,0.0,0.0,0.0,0.0,0.0,0.0,0.0,0.0,0.0,0.0,0.0,0.0,0.0,0.0,0.0,0.0,0.0,0.0,0.0,0.0,0.0,0.0,0.0,0.0,0.0,0.0,0.0,0.0,0.0,0.0,0.0,0.0,0.0,0.0,0.0,0.0,0.0,0.0,0.0,0.0,0.0,0.0,0.0,0.0,0.0,0.0,0.0,0.0,0.0,0.0,0.0,0.0,0.0,0.0,0.0,0.0,0.0,0.0,0.0,0.0,0.0,0.0,0.0,0.0,0.0,0.0,0.0,0.0,0.0,0.0,0.0,0.0,0.0,0.0,0.0,0.0,0.0,0.0,0.0,0.0,0.0,0.0,0.0,0.0,0.0,0.0,0.0,0.0,0.0,0.0,0.0,0.0,0.0,0.0,0.0,0.0,0.0,0.0,0.0,0.0,0.0,0.0,0.0,0.0,0.0,2.1681,2.2139,2.2648,2.3183,2.2254,2.2248,2.3289,0.0,0.0,0.0,0.0,0.0,0.0,0.0,0.0,0.0,0.0,0.0,0.0,0.0,0.0,0.0,0.0,0.0,0.0,0.0,0.0,0.0,0.0,0.0,0.0,0.0,0.0,0.0,0.0,0.0,0.0,0.0,0.0,0.0,0.0,0.0,0.0,0.0,0.0,0.0,0.0,0.0,0.0,0.0,0.0,0.0,0.0,0.0,0.0,0.0,0.0,0.0,0.0,0.0,0.0,0.0,0.0,0.0,0.0,0.0,0.0,0.0,0.0,0.0,0.0,0.0,0.0,0.0,0.0,0.0,0.0,0.0,0.0,0.0,0.0,0.0,0.0,0.0,0.0,0.0,0.0,0.0,0.0,0.0,0.0,0.0,0.0,0.0,0.0,0.0,0.0,0.0,0.0,0.0,0.0,0.0,0.0,0.0,0.0,0.0,0.0,0.0,0.0,0.0,0.0,0.0,0.0,0.0,0.0,2.3262,2.2857,2.2896,2.3353,2.2625,2.2421,0.0,0.0,0.0,0.0,0.0,0.0,0.0,0.0,0.0,0.0,0.0,0.0,0.0,0.0,0.0,0.0,0.0,0.0,0.0,0.0,0.0,0.0,0.0,0.0,0.0,0.0,0.0,0.0,0.0,0.0,0.0,0.0,0.0,0.0,0.0,0.0,0.0,0.0,0.0,0.0,0.0,0.0,0.0,0.0,0.0,0.0,0.0,0.0,0.0,0.0,0.0,0.0,0.0,0.0,0.0,0.0,0.0,0.0,0.0,0.0,0.0,0.0,0.0,0.0,0.0,0.0,0.0,0.0,0.0,0.0,0.0,0.0,0.0,0.0,0.0,0.0,0.0,0.0,0.0,0.0,0.0,0.0,0.0,0.0,0.0,0.0,0.0,0.0,0.0,0.0,0.0,0.0,0.0,0.0,0.0,0.0,0.0,0.0,0.0,0.0,0.0,0.0,0.0,0.0,0.0,0.0,0.0,0.0,0.0,2.3889,2.4975,2.5432,2.5116,2.4029,2.3636,0.0,0.0,0.0,0.0,0.0,0.0,0.0,0.0,0.0,0.0,0.0,0.0,0.0,0.0,0.0,0.0,0.0,0.0,0.0,0.0,0.0,0.0,0.0,0.0,0.0,0.0,0.0,0.0,0.0,0.0,0.0,0.0,0.0,0.0,0.0,0.0,0.0,0.0,0.0,0.0,0.0,0.0,0.0,0.0,0.0,0.0,0.0,0.0,0.0,0.0,0.0,0.0,0.0,0.0,0.0,0.0,0.0,0.0,0.0,0.0,0.0,0.0,0.0,0.0,0.0,0.0,0.0,0.0,0.0,0.0,0.0,0.0,0.0,0.0,0.0,0.0,0.0,0.0,0.0,0.0,0.0,0.0,0.0,0.0,0.0,0.0,0.0,0.0,0.0,0.0,0.0,0.0,0.0,0.0,0.0,0.0,0.0,0.0,0.0,0.0,0.0,0.0,0.0,0.0,0.0,0.0,0.0,0.0,2.4375,2.5184,2.6638,2.7337,2.7168,2.5877,2.4934,0.0,0.0,0.0,0.0,0.0,0.0,0.0,0.0,0.0,0.0,0.0,0.0,0.0,0.0,0.0,0.0,0.0,0.0,0.0,0.0,0.0,0.0,0.0,0.0,0.0,0.0,0.0,0.0,0.0,0.0,0.0,0.0,0.0,0.0,0.0,0.0,0.0,0.0,0.0,0.0,0.0,0.0,0.0,0.0,0.0,0.0,0.0,0.0,0.0,0.0,0.0,0.0,0.0,0.0,0.0,0.0,0.0,0.0,0.0,0.0,0.0,0.0,0.0,0.0,0.0,0.0,0.0,0.0,0.0,0.0,0.0,0.0,0.0,0.0,0.0,0.0,0.0,0.0,0.0,0.0,0.0,0.0,0.0,0.0,0.0,0.0,0.0,0.0,0.0,0.0,0.0,0.0,0.0,0.0,0.0,0.0,0.0,0.0,0.0,0.0,0.0,0.0,0.0,0.0,0.0,0.0,0.0,0.0,2.5474,2.6631,2.7833,2.8643,2.8957,2.7708,2.611,0.0,0.0,0.0,0.0,0.0,0.0,0.0,0.0,0.0,0.0,0.0,0.0,0.0,0.0,0.0,0.0,0.0,0.0,0.0,0.0,0.0,0.0,0.0,0.0,0.0,0.0,0.0,0.0,0.0,0.0,0.0,0.0,0.0,0.0,0.0,0.0,0.0,0.0,0.0,0.0,0.0,0.0,0.0,0.0,0.0,0.0,0.0,0.0,0.0,0.0,0.0,0.0,0.0,0.0,0.0,0.0,0.0,0.0,0.0,0.0,0.0,0.0,0.0,0.0,0.0,0.0,0.0,0.0,0.0,0.0,0.0,0.0,0.0,0.0,0.0,0.0,0.0,0.0,0.0,0.0,0.0,0.0,0.0,0.0,0.0,0.0,0.0,0.0,0.0,0.0,0.0,0.0,0.0,0.0,0.0,0.0,0.0,0.0,0.0,0.0,0.0,0.0,0.0,0.0,0.0,0.0,0.0,0.0,2.5003,2.6447,2.8045,2.896,2.9152,2.7753,2.6051,0.0,0.0,0.0,0.0,0.0,0.0,0.0,0.0,0.0,0.0,0.0,0.0,0.0,0.0,0.0,0.0,0.0,0.0,0.0,0.0,0.0,0.0,0.0,0.0,0.0,0.0,0.0,0.0,0.0,0.0,0.0,0.0,0.0,0.0,0.0,0.0,0.0,0.0,0.0,0.0,0.0,0.0,0.0,0.0,0.0,0.0,0.0,0.0,2.3101,0.0,0.0,0.0,0.0,0.0,0.0,0.0,0.0,0.0,0.0,0.0,0.0,0.0,0.0,0.0,0.0,0.0,0.0,0.0,0.0,0.0,0.0,0.0,0.0,0.0,0.0,0.0,0.0,0.0,0.0,0.0,0.0,0.0,0.0,0.0,0.0,0.0,0.0,0.0,0.0,0.0,0.0,0.0,0.0,0.0,0.0,0.0,0.0,0.0,0.0,0.0,0.0,0.0,0.0,0.0,0.0,0.0,0.0,0.0,2.5103,2.7148,2.8377,2.9191,2.9536,2.8019,2.6258,0.0,0.0,0.0,0.0,0.0,0.0,0.0,0.0,0.0,0.0,0.0,0.0,0.0,0.0,0.0,0.0,0.0,0.0,0.0,0.0,0.0,0.0,0.0,0.0,0.0,0.0,0.0,0.0,0.0,0.0,0.0,0.0,0.0,0.0,0.0,0.0,0.0,0.0,0.0,0.0,0.0,0.0,0.0,0.0,0.0,0.0,0.0,0.0,0.0,0.0,0.0,0.0,0.0,0.0,0.0,0.0,0.0,0.0,0.0,0.0,0.0,0.0,0.0,0.0,0.0,0.0,0.0,0.0,0.0,0.0,0.0,0.0,0.0,0.0,0.0,0.0,0.0,0.0,0.0,0.0,0.0,0.0,0.0,0.0,0.0,0.0,0.0,0.0,0.0,0.0,0.0,0.0,0.0,0.0,0.0,0.0,0.0,0.0,0.0,0.0,0.0,0.0,0.0,0.0,0.0,0.0,0.0,2.3783,2.5387,2.7941,2.8639,2.9277,3.0005,2.8169,2.6348,2.4647,0.0,0.0,0.0,0.0,0.0,0.0,0.0,0.0,0.0,0.0,0.0,0.0,0.0,0.0,0.0,0.0,0.0,0.0,0.0,0.0,0.0,0.0,0.0,0.0,0.0,0.0,0.0,0.0,0.0,0.0,0.0,0.0,0.0,0.0,0.0,0.0,0.0,0.0,2.1249,2.1991,0.0,0.0,0.0,0.0,0.0,0.0,0.0,0.0,2.3101,0.0,0.0,0.0,0.0,0.0,0.0,0.0,0.0,0.0,0.0,0.0,0.0,0.0,0.0,0.0,0.0,0.0,0.0,0.0,0.0,0.0,0.0,0.0,0.0,0.0,0.0,0.0,0.0,0.0,0.0,0.0,0.0,0.0,0.0,0.0,0.0,0.0,0.0,0.0,0.0,0.0,0.0,0.0,0.0,0.0,0.0,0.0,0.0,0.0,0.0,0.0,0.0,0.0,0.0,0.0,0.0,2.317,2.3797,2.5338,2.7767,2.8382,2.9031,2.9749,2.7643,2.5829,2.447,0.0,0.0,0.0,0.0,0.0,0.0,0.0,0.0,0.0,0.0,0.0,0.0,0.0,0.0,0.0,0.0,0.0,0.0,0.0,0.0,0.0,0.0,0.0,0.0,0.0,0.0,0.0,0.0,0.0,0.0,0.0,0.0,0.0,0.0,0.0,0.0,0.0,0.0,0.0,2.2207,2.2645,0.0,0.0,0.0,0.0,0.0,0.0,0.0,0.0,2.3101,0.0,0.0,0.0,0.0,0.0,0.0,0.0,0.0,0.0,0.0,0.0,0.0,0.0,0.0,0.0,0.0,0.0,0.0,0.0,0.0,0.0,0.0,0.0,0.0,0.0,0.0,0.0,0.0,0.0,0.0,0.0,0.0,0.0,0.0,0.0,0.0,0.0,0.0,0.0,0.0,0.0,0.0,0.0,0.0,0.0,0.0,0.0,0.0,0.0,0.0,0.0,0.0,0.0,0.0,0.0,2.3445,2.4005,2.5512,2.8013,2.8351,2.8578,2.8697,2.676,2.4955,0.0,0.0,0.0,0.0,0.0,0.0,0.0,0.0,0.0,0.0,0.0,0.0,0.0,0.0,0.0,0.0,0.0,0.0,0.0,0.0,0.0,0.0,0.0,0.0,0.0,0.0,0.0,0.0,0.0,0.0,0.0,0.0,0.0,0.0,0.0,0.0,0.0,0.0,0.0,0.0,2.2362,2.2645,2.3033,0.0,0.0,0.0,0.0,0.0,0.0,2.3101,2.3101,0.0,0.0,0.0,0.0,0.0,0.0,0.0,0.0,0.0,0.0,0.0,0.0,0.0,0.0,0.0,0.0,0.0,0.0,0.0,0.0,0.0,0.0,0.0,0.0,0.0,0.0,0.0,0.0,0.0,0.0,0.0,0.0,0.0,0.0,0.0,0.0,0.0,0.0,0.0,0.0,0.0,0.0,0.0,0.0,0.0,0.0,0.0,0.0,0.0,0.0,0.0,0.0,0.0,0.0,0.0,2.3909,2.4259,2.5648,2.8104,2.8073,2.789,2.7586,2.5721,2.3967,0.0,0.0,0.0,0.0,0.0,0.0,0.0,0.0,0.0,0.0,0.0,0.0,0.0,0.0,0.0,0.0,0.0,0.0,0.0,0.0,0.0,0.0,0.0,0.0,0.0,0.0,0.0,0.0,0.0,0.0,0.0,0.0,0.0,0.0,0.0,0.0,0.0,0.0,0.0,0.0,0.0,2.2861,2.3084,2.3191,0.0,0.0,0.0,0.0,2.3132,2.3327,0.0,0.0,0.0,0.0,0.0,0.0,0.0,0.0,0.0,0.0,0.0,0.0,0.0,0.0,0.0,0.0,0.0,0.0,0.0,0.0,0.0,0.0,0.0,0.0,0.0,0.0,0.0,0.0,0.0,0.0,0.0,0.0,0.0,0.0,0.0,0.0,0.0,0.0,0.0,0.0,0.0,0.0,0.0,0.0,0.0,0.0,0.0,0.0,0.0,0.0,0.0,0.0,0.0,0.0,0.0,0.0,2.4492,2.4479,2.5473,2.752,2.6999,2.6737,2.6955,2.461,2.3055,0.0,0.0,0.0,0.0,0.0,0.0,0.0,0.0,0.0,0.0,0.0,0.0,0.0,0.0,0.0,0.0,0.0,0.0,0.0,0.0,0.0,0.0,0.0,0.0,0.0,0.0,0.0,0.0,0.0,0.0,0.0,0.0,0.0,0.0,0.0,0.0,0.0,0.0,0.0,0.0,0.0,2.3525,2.3149,2.3445,2.3574,0.0,0.0,2.3584,2.3159,2.4092,0.0,0.0,0.0,0.0,0.0,0.0,0.0,0.0,0.0,0.0,0.0,0.0,0.0,0.0,0.0,0.0,0.0,0.0,0.0,0.0,0.0,0.0,0.0,0.0,0.0,0.0,0.0,0.0,0.0,0.0,0.0,0.0,0.0,0.0,0.0,0.0,0.0,0.0,0.0,0.0,0.0,0.0,0.0,0.0,0.0,0.0,0.0,0.0,0.0,0.0,0.0,0.0,0.0,0.0,0.0,2.2484,2.4333,2.4113,2.4871,2.6647,2.599,2.5447,2.5138,2.3806,2.265,0.0,0.0,0.0,0.0,0.0,0.0,0.0,0.0,0.0,0.0,0.0,0.0,0.0,0.0,0.0,0.0,0.0,0.0,0.0,0.0,0.0,0.0,0.0,0.0,0.0,0.0,0.0,0.0,0.0,0.0,0.0,0.0,0.0,0.0,0.0,0.0,0.0,0.0,0.0,0.0,0.0,0.0,2.3181,2.3516,0.0,0.0,0.0,2.417,2.4228,0.0,0.0,0.0,0.0,0.0,0.0,0.0,0.0,0.0,0.0,0.0,0.0,0.0,0.0,0.0,0.0,0.0,0.0,0.0,0.0,0.0,0.0,0.0,0.0,0.0,0.0,0.0,0.0,0.0,0.0,0.0,0.0,0.0,0.0,0.0,0.0,0.0,0.0,0.0,0.0,0.0,0.0,0.0,0.0,0.0,0.0,0.0,0.0,0.0,0.0,0.0,0.0,0.0,0.0,0.0,0.0,0.0,2.4346,2.3985,2.4516,2.5979,2.5131,2.4382,2.3801,2.3126,0.0,0.0,0.0,0.0,0.0,0.0,0.0,0.0,0.0,0.0,0.0,0.0,0.0,0.0,0.0,0.0,0.0,0.0,0.0,0.0,0.0,0.0,0.0,0.0,0.0,0.0,0.0,2.0596,0.0,0.0,0.0,0.0,0.0,0.0,0.0,0.0,0.0,0.0,0.0,0.0,0.0,0.0,2.3916,2.3357,2.3747,2.4134,0.0,0.0,2.4687,2.5043,2.5092,2.4859,0.0,0.0,0.0,0.0,0.0,0.0,0.0,0.0,0.0,0.0,0.0,0.0,0.0,0.0,0.0,0.0,0.0,0.0,0.0,0.0,0.0,0.0,0.0,0.0,0.0,0.0,0.0,0.0,0.0,0.0,0.0,0.0,0.0,0.0,0.0,0.0,0.0,0.0,0.0,0.0,0.0,0.0,0.0,0.0,0.0,0.0,0.0,0.0,0.0,0.0,0.0,0.0,0.0,0.0,0.0,2.4842,2.4484,2.4788,2.5893,2.4551,2.3755,2.3697,2.2512,2.1647,0.0,0.0,0.0,0.0,0.0,0.0,0.0,0.0,0.0,0.0,0.0,0.0,0.0,0.0,0.0,0.0,0.0,0.0,0.0,0.0,0.0,0.0,0.0,0.0,0.0,0.0,0.0,0.0,0.0,0.0,0.0,0.0,0.0,0.0,0.0,0.0,0.0,0.0,0.0,0.0,0.0,2.4711,2.3867,2.4476,2.5014,0.0,0.0,2.5063,2.5092,2.6064,2.6162,2.416,0.0,0.0,0.0,0.0,0.0,0.0,0.0,0.0,0.0,0.0,0.0,0.0,0.0,0.0,0.0,0.0,0.0,0.0,0.0,0.0,0.0,0.0,0.0,0.0,0.0,0.0,0.0,0.0,0.0,0.0,0.0,0.0,0.0,0.0,0.0,0.0,0.0,0.0,0.0,0.0,0.0,0.0,0.0,0.0,0.0,0.0,0.0,0.0,0.0,0.0,0.0,0.0,0.0,2.275,2.4087,2.3507,2.3513,2.4083,2.3094,2.2543,2.2524,2.1928,2.1535,0.0,0.0,0.0,0.0,0.0,0.0,0.0,0.0,0.0,0.0,0.0,0.0,0.0,0.0,0.0,0.0,0.0,0.0,0.0,0.0,0.0,0.0,0.0,0.0,0.0,0.0,0.0,0.0,2.0752,2.0693,2.0947,0.0,0.0,0.0,0.0,0.0,0.0,0.0,0.0,0.0,0.0,2.5264,2.4658,2.5356,0.0,0.0,2.5654,2.5576,2.584,2.584,2.5551,2.473,2.4189,0.0,0.0,0.0,0.0,0.0,0.0,0.0,0.0,0.0,0.0,0.0,0.0,0.0,0.0,0.0,0.0,0.0,0.0,0.0,0.0,0.0,0.0,0.0,0.0,0.0,0.0,0.0,0.0,0.0,0.0,0.0,0.0,0.0,0.0,0.0,0.0,0.0,0.0,0.0,0.0,0.0,0.0,0.0,0.0,0.0,0.0,0.0,0.0,0.0,0.0,0.0,0.0,2.2997,2.3862,2.3392,2.3235,2.3386,2.2666,2.2239,2.2135,2.1778,2.1529,0.0,0.0,0.0,0.0,0.0,0.0,0.0,0.0,0.0,0.0,0.0,0.0,0.0,0.0,0.0,0.0,0.0,0.0,0.0,0.0,0.0,0.0,0.0,0.0,0.0,0.0,0.0,0.0,2.1172,2.1113,2.147,0.0,0.0,0.0,0.0,0.0,0.0,0.0,0.0,0.0,0.0,2.5381,2.4965,2.5635,2.6191,2.6201,2.5913,2.5864,2.6328,2.5776,2.52,2.4936,0.0,0.0,0.0,0.0,0.0,0.0,0.0,0.0,0.0,0.0,0.0,0.0,0.0,0.0,0.0,0.0,0.0,0.0,0.0,0.0,0.0,0.0,0.0,0.0,0.0,0.0,0.0,0.0,0.0,0.0,3.0362,0.0,0.0,0.0,0.0,0.0,0.0,0.0,0.0,0.0,0.0,0.0,0.0,0.0,0.0,0.0,0.0,0.0,0.0,0.0,0.0,0.0,0.0,2.3538,2.4448,2.451,2.4471,2.4213,2.3731,2.3216,2.2818,2.216,2.1608,2.1206,0.0,0.0,0.0,0.0,0.0,0.0,0.0,0.0,0.0,0.0,0.0,0.0,0.0,0.0,0.0,0.0,0.0,0.0,0.0,0.0,0.0,0.0,0.0,0.0,0.0,0.0,2.1855,2.1855,2.1909,0.0,0.0,0.0,0.0,0.0,0.0,0.0,0.0,0.0,0.0,2.4545,2.4955,2.4498,2.5171,2.5742,2.5723,2.5693,2.5854,2.6289,2.5962,2.5406,0.0,0.0,0.0,0.0,0.0,0.0,0.0,0.0,0.0,0.0,0.0,0.0,0.0,0.0,0.0,0.0,0.0,0.0,0.0,0.0,0.0,0.0,0.0,0.0,0.0,0.0,0.0,3.133,3.1407,0.0,0.0,0.0,0.0,0.0,0.0,0.0,0.0,0.0,0.0,0.0,2.8368,2.7419,0.0,0.0,0.0,0.0,0.0,0.0,0.0,0.0,0.0,0.0,0.0,0.0,2.3326,2.4107,2.3674,2.3259,2.2905,2.2733,2.2361,2.1786,2.1409,2.1074,2.0819,0.0,0.0,0.0,0.0,0.0,0.0,0.0,0.0,0.0,0.0,0.0,0.0,0.0,0.0,0.0,0.0,0.0,0.0,0.0,0.0,0.0,0.0,0.0,0.0,0.0,2.1914,0.0,0.0,0.0,0.0,0.0,0.0,0.0,0.0,0.0,0.0,0.0,2.2688,2.2853,2.3884,2.4593,2.4416,2.5111,2.5716,0.0,0.0,0.0,0.0,0.0,0.0,0.0,0.0,0.0,0.0,0.0,0.0,0.0,0.0,2.4703,2.4287,2.4059,2.4059,2.4332,0.0,0.0,0.0,0.0,0.0,0.0,0.0,0.0,0.0,0.0,0.0,0.0,0.0,0.0,3.1654,0.0,3.1166,0.0,0.0,0.0,0.0,0.0,0.0,0.0,0.0,2.8013,2.8139,2.9028,2.8267,2.7901,0.0,2.7557,2.6896,0.0,0.0,0.0,0.0,0.0,0.0,0.0,0.0,2.3568,2.3849,2.3459,2.3016,2.2665,2.2635,2.2372,2.182,2.1263,2.0879,2.0615,2.0732,2.083,0.0,0.0,0.0,0.0,0.0,0.0,0.0,0.0,0.0,0.0,0.0,0.0,0.0,0.0,0.0,0.0,0.0,0.0,0.0,0.0,0.0,0.0,0.0,2.2112,0.0,0.0,0.0,0.0,0.0,0.0,0.0,0.0,0.0,2.264,2.2508,2.2501,2.2807,2.3468,2.3999,2.4141,0.0,0.0,0.0,0.0,0.0,0.0,0.0,2.4769,2.4779,2.4909,2.5068,2.5213,2.5585,2.5825,2.5859,0.0,0.0,2.521,2.4947,2.4937,2.524,2.5298,2.5523,2.6245,2.6498,2.6762,0.0,0.0,0.0,0.0,0.0,0.0,0.0,0.0,3.077,3.0729,0.0,3.063,0.0,0.0,0.0,0.0,0.0,2.8692,0.0,0.0,2.8426,2.8337,2.8216,2.8178,2.8147,2.816,2.8097,2.7808,2.7278,2.6401,0.0,0.0,0.0,0.0,0.0,0.0,2.4199,2.3769,2.3895,2.3796,2.3481,2.345,2.3256,2.2821,2.1782,2.1055,2.0693,2.1015,2.123,2.124,2.165,0.0,0.0,0.0,0.0,0.0,0.0,0.0,0.0,0.0,0.0,0.0,0.0,0.0,0.0,0.0,0.0,0.0,0.0,0.0,0.0,2.2397,0.0,0.0,0.0,0.0,0.0,0.0,0.0,0.0,0.0,0.0,2.2391,2.2403,2.2718,2.3564,0.0,0.0,0.0,0.0,2.4476,2.4901,2.5251,2.5755,2.651,2.5988,2.5494,2.5503,0.0,0.0,2.5503,2.5887,2.618,2.617,2.6483,2.6621,2.6507,2.6093,2.6059,2.6846,2.6992,2.7187,2.7633,2.7956,2.8232,3.4181,0.0,0.0,0.0,0.0,3.3129,3.2588,3.1885,3.1688,3.1669,3.174,3.0739,0.0,0.0,0.0,0.0,0.0,0.0,2.8822,2.8953,2.8953,2.9302,2.9867,2.9045,2.8881,2.9277,2.8486,2.8021,2.7858,2.7611,2.6768,2.5381,0.0,0.0,0.0,0.0,2.367,2.4318,2.3905,2.3463,2.3091,2.3073,2.2786,2.2195,2.1867,2.1641,2.1514,2.1631,2.1699,2.1699,2.1826,0.0,0.0,0.0,0.0,0.0,0.0,0.0,0.0,0.0,0.0,0.0,0.0,0.0,0.0,0.0,0.0,0.0,0.0,0.0,2.2207,2.2176,2.2109,0.0,0.0,0.0,0.0,0.0,0.0,0.0,0.0,0.0,2.2312,2.2335,2.264,0.0,0.0,2.3324,2.4338,2.4578,2.4876,2.5453,0.0,0.0,0.0,2.5648,2.5522,2.5522,2.5894,2.6392,2.679,2.717,2.7453,2.7426,2.7763,2.8016,2.7936,2.7523,2.7337,2.7793,2.793,2.8066,2.8467,2.8672,2.8848,3.53,3.5325,3.4388,3.3804,3.3508,3.3268,3.2726,3.2026,3.1857,3.1818,3.1876,3.0815,3.0379,3.0328,2.9784,0.0,0.0,0.0,2.9707,3.0079,3.0067,3.0374,3.0846,3.0211,2.996,3.0061,2.9076,2.8347,2.7878,2.7559,2.6765,2.561,0.0,0.0,2.4779,2.3791,2.3592,2.4156,2.3565,2.3183,2.3138,2.3052,2.2717,2.2148,2.2129,2.2081,2.1915,2.2041,2.2129,2.2139,2.2285,2.2383,0.0,0.0,0.0,0.0,0.0,0.0,0.0,0.0,0.0,0.0,0.0,2.264,2.264,0.0,0.0,0.0,2.2176,2.2065,2.1963,2.1941,0.0,0.0,0.0,0.0,0.0,0.0,0.0,2.1581,2.2002,2.2424,2.2744,2.3074,2.334,2.348,2.3449,2.3758,2.4682,0.0,2.5129,2.5386,2.5234,2.5039,2.4766,2.4624,2.4553,2.465,2.4978,2.5474,2.5895,2.61,2.6208,2.6339,2.6636,2.7108,2.7805,2.7707,2.7745,2.8288,2.8589,2.884,2.9207,2.9304,2.9476,3.6197,3.5562,3.4695,3.3894,3.3178,3.2975,3.2503,3.1878,3.1682,3.1562,3.1486,3.0984,3.0498,3.0093,2.9789,0.0,3.0131,3.0695,3.1097,3.1406,3.1406,3.1411,3.1449,3.1411,3.112,3.0606,2.976,2.8755,2.7626,2.6825,2.6128,2.5548,2.6296,2.5908,2.4403,2.4075,2.3819,2.35,2.3068,2.3044,2.345,2.3232,2.2937,2.2557,2.2537,2.2383,2.2012,2.2353,2.2537,2.2547,2.2886,2.3079,2.3079,0.0,0.0,0.0,0.0,0.0,0.0,0.0,0.0,0.0,0.0,0.0,0.0,0.0,0.0,0.0,2.1852,0.0,2.1687,2.1687,0.0,0.0,0.0,2.1705,2.1733,2.1764,2.1888,2.2304,0.0,0.0,2.3407,2.4235,2.4448,2.3605,2.402,2.451,2.4847,2.5215,2.5272,2.4782,2.4429,2.406,2.3719,2.3344,2.3219,2.3448,2.316,2.3331,2.3747,2.3731,2.3576,2.3922,2.4085,2.4801,2.6421,2.6853,2.7324,2.8027,2.8716,2.9284,2.9537,2.9573,2.9815,3.5627,3.4928,3.469,3.434,3.3904,3.3722,3.3532,3.3372,3.3329,3.309,3.2663,3.2089,3.1545,3.1065,3.0979,3.0992,3.1077,3.1216,3.1334,3.1406,3.1406,3.1612,3.1989,3.1607,3.1166,3.0731,3.0124,2.9115,2.7803,2.7552,2.6856,2.579,2.5777,2.5417,2.4612,2.3948,2.3574,2.3496,2.3388,2.3286,2.321,2.3135,2.3042,2.2967,2.2945,2.2896,2.283,2.2918,2.2967,2.2945,2.2889,2.286,2.2869,2.2662,0.0,0.0,0.0,0.0,0.0,0.0,0.0,0.0,0.0,2.2154,2.2185,0.0,2.1852,0.0,2.1718,2.1687,2.1687,2.1687,0.0,0.0,2.1687,2.1837,2.2121,2.2158,2.2323,2.2712,2.3023,2.327,2.3471,2.3987,2.4103,2.3557,2.4923,2.5946,2.5765,2.5687,2.5272,2.4158,2.3942,2.3815,2.3193,2.3066,2.295,2.3085,2.3002,2.3046,2.3168,2.3408,2.358,2.3668,2.3978,2.4464,2.5044,2.5191,2.5362,2.5871,2.7145,2.8354,2.8444,2.8433,2.8767,3.5856,3.5454,3.5454,3.535,3.5155,3.4515,3.4261,3.4251,3.4239,3.4085,3.3784,3.3228,3.2516,3.1775,3.175,3.175,3.1763,3.1763,3.1888,3.216,3.216,3.2303,3.2558,3.1843,3.1254,3.0766,2.9659,2.8562,2.7549,2.7128,2.652,2.5676,2.5568,2.5257,2.4737,2.3927,2.3582,2.3759,2.3451,2.3254,2.3101,2.3101,2.3101,2.3101,2.3101,2.3057,2.2979,2.2969,2.2904,2.2794,2.2684,2.2627,2.2618,2.2485,2.2353,0.0,0.0,0.0,0.0,0.0,0.0,0.0,0.0,0.0,0.0,0.0,2.1687,2.1687,2.1687,2.1687,2.1687,2.1687,2.176,2.1956,2.1797,2.1916,2.2492,2.2414,2.2524,2.3096,2.3352,2.3393,2.3124,2.3573,2.3721,2.3116,2.4319,2.5183,2.4939,2.4924,2.4493,2.3063,2.2865,2.2556,2.1583,2.1402,2.1426,2.1536,2.1463,2.1463,2.1707,2.1846,2.1986,2.2246,2.2364,2.2774,2.3673,2.3809,2.3802,2.4201,2.5009,2.6014,2.6814,2.6812,2.7008,3.6443,3.6482,3.643,3.6417,3.6318,3.5328,3.4926,3.4916,3.4904,3.4866,3.4778,3.4248,3.3458,3.252,3.2541,3.2507,3.252,3.252,3.2805,3.3291,3.3316,3.3201,3.2996,3.2096,3.1312,3.0462,2.8869,2.7727,2.7081,2.6297,2.5756,2.5475,2.5429,2.5221,2.4865,2.4046,2.3747,2.3959,2.3455,2.3179,2.3201,2.3179,2.3169,2.3201,2.3108,2.2969,2.2825,2.275,2.2649,2.241,2.2375,2.2375,2.2344,2.2331,2.222,0.0,2.2052,0.0,0.0,0.0,0.0,0.0,0.0,0.0,0.0,2.1687,2.1687,2.1687,2.1687,2.1687,2.1687,2.1742,2.192,2.2249,2.2025,2.2099,2.2693,2.2461,2.2487,2.3108,2.3174,2.2941,2.24,2.2919,2.3039,2.239,2.2731,2.3086,2.3037,2.3384,2.3235,2.1781,2.1445,2.0985,1.9927,1.954,1.962,1.9734,1.9731,1.9582,2.0093,1.9992,1.9996,2.0452,2.0476,2.0841,2.2505,2.2561,2.2465,2.2762,2.2952,2.3531,2.4891,2.5091,2.5043,3.6632,3.6997,3.6593,3.6417,3.638,3.6168,3.608,3.608,3.608,3.5793,3.532,3.4791,3.4449,3.4226,3.4226,3.4226,3.4226,3.4226,3.4276,3.4412,3.4389,3.3734,3.2564,3.235,3.1163,2.9168,2.8744,2.7823,2.6375,2.6223,2.5831,2.5191,2.5008,2.5063,2.5254,0.0,0.0,0.0,2.3525,2.3662,2.3662,2.3672,2.3672,2.3652,2.3131,0.0,2.2803,2.2574,2.2441,2.2397,2.2252,0.0,0.0,0.0,0.0,0.0,0.0,0.0,0.0,0.0,0.0,0.0,2.1687,2.1687,2.1687,2.1687,2.1687,2.1687,2.1687,2.1687,2.1696,2.2002,2.2199,2.2295,2.251,2.2519,2.217,2.2007,2.1861,2.1435,2.1391,2.1357,2.126,2.1338,2.1328,2.0983,2.0849,2.0709,2.0562,2.1714,2.1897,2.0529,2.0224,2.0004,1.947,1.9395,1.9415,1.9461,1.9448,1.9448,1.9548,1.9548,1.9589,1.9933,1.992,2.0127,2.1043,2.1104,2.1187,2.142,2.1506,2.1898,2.3282,2.3525,2.3806,3.721,0.0,3.6909,3.6632,0.0,3.6417,3.6417,3.6417,3.6417,3.6218,3.5931,3.5655,3.5378,3.5104,3.5082,3.4954,3.4703,3.4703,3.4406,3.3901,3.3666,3.2874,3.1573,3.0893,2.993,2.8701,2.8211,2.7505,2.6587,2.6553,2.6219,2.5578,2.5493,2.5484,2.5539,2.4998,2.4414,2.3757,2.3789,2.3811,2.3779,2.3584,2.34,2.3289,0.0,0.0,0.0,0.0,0.0,0.0,0.0,0.0,0.0,0.0,0.0,2.1042,2.1432,2.1508,2.1096,2.1635,2.2011,2.2011,2.2172,2.2117,2.1733,2.1687,2.1778,2.1984,2.2011,2.2071,2.2249,2.2015,2.189,2.2043,2.165,2.1311,2.1362,2.1222,2.1063,2.0941,2.0911,2.0731,2.0133,2.0223,2.0016,1.9447,1.9326,1.9341,1.9432,2.0294,2.0648,1.9902,1.9666,1.9562,1.9435,1.9395,1.9401,1.9395,1.9395,1.9395,1.9395,1.9395,1.9495,1.972,1.9722,1.9843,2.0505,2.0485,2.0421,2.0929,2.0989,2.1119,2.1954,2.2128,2.2271,3.7801,3.7487,3.7298,3.6947,3.6532,3.6443,3.6417,3.6417,0.0,0.0,0.0,3.6417,3.6143,3.5669,3.5669,3.5418,3.5004,3.4992,3.4428,3.3382,3.3008,3.2111,3.0794,2.9648,2.8934,2.8657,2.7788,2.7218,2.6941,2.6811,2.6496,2.6076,2.6028,2.5917,2.5689,2.5395,2.5033,2.4625,2.4228,2.3975,2.3896,2.3523,2.3198,2.2909,2.2788,2.2539,2.2119,2.2052,2.1941,2.1718,2.1687,2.1687,2.1696,2.1782,2.1464,2.0769,2.1468,2.1581,2.086,2.1778,2.2391,2.2405,2.2539,2.2425,2.193,2.1906,2.2044,2.2378,2.2414,2.2459,2.2584,2.1928,2.1457,2.1582,2.0589,2.0141,2.0511,2.0327,2.0163,2.031,2.021,1.9978,1.906,1.9132,1.9035,1.8279,1.8339,1.8551,1.8883,1.9517,1.9912,1.9729,1.9579,1.9481,1.9415,1.9468,1.9448,1.9408,1.9441,1.9461,1.9415,1.9395,1.9515,1.9746,1.9622,1.9863,2.0478,2.0347,2.0241,2.0931,2.0922,2.0822,2.1036,2.1102,2.1166,3.8241,3.858,3.7588,3.716,3.706,3.6606,3.6417,3.6417,3.6417,3.6417,3.6417,3.6417,3.6355,3.6268,3.6268,3.6254,3.6179,3.6179,3.5588,0.0,3.4499,3.3187,3.0918,3.0669,2.9897,2.8633,2.7905,2.7427,2.7103,2.6542,2.6062,2.5815,2.5757,2.5766,2.5674,2.5659,2.5591,2.5523,2.5117,2.473,2.4313,2.4245,2.3926,2.3332,2.2755,2.2353,2.2087,2.1874,2.1741,2.1687,2.1687,2.1687,2.1705,2.2007,2.2154,2.2048,2.2459,2.2669,2.2534,2.2724,2.2812,2.2774,2.2022,2.1853,2.2655,2.2739,2.2757,2.2821,2.2798,2.2454,2.1676,2.1687,2.1361,2.0659,2.0633,2.0417,1.9591,1.9384,1.9033,1.8323,1.8075,1.8127,1.8003,1.7978,1.8075,1.8003,1.8069,1.8249,1.8783,1.9397,1.9653,1.9555,1.9642,1.9613,1.9475,1.9615,1.9586,1.9435,1.9582,1.9599,1.9428,1.9395,1.9488,1.9733,1.9713,1.9983,2.0552,2.0666,2.0621,2.0949,2.0969,2.0995,2.1056,2.1082,2.1102,3.8906,3.8831,3.8328,3.7939,3.7588,3.7072,3.6658,3.6417,3.6417,3.6417,3.6417,3.6417,3.6417,3.6334,3.5786,3.5523,3.5523,3.4933,3.408,3.308,3.2817,3.1761,3.0123,2.9616,2.908,2.8392,2.7913,2.7587,2.7292,2.6943,2.669,2.6416,2.6211,2.5952,2.5728,2.5708,2.5708,2.5708,2.5293,2.4923,2.4584,2.4309,2.3819,2.3044,2.271,2.2333,2.1906,2.1763,2.1687,2.1687,2.1687,2.1687,2.1705,2.1543,2.1472,2.1545,2.1861,2.2049,2.2129,2.281,2.3316,2.3584,2.3156,2.2797,2.2684,2.2296,2.2375,2.3101,2.2703,2.2276,2.1929,2.107,2.0251,1.9742,1.938,1.8897,1.8461,1.833,1.8146,1.7694,1.7615,1.7615,1.7615,1.7729,1.7789,1.7802,1.7889,1.8136,1.8396,1.879,1.9207,1.9361,1.9508,1.9528,1.9421,1.9495,1.9522,1.9408,1.9508,1.9506,1.9408,1.9401,1.9461,1.9555,1.9602,1.9762,2.014,2.006,2.018,2.0497,2.0597,2.0637,2.0815,2.0989,2.1102,3.9446,3.9082,3.8944,3.8542,3.7965,3.7412,3.7034,3.6758,3.6656,3.657,3.6581,3.6468,3.6287,3.5966,3.515,3.4654,3.4337,3.3598,3.2639,3.1644,3.1218,3.0449,2.9399,2.8763,2.8482,2.836,2.8041,2.7752,2.7563,2.7398,2.7196,2.6982,2.6689,2.6332,2.601,2.6001,2.5952,2.5845,2.5489,2.5116,2.4708,2.4338,2.3718,2.2902,2.2819,2.2579,2.2002,2.1879,2.1846,2.1856,2.1824,2.1846,2.182,2.1518,2.1259,2.1193,2.1391,2.1523,2.1459,2.2529,2.3314,2.3427,2.3463,2.3079,2.2198,2.1346,2.1406,2.2554,2.2122,2.172,2.145,2.0272,1.9098,1.8845,1.812,1.774,1.7635,1.7615,1.7615,1.7615,1.7615,1.7615,1.7622,1.7789,1.7796,1.7675,1.7822,1.8009,1.8049,1.8276,1.8704,1.9085,1.9265,1.9287,1.9308,1.9441,1.9502,1.9488,1.9575,1.9609,1.9562,1.9508,1.9455,1.9455,1.9408,1.9555,1.972,1.9696,1.9766,2.015,2.0277,2.033,2.0648,2.0922,2.1089,3.9659,3.9546,3.912,3.8567,3.799,3.745,3.745,3.7726,3.7349,3.7135,3.7085,3.6607,3.5871,3.5017,3.4836,3.4239,3.3375,3.325,3.2563,3.1637,3.1556,3.0829,2.9593,2.9457,2.93,2.8967,2.8355,2.8046,2.7974,2.7381,2.7057,2.7012,2.6973,2.6924,2.6859,2.685,2.6674,2.6338,2.6055,2.5511,2.4742,2.4655,2.4188,2.3266,2.3233,2.3121,2.2739,2.2437,2.2227,2.2249,2.2204,2.2204,2.2245,2.2799,2.2774,2.1857,2.2143,2.1988,2.1163,2.1971,2.2198,2.1311,2.1319,2.1268,2.1005,2.0064,1.9887,2.0813,2.1025,2.0574,1.9653,1.928,1.8741,1.7996,1.7714,1.7615,1.7615,1.7615,1.7615,1.7615,1.7615,1.7615,1.7622,1.7635,1.7662,1.7628,1.7782,1.7982,1.8036,1.8236,1.8531,1.8844,1.8958,1.8956,1.903,1.9439,1.9666,1.9753,1.9943,1.9923,1.98,1.9713,1.9686,1.9441,1.9395,1.9502,1.9659,1.9773,1.9826,1.9983,2.0144,2.029,2.0621,2.0909,2.1082,3.9697,3.9672,3.9472,3.9057,3.8517,3.8291,3.8115,3.7977,3.7764,3.7663,3.7553,3.6752,3.5746,3.4763,3.4141,3.3275,3.2235,3.1607,3.1006,3.0448,3.0422,3.0005,2.9343,2.9115,2.8983,2.885,2.8423,2.8239,2.8183,2.7904,2.7646,2.7448,2.7402,2.7275,2.7015,2.6849,2.6669,2.654,2.6225,2.5825,2.5349,2.4833,2.4221,2.3522,2.3419,2.3261,2.2842,2.2149,2.1708,2.1684,2.1101,2.0745,2.0769,2.0671,2.0726,2.0933,2.1343,2.137,2.0936,2.1319,2.137,2.0911,2.0911,2.0654,1.9952,1.9461,1.9176,1.9001,1.9513,1.9668,1.9202,1.8636,1.8075,1.7687,1.7615,1.7615,1.7615,1.7615,1.7615,1.7615,1.7615,1.7615,1.7615,1.7615,1.7615,1.7615,1.7722,1.7862,1.7989,1.8129,1.8229,1.8363,1.8516,1.8831,1.9098,1.9542,1.9753,1.9846,2.001,2.009,1.9887,1.9806,1.9706,1.9455,1.9408,1.9399,1.9528,1.9546,1.9599,1.9786,2.007,2.029,2.0615,2.0909,2.1069,3.9697,3.9697,3.9697,3.9459,3.912,3.8957,3.8718,3.8417,3.7979,3.7754,3.7641,3.6541,3.5378,3.4252,3.335,3.2279,3.1043,3.0261,2.9748,2.9511,2.9597,2.9412,2.9029,2.8946,2.8766,2.8607,2.8515,2.8457,2.8447,2.833,2.8135,2.7897,2.7868,2.7702,2.7367,2.7069,2.6881,2.6724,2.6378,2.6055,2.5748,2.5115,2.451,2.406,2.3798,2.3466,2.2964,2.2,2.1325,2.1002,2.0256,1.9873,1.984,1.9463,1.9461,1.9899,1.9995,2.0012,2.0012,2.0269,2.0287,2.0055,2.0218,1.9952,1.902,1.8767,1.8434,1.7865,1.8304,1.8767,1.8662,1.8048,1.7641,1.7615,1.7615,1.7615,1.7615,1.7615,1.7615,1.7615,1.7615,1.7615,1.7628,1.7682,1.7716,1.7635,1.7769,1.7836,1.7996,1.8096,1.8163,1.8156,1.8375,1.8627,1.9085,1.9319,1.9553,1.9817,1.9973,1.9983,1.9804,1.9771,1.9562,1.9236,1.9273,1.9285,1.9267,1.9276,1.9386,1.9466,1.975,2.016,2.0454,2.0782,2.0989,3.9697,3.9697,3.9697,3.9672,3.9609,3.9082,3.9132,3.924,3.783,3.712,3.699,3.592,3.4524,3.3082,3.2571,3.1404,2.9904,2.972,2.9514,2.9279,2.9621,2.942,2.8777,2.9154,2.9019,2.8538,2.8767,2.8869,2.8867,2.8516,2.8281,2.8271,2.8262,2.8252,2.8111,2.7842,2.761,2.7122,2.662,2.6197,2.5854,2.5535,2.5341,2.5251,2.4587,2.3854,2.3141,2.2303,2.1394,2.0396,2.0221,2.0164,2.022,2.0477,2.0138,1.9295,1.8335,1.7845,1.7996,1.8767,1.8923,1.8153,1.88,1.8845,1.797,1.7838,1.7766,1.7615,1.7707,1.7793,1.7793,1.774,1.7615,1.7615,1.7615,1.7615,1.7615,1.7615,1.7615,1.7635,1.7682,1.7722,1.7668,1.7816,1.7849,1.7829,1.809,1.835,1.8176,1.8296,1.8444,1.8427,1.8427,1.8466,1.856,1.8975,1.9309,1.9516,1.9693,1.9783,1.9669,1.9538,1.9272,1.9031,1.8959,1.8946,1.9004,1.9098,1.922,1.9385,1.9545,1.9877,2.0175,2.0504,2.0795,3.9697,3.9697,3.9697,3.9697,3.9595,3.8659,3.8371,3.84,3.7124,3.6512,3.6283,3.5108,3.4005,3.3084,3.2034,3.112,3.0458,3.0221,2.995,2.9707,2.9856,2.9699,2.9343,2.9453,2.9425,2.9197,2.9268,2.9336,2.9326,2.9197,2.8992,2.873,2.8664,2.8493,2.8062,2.7728,2.7391,2.7089,2.6703,2.645,2.6248,2.5965,2.6013,2.6453,2.5269,2.4459,2.4188,2.2325,2.1066,2.0686,1.9353,1.857,1.8603,1.871,1.8636,1.8206,1.7812,1.7615,1.7661,1.7943,1.8042,1.7714,1.7943,1.8068,1.7687,1.7615,1.7615,1.7615,1.7615,1.7615,1.7615,1.7615,1.7615,1.7615,1.7615,1.7628,1.7615,1.7615,1.7655,1.7849,1.8029,1.819,1.8143,1.8263,1.8283,1.8217,1.8357,1.8504,1.8589,1.8676,1.868,1.8476,1.8401,1.8333,1.8183,1.8781,1.9234,1.935,1.9466,1.9699,1.9712,1.9429,1.9146,1.8819,1.8676,1.8625,1.8684,1.8713,1.89,1.8962,1.9184,1.9577,1.9857,2.0253,2.063,3.9697,3.9645,3.9284,3.9115,3.8959,3.7832,3.7367,3.7207,3.6034,3.5487,3.5201,3.3955,3.311,3.2689,3.1637,3.1089,3.0964,3.0517,3.0127,2.9907,2.9997,2.9903,2.9665,2.9735,2.9715,2.9608,2.9608,2.9647,2.9774,2.9667,2.9452,2.9141,2.8894,2.8581,2.8056,2.7561,2.7179,2.6971,2.6745,2.6436,2.6063,2.5757,2.5647,2.5646,2.4649,2.4105,2.4176,2.1858,2.0327,1.9825,1.8419,1.7615,1.7615,1.7615,1.7615,1.7615,1.7615,1.7615,1.7615,1.7615,1.7608,1.7615,1.7615,1.7615,1.7615,1.7615,1.7615,1.7615,1.7615,1.7635,1.7709,1.7736,1.7695,1.7629,1.7662,1.7736,1.7742,1.7829,1.7983,1.8136,1.8337,1.8457,1.851,1.8577,1.8571,1.8517,1.8631,1.8844,1.875,1.884,1.8726,1.8376,1.8262,1.8049,1.7881,1.8221,1.8847,1.9013,1.9144,1.9404,1.9511,1.9228,1.8945,1.863,1.8452,1.8361,1.8363,1.8392,1.8443,1.8483,1.8811,1.9266,1.9606,2.0023,2.0344,3.9697,3.953,3.8437,3.8029,3.7885,3.67,3.6185,3.5952,3.4642,3.4039,3.3871,3.2514,3.1959,3.1786,3.1419,3.1246,3.1087,3.0492,3.0025,2.982,3.0077,3.0048,2.9755,3.0077,3.0039,2.9745,2.9667,2.9834,3.0176,2.9911,2.9696,2.9466,2.8962,2.8622,2.8461,2.757,2.7054,2.6927,2.6655,2.5971,2.4953,2.4799,2.4317,2.34,2.2783,2.2683,2.3059,2.0962,1.9418,1.8406,1.7862,1.7622,1.7615,1.7615,1.7615,1.7615,1.7615,1.7615,1.7615,1.7615,1.7615,1.7615,1.7615,1.7615,1.7615,1.7615,1.7615,1.7615,1.7655,1.7716,1.7936,1.8009,1.7922,1.7715,1.7896,1.8016,1.8069,1.8283,1.849,1.8504,1.8557,1.8517,1.8577,1.8764,1.8838,1.8688,1.8901,1.9035,1.8603,1.8663,1.8574,1.8218,1.8048,1.7916,1.7696,1.7571,1.8144,1.8635,1.8746,1.8939,1.897,1.8796,1.8556,1.8247,1.809,1.8002,1.8071,1.8112,1.829,1.8426,1.8723,1.8981,1.9421,1.9794,1.9928,3.9697,3.9555,3.8384,3.7911,3.7658,3.5854,3.5013,3.4886,3.347,3.2828,3.2657,3.1864,3.145,3.1392,3.116,3.1025,3.1005,3.0701,3.0565,3.0517,3.0634,3.0596,3.0546,3.0634,3.0605,3.0498,3.0478,3.0566,3.0615,3.0518,3.0256,2.9764,2.9525,2.8993,2.8305,2.7706,2.7345,2.7004,2.595,2.5146,2.4731,2.3963,2.3481,2.3297,2.2235,2.1758,2.2071,2.0746,1.9744,1.9127,1.8345,1.7782,1.7635,1.7615,1.7615,1.7615,1.7615,1.7615,1.7615,1.7615,1.7615,1.7615,1.7615,1.7615,1.7615,1.7615,1.7615,1.7642,1.7769,1.7936,1.8029,1.8216,1.8297,1.8217,1.8297,1.8357,1.8383,1.8617,1.8764,1.8818,1.8965,1.9107,1.912,1.9192,1.9059,1.8779,1.8943,1.8838,1.8558,1.8455,1.8438,1.8071,1.7987,1.7841,1.764,1.7566,1.794,1.8378,1.8527,1.8619,1.8582,1.8465,1.8185,1.7972,1.7789,1.7738,1.7813,1.788,1.8037,1.8224,1.8403,1.8766,1.9225,1.9493,1.9682,3.905,3.8842,3.7299,3.6642,3.6426,3.4486,3.3695,3.3498,3.2438,3.1932,3.1816,3.1392,3.116,3.1141,3.0966,3.0918,3.0928,3.0928,3.0928,3.0928,3.0928,3.0928,3.0928,3.0928,3.0928,3.0928,3.0918,3.0928,3.0889,3.0752,3.0461,3.0055,2.9642,2.9116,2.8368,2.7772,2.7178,2.6482,2.5393,2.4362,2.3516,2.2721,2.2234,2.1949,2.1054,2.0715,2.0836,2.0196,1.9758,1.9464,1.8694,1.805,1.7668,1.7615,1.7615,1.7615,1.7615,1.7615,1.7615,1.7615,1.7615,1.7615,1.7615,1.7615,1.7615,1.7615,1.7615,1.7749,1.7896,1.8082,1.8329,1.8524,1.8691,1.8811,1.8704,1.8711,1.8826,1.9,1.9072,1.9154,1.9267,1.9316,1.9243,1.9207,1.9091,1.8816,1.87,1.8619,1.8363,1.8246,1.8077,1.7901,1.7778,1.7661,1.755,1.7647,1.7828,1.8095,1.8367,1.8422,1.8458,1.8258,1.801,1.7798,1.7615,1.7585,1.7631,1.7608,1.7717,1.7883,1.8215,1.8599,1.9061,1.9258,1.9431,3.7858,3.7539,3.5454,3.4636,3.4441,3.3027,3.2449,3.2219,3.1653,3.1383,3.1305,3.1093,3.0918,3.0918,3.0928,3.0928,3.0928,3.0928,3.0928,3.0928,3.0928,3.0928,3.0928,3.0928,3.0928,3.0928,3.0928,3.0889,3.0791,3.0577,3.0362,3.0149,2.9388,2.8843,2.8559,2.7741,2.6641,2.5804,2.4926,2.342,2.1628,2.1197,2.0723,1.9752,1.9625,1.9582,1.9611,1.9584,1.9477,1.931,1.88,1.825,1.7782,1.7648,1.7722,1.7695,1.7648,1.7669,1.7649,1.7702,1.7709,1.7749,1.7762,1.7662,1.7749,1.7762,1.7842,1.8016,1.8116,1.8323,1.8723,1.8925,1.9058,1.9287,1.9085,1.9065,1.9328,1.9361,1.9312,1.9296,1.933,1.9243,1.891,1.8881,1.8706,1.8502,1.8392,1.8252,1.8048,1.7901,1.7813,1.7696,1.7602,1.7573,1.752,1.7683,1.7817,1.7968,1.8179,1.8203,1.8233,1.8022,1.7871,1.7665,1.7544,1.7491,1.7509,1.7556,1.775,1.8101,1.8354,1.8589,1.8826,1.9121,1.9232,3.7394,3.6522,3.5096,3.4368,3.3994,3.281,3.2172,3.1913,3.1498,3.1296,3.1247,3.1034,3.0928,3.0928,3.0928,3.0928,3.0928,3.0928,3.0928,3.0928,3.0928,3.0928,3.0928,3.0928,3.0928,3.0928,3.0889,3.0762,3.0538,3.0411,3.0147,2.9736,2.9378,2.9116,2.8807,2.7331,2.6545,2.5796,2.3749,2.2545,2.1781,2.0668,2.0062,1.9754,1.9522,1.9421,1.9428,1.9602,1.9452,1.9065,1.8918,1.8509,1.7996,1.8103,1.8116,1.7956,1.7902,1.8029,1.815,1.8036,1.8023,1.8251,1.8217,1.8277,1.8284,1.825,1.8297,1.8389,1.8529,1.871,1.8903,1.9118,1.9272,1.9361,1.9301,1.9287,1.9368,1.9395,1.9336,1.9091,1.9055,1.8852,1.8655,1.8532,1.8421,1.8194,1.8083,1.8025,1.7784,1.7667,1.7602,1.7573,1.7514,1.7514,1.7533,1.769,1.7835,1.7895,1.7974,1.795,1.7913,1.7774,1.7671,1.7526,1.7526,1.7485,1.7563,1.7624,1.795,1.8264,1.8469,1.8674,1.8911,1.9136,1.9136,3.6524,3.5742,3.4586,3.3938,3.3502,3.2576,3.204,3.1796,3.1356,3.1141,3.1112,3.0976,3.0928,3.0928,3.0928,3.0928,3.0928,3.0928,3.0928,3.0928,3.0928,3.0928,3.0928,3.0928,3.0928,3.0889,3.0762,3.0577,3.0362,3.0177,2.9833,2.9411,2.8769,2.8361,2.8009,2.6457,2.5286,2.4556,2.2879,2.1789,2.1182,2.0427,2.006,1.996,1.98,1.9693,1.9613,1.9713,1.9573,1.9219,1.9092,1.8844,1.8296,1.8384,1.8404,1.8209,1.8203,1.8317,1.8417,1.8317,1.8317,1.8444,1.8497,1.8497,1.8477,1.8497,1.851,1.8677,1.881,1.8936,1.9112,1.9301,1.9381,1.9395,1.9395,1.9395,1.9395,1.9272,1.912,1.8939,1.8765,1.8561,1.8282,1.8252,1.8077,1.7878,1.779,1.7696,1.7579,1.7514,1.7485,1.7485,1.7485,1.7485,1.7533,1.7678,1.769,1.778,1.7786,1.775,1.7732,1.7624,1.7563,1.7538,1.7491,1.7521,1.763,1.7756,1.7992,1.8264,1.8499,1.8746,1.8989,1.9104,1.9104,3.5551,3.5043,3.4011,3.3355,3.2934,3.2316,3.1989,3.1742,3.126,3.0976,3.0928,3.0928,3.0928,3.0928,3.0928,3.0928,3.0928,3.0928,3.0928,3.0928,3.0928,3.0928,3.0928,3.0928,3.0928,3.0859,3.0577,3.0392,3.0118,2.9647,2.9233,2.868,2.7525,2.6883,2.6508,2.5139,2.3779,2.3057,2.2287,2.142,2.0767,2.0365,2.0281,2.0267,2.015,1.997,1.9833,1.9786,1.9682,1.9408,1.9421,1.9105,1.8637,1.8551,1.8564,1.8544,1.8537,1.8557,1.8584,1.8597,1.8571,1.8637,1.8644,1.8577,1.8651,1.8691,1.8764,1.8951,1.8943,1.9112,1.9301,1.9395,1.9395,1.9395,1.9395,1.9395,1.9366,1.9149,1.8933,1.8874,1.8619,1.8305,1.8083,1.7943,1.7849,1.7696,1.7608,1.7573,1.7514,1.7514,1.7485,1.7485,1.7485,1.7485,1.7557,1.7683,1.7612,1.7593,1.7581,1.7593,1.7695,1.7612,1.7563,1.7527,1.7539,1.7618,1.7744,1.7889,1.8101,1.8348,1.8675,1.8843,1.9012,1.9086,1.9104,3.5093,3.3932,3.3694,3.3093,3.2346,3.2355,3.1949,3.1201,3.1319,3.1143,3.0976,3.0928,3.0928,3.0928,3.0928,3.0928,3.0928,3.0928,3.0928,3.0928,3.0928,3.0889,3.0889,3.0859,3.0859,3.0791,3.0538,3.0245,2.9765,2.8582,2.7796,2.7383,2.6247,2.5423,2.5216,2.407,2.3307,2.2804,2.1901,2.1237,2.0971,2.0668,2.0581,2.0561,2.0368,2.007,1.9873,1.9806,1.9659,1.9528,1.9548,1.9379,1.8985,1.9025,1.9018,1.8878,1.8838,1.8925,1.9107,1.8965,1.8938,1.9127,1.9127,1.9207,1.9207,1.9174,1.9207,1.9294,1.9301,1.9308,1.9374,1.9395,1.9395,1.9395,1.9395,1.9395,1.9395,1.9307,1.912,1.891,1.859,1.8305,1.8025,1.7755,1.7631,1.7514,1.7485,1.7485,1.7485,1.7485,1.7485,1.7485,1.7485,1.7485,1.7509,1.7612,1.7648,1.7642,1.7624,1.7648,1.772,1.7756,1.7756,1.7695,1.7629,1.775,1.7919,1.81,1.833,1.8584,1.8802,1.8959,1.9074,1.9098,1.9104,3.4739,3.37,3.3538,3.3044,3.2402,3.2165,3.1859,3.1494,3.1269,3.1103,3.0967,3.0928,3.0928,3.0928,3.0928,3.0928,3.0928,3.0928,3.0928,3.0859,3.0762,3.0674,3.0616,3.0528,3.047,3.046,2.9638,2.9155,2.8424,2.7237,2.6208,2.5973,2.474,2.4193,2.3915,2.2865,2.2208,2.202,2.1538,2.1102,2.1069,2.0975,2.0913,2.0822,2.0601,2.0347,2.0241,1.9927,1.9783,1.9649,1.9586,1.9479,1.9225,1.9301,1.9294,1.9172,1.9132,1.9185,1.9301,1.9274,1.9192,1.9381,1.9395,1.9424,1.9395,1.9395,1.9395,1.9395,1.9388,1.9395,1.9395,1.9395,1.9395,1.9395,1.9395,1.9395,1.9395,1.9272,1.912,1.8852,1.848,1.8229,1.7937,1.769,1.7543,1.7485,1.7485,1.7485,1.7485,1.7485,1.7485,1.7485,1.7485,1.7485,1.7485,1.7569,1.7708,1.7762,1.7865,1.7913,1.8016,1.8016,1.798,1.7949,1.7937,1.7986,1.8167,1.8348,1.8518,1.8675,1.8844,1.9013,1.9104,1.9104,1.9104,3.445,3.3718,3.3411,3.3033,3.254,3.1914,3.1768,3.1807,3.1299,3.1016,3.0928,3.0928,3.0928,3.0928,3.0928,3.0928,3.0928,3.0889,3.0889,3.0733,3.0577,3.0177,2.9942,2.9647,2.9342,2.953,2.8632,2.7855,2.6935,2.566,2.4794,2.4494,2.3419,2.2834,2.249,2.1814,2.126,2.126,2.1197,2.1102,2.1102,2.1082,2.1076,2.1015,2.0882,2.0681,2.0528,2.0241,1.994,1.9853,1.9586,1.9488,1.9455,1.9408,1.9395,1.9388,1.9361,1.9368,1.9381,1.9381,1.9374,1.9395,1.9395,1.9395,1.9395,1.9395,1.9395,1.9395,1.9395,1.9395,1.9395,1.9395,1.9395,1.9395,1.9395,1.9395,1.9272,1.9055,1.8933,1.8823,1.8428,1.8089,1.7908,1.7726,1.7602,1.7485,1.7485,1.7485,1.7485,1.7485,1.7485,1.7485,1.7485,1.7485,1.7485,1.7521,1.766,1.7847,1.7992,1.8149,1.8251,1.8294,1.83,1.8281,1.83,1.8342,1.839,1.8566,1.8687,1.8772,1.8886,1.9056,1.9104,1.9104,1.9104,3.4326,3.338,3.3318,3.2698,3.1826,3.1973,3.17,3.1211,3.1318,3.1201,3.0947,3.0928,3.0928,3.0928,3.0928,3.0928,3.0928,3.0859,3.0733,3.0518,3.0236,2.9687,2.8701,2.8245,2.7637,2.6897,2.6776,2.6715,2.5644,2.4301,2.3473,2.3107,2.2184,2.1569,2.1569,2.1204,2.1102,2.1102,2.1102,2.1102,2.1102,2.1102,2.1102,2.1102,2.1015,2.0902,2.0728,2.0595,2.0421,2.0144,1.988,1.976,1.9693,1.9562,1.9455,1.9395,1.9395,1.9395,1.9395,1.9395,1.9395,1.9395,1.9395,1.9395,1.9395,1.9395,1.9395,1.9395,1.9395,1.9395,1.9395,1.9395,1.9395,1.9395,1.9366,1.9249,1.9062,1.8881,1.8816,1.8735,1.8317,1.8002,1.7878,1.7755,1.7573,1.7485,1.7485,1.7485,1.7485,1.7485,1.7485,1.7485,1.7485,1.7485,1.7485,1.7527,1.7624,1.7901,1.8076,1.8288,1.8427,1.8559,1.8607,1.8595,1.8565,1.8547,1.8625,1.8772,1.885,1.8903,1.9026,1.9104,1.9104,1.9104,1.9104,3.3668,3.2623,3.2432,3.2055,3.1553,3.1494,3.1446,3.123,3.1201,3.1084,3.0937,3.0928,3.0928,3.0928,3.0928,3.0928,3.0889,3.0704,3.0538,3.0294,2.9383,2.8602,2.7525,2.6914,2.5613,2.4786,2.4878,2.5009,2.417,2.2764,2.2177,2.194,2.1355,2.1102,2.1102,2.1134,2.1102,2.1102,2.1102,2.1102,2.1102,2.1102,2.1102,2.1102,2.1102,2.1029,2.0922,2.0753,2.0646,2.0434,2.0144,2.0024,1.9973,1.9873,1.9666,1.9481,1.9415,1.9401,1.9395,1.9395,1.9395,1.9395,1.9395,1.9395,1.9395,1.9395,1.9395,1.9395,1.9395,1.9395,1.9395,1.9395,1.933,1.9178,1.912,1.8968,1.8735,1.8538,1.848,1.8486,1.82,1.7972,1.7937,1.7755,1.7543,1.7485,1.7485,1.7485,1.7485,1.7485,1.7485,1.7533,1.7551,1.7624,1.7648,1.7702,1.7793,1.8034,1.8209,1.8415,1.8596,1.8766,1.8868,1.8911,1.8837,1.8758,1.8868,1.8971,1.9032,1.9036,1.9086,1.9104,1.9104,1.9104,1.9104,3.2914,3.187,3.1603,3.1445,3.1348,3.1045,3.1084,3.1269,3.1035,3.0937,3.0928,3.0928,3.0928,3.0928,3.0928,3.0918,3.0889,3.0577,3.0236,2.9481,2.8394,2.7435,2.6322,2.5394,2.406,2.3218,2.3018,2.2767,2.2584,2.1751,2.126,2.1229,2.1134,2.1102,2.1102,2.1102,2.1102,2.1102,2.1102,2.1102,2.1102,2.1102,2.1102,2.1102,2.1102,2.1102,2.1049,2.0909,2.0808,2.0688,2.0477,2.0297,2.0284,2.0237,1.9983,1.9633,1.9528,1.9468,1.9401,1.9395,1.9395,1.9395,1.9395,1.9395,1.9395,1.9395,1.9395,1.9395,1.9395,1.9336,1.9278,1.9307,1.912,1.891,1.8794,1.8671,1.8398,1.82,1.8077,1.8025,1.7937,1.7878,1.7784,1.7726,1.7514,1.7485,1.7485,1.7485,1.7485,1.7485,1.7503,1.7581,1.7654,1.7798,1.7883,1.7962,1.81,1.8312,1.8475,1.8633,1.8796,1.8953,1.9013,1.905,1.905,1.8995,1.908,1.9104,1.9092,1.9092,1.9098,1.9104,1.9104,1.9104,1.9104,3.2345,3.1553,3.1514,3.1309,3.0996,3.0947,3.0918,3.0967,3.0947,3.0928,3.0928,3.0928,3.0928,3.0928,3.0928,3.0928,3.0704,3.0304,2.9422,2.8274,2.7366,2.5966,2.4328,2.3609,2.2987,2.2279,2.2013,2.1605,2.1599,2.1355,2.1156,2.1176,2.1203,2.1136,2.1229,2.1196,2.1102,2.1116,2.1109,2.1109,2.1122,2.1116,2.1102,2.1102,2.1102,2.1102,2.1102,2.1022,2.1009,2.0995,2.0775,2.0672,2.0588,2.0361,2.0217,2.0044,1.99,1.9646,1.9488,1.9441,1.9408,1.9415,1.9421,1.9401,1.9395,1.9395,1.9395,1.9395,1.9395,1.9214,1.9004,1.8968,1.8765,1.8596,1.848,1.8334,1.8112,1.796,1.7813,1.7726,1.7696,1.7638,1.7573,1.7543,1.7485,1.7485,1.7485,1.7485,1.7509,1.7533,1.7666,1.7787,1.7865,1.8004,1.8149,1.8221,1.8378,1.8595,1.8729,1.8826,1.8929,1.9038,1.9062,1.9092,1.9104,1.9104,1.9104,1.9104,1.9104,1.9104,1.9104,1.9104,1.9104,1.9104,1.9104,3.1476,3.1133,3.1162,3.1064,3.0898,3.0928,3.0928,3.0928,3.0928,3.0928,3.0928,3.0928,3.0928,3.0859,3.0928,3.0333,2.9628,2.9176,2.8137,2.6594,2.5599,2.4448,2.3388,2.2426,2.1778,2.1903,2.1715,2.1766,2.155,2.1597,2.1603,2.1563,2.1583,2.163,2.149,2.1423,2.1415,2.1323,2.1229,2.1203,2.1269,2.1203,2.1102,2.1102,2.1102,2.1102,2.1102,2.1102,2.1102,2.1089,2.0962,2.0929,2.0902,2.0788,2.0675,2.0474,2.0381,2.0117,1.9736,1.9626,1.9568,1.9488,1.9522,1.9582,1.9461,1.9395,1.9272,1.912,1.912,1.8975,1.8713,1.8619,1.845,1.8282,1.8165,1.8018,1.7843,1.7749,1.7631,1.7543,1.7497,1.7521,1.7539,1.7533,1.7521,1.7485,1.7491,1.7497,1.7575,1.7689,1.7847,1.8082,1.8149,1.8215,1.8378,1.8511,1.8669,1.8844,1.8911,1.8995,1.9038,1.9098,1.9104,1.9104,1.9104,1.9104,1.9104,1.9104,1.9104,1.9104,1.9104,1.9104,1.9104,1.9104,1.9104,3.0928,3.0928,3.0928,3.0928,3.0928,3.0928,3.0928,3.0928,3.0928,3.0928,3.0801,3.0548,3.0362,3.0216,2.9815,2.889,2.794,2.7538,2.6443,2.5001,2.3853,2.3142,2.2486,2.1654,2.1452,2.177,2.1656,2.179,2.1977,2.1984,2.1884,2.1917,2.1744,2.183,2.1823,2.1669,2.1515,2.1381,2.1196,2.1216,2.1323,2.1209,2.1129,2.1102,2.1102,2.1102,2.1102,2.1102,2.1102,2.1096,2.1089,2.1062,2.1056,2.1022,2.0955,2.0788,2.0668,2.0448,2.0134,1.9967,1.98,1.972,1.9649,1.9653,1.9441,1.9336,1.9214,1.8968,1.8794,1.8619,1.8392,1.8311,1.8135,1.7989,1.7878,1.7696,1.7579,1.7597,1.7664,1.7713,1.7689,1.763,1.7636,1.7641,1.7599,1.7503,1.7491,1.7527,1.766,1.7847,1.8046,1.8306,1.8402,1.8481,1.8656,1.8838,1.8971,1.9013,1.9074,1.9104,1.9104,1.9104,1.9104,1.9104,1.9104,1.9104,1.9104,1.9104,1.9104,1.9104,1.9104,1.9104,1.9104,1.9104,1.9104,3.0928,3.0928,3.0928,3.0928,3.0928,3.0928,3.0928,3.0928,3.0928,3.0859,3.0548,2.9717,2.9196,2.8742,2.785,2.706,2.6577,2.5979,2.4878,2.3962,2.3254,2.2507,2.1892,2.1501,2.147,2.2011,2.1836,2.191,2.2184,2.2064,2.189,2.1695,2.1783,2.1683,2.1695,2.1683,2.1522,2.1388,2.1223,2.1223,2.1283,2.1229,2.1176,2.1142,2.1129,2.1077,2.1102,2.1102,2.1102,2.1102,2.1102,2.1102,2.1102,2.1102,2.1049,2.0989,2.0842,2.0681,2.0535,2.0334,2.0184,2.0077,1.9874,1.9611,1.9297,1.9053,1.8939,1.8794,1.8561,1.8365,1.8154,1.7995,1.7872,1.781,1.774,1.7686,1.7604,1.7587,1.7671,1.7822,1.7883,1.7853,1.7853,1.7889,1.775,1.7677,1.7738,1.7774,1.7907,1.807,1.8281,1.8493,1.8619,1.8758,1.8983,1.908,1.9056,1.9056,1.9092,1.9104,1.9104,1.9104,1.9104,1.9104,1.9104,1.9104,1.9104,1.9104,1.9104,1.9104,1.9104,1.9104,1.9104,1.9104,1.9104,3.0928,3.0928,3.0928,3.0928,3.0928,3.0928,3.0928,3.0928,3.0889,3.0362,2.9628,2.9107,2.8346,2.746,2.6871,2.578,2.4848,2.4486,2.3419,2.2466,2.1817,2.1619,2.1248,2.1296,2.1376,2.179,2.1716,2.1883,2.2325,2.2118,2.2124,2.2004,2.189,2.201,2.199,2.1776,2.1616,2.1622,2.1542,2.151,2.1857,2.171,2.1563,2.139,2.1415,2.1269,2.1142,2.1109,2.1102,2.1102,2.1102,2.1102,2.1102,2.1102,2.1102,2.1102,2.0962,2.0929,2.0875,2.0644,2.046,2.0126,1.9786,1.9384,1.9119,1.8777,1.8534,1.8363,1.8261,1.813,1.8011,1.7812,1.7668,1.7671,1.7683,1.7671,1.7695,1.7744,1.7847,1.8094,1.8149,1.8137,1.8137,1.8137,1.7992,1.7841,1.7925,1.804,1.8173,1.8306,1.8505,1.8711,1.8838,1.8899,1.9074,1.9104,1.9104,1.9104,1.9104,1.9104,1.9104,1.9104,1.9104,1.9104,1.9104,1.9104,1.9104,1.9104,1.9104,1.9104,1.9104,1.9104,1.9104,1.9104,1.9104,3.0928,3.0928,3.0928,3.0928,3.0928,3.0928,3.0928,3.083,3.0431,2.9579,2.8325,2.7958,2.7129,2.6092,2.5238,2.4448,2.3263,2.281,2.2198,2.1692,2.1397,2.1289,2.1343,2.145,2.1623,2.1763,2.177,2.201,2.2385,2.2118,2.2151,2.2184,2.2071,2.2024,2.2084,2.1944,2.1783,2.1803,2.1863,2.1856,2.2198,2.1997,2.1883,2.1636,2.1529,2.1408,2.1236,2.1189,2.1102,2.1102,2.1102,2.1102,2.1102,2.1102,2.1102,2.1102,2.1102,2.1102,2.1017,2.0836,2.0488,2.0014,1.9725,1.9326,1.896,1.8658,1.8497,1.8347,1.8192,1.808,1.8016,1.7943,1.7901,1.7962,1.7949,1.7943,1.7986,1.801,1.8179,1.836,1.8384,1.8408,1.8408,1.8396,1.8288,1.8125,1.8119,1.8245,1.8475,1.8602,1.8735,1.8893,1.9032,1.9068,1.9104,1.9104,1.9104,1.9104,1.9104,1.9104,1.9104,1.904,1.904,1.9104,1.9104,1.9104,1.9072,1.904,1.9072,1.9104,1.9104,1.9104,1.9104,1.9104,1.9104,3.0928,3.0928,3.0928,3.0889,3.0772,3.0859,3.083,3.0489,2.9442,2.8236,2.6983,2.5981,2.5156,2.4409,2.3364,2.2567,2.2003,2.1551,2.1388,2.1526,2.1495,2.1696,2.1836,2.1891,2.1897,2.2218,2.2118,2.2071,2.2412,2.2191,2.2225,2.2225,2.2064,2.1783,2.1977,2.1984,2.1863,2.1696,2.189,2.2017,2.2084,2.1943,2.1897,2.1777,2.1496,2.1381,2.1341,2.1196,2.1109,2.1102,2.1102,2.1102,2.1102,2.1102,2.1102,2.1102,2.1102,2.1071,2.1039,2.0748,2.0364,1.9964,1.9789,1.9476,1.9201,1.8886,1.8581,1.8404,1.8362,1.827,1.8263,1.8251,1.8221,1.8233,1.8227,1.8179,1.8221,1.8281,1.8438,1.8613,1.8656,1.8674,1.8674,1.8644,1.8566,1.8451,1.8354,1.8463,1.8705,1.882,1.8923,1.8983,1.9104,1.9104,1.9104,1.9104,1.9104,1.9104,1.904,1.8938,1.8778,1.8579,1.8676,1.8874,1.8746,1.8419,1.8714,1.8976,1.8714,1.8451,1.9008,1.9104,1.9104,1.9104,1.9104,3.0928,3.0928,3.0928,3.0372,2.9658,2.956,2.9569,2.9353,2.8206,2.6914,2.589,2.5202,2.4178,2.3098,2.2512,2.1835,2.1299,2.1211,2.1269,2.1569,2.1629,2.177,2.1957,2.2097,2.2084,2.2084,2.2031,2.2171,2.2412,2.2305,2.2458,2.2532,2.2111,2.1723,2.1575,2.1602,2.1723,2.1903,2.2151,2.2352,2.2492,2.2265,2.2064,2.1997,2.1603,2.1415,2.1355,2.1176,2.1116,2.1102,2.1102,2.1102,2.1077,2.1077,2.1077,2.1077,2.1077,2.0856,2.0577,2.0284,2.0322,2.0156,1.9851,1.9537,1.9224,1.8705,1.8496,1.8465,1.8458,1.842,1.8499,1.8385,1.8354,1.8487,1.8487,1.8432,1.8456,1.8529,1.8681,1.8874,1.8977,1.8947,1.8935,1.8893,1.8796,1.879,1.8711,1.8741,1.8941,1.8983,1.9044,1.905,1.9104,1.9104,1.9104,1.9104,1.8906,1.8746,1.8682,1.8579,1.8387,1.7829,1.7276,1.692,1.7346,1.77,1.77,1.77,1.77,1.7732,1.8068,1.8805,1.9165,1.9146,1.911,3.0928,3.0859,3.0401,2.9717,2.895,2.89,2.8465,2.7607,2.6672,2.5615,2.4579,2.4363,2.362,2.248,2.2048,2.174,2.1154,2.1236,2.1423,2.1723,2.1863,2.2104,2.2278,2.2311,2.2412,2.2278,2.2298,2.2425,2.2592,2.2579,2.2599,2.2539,2.2325,2.1944,2.1683,2.1736,2.191,2.2131,2.2412,2.2673,2.2719,2.2552,2.2305,2.2091,2.181,2.1502,2.1335,2.1182,2.1102,2.1102,2.1071,2.1071,2.1077,2.0982,2.0951,2.0926,2.0767,2.0513,2.0234,2.0145,2.0221,2.0297,1.984,1.9424,1.9179,1.8849,1.8694,1.8633,1.8572,1.8663,1.876,1.859,1.8627,1.8766,1.876,1.8704,1.8716,1.882,1.885,1.905,1.9104,1.9104,1.9104,1.9092,1.9019,1.905,1.908,1.9008,1.8976,1.9072,1.9072,1.9104,1.9104,1.9104,1.9104,1.9104,1.8842,1.8451,1.8221,1.8028,1.6985,1.6236,1.5619,1.5196,1.5814,1.6268,1.6268,1.6268,1.6289,1.6475,1.681,1.7695,1.8915,1.9017,1.8785,3.0889,3.0645,2.9442,2.8861,2.8703,2.8346,2.7108,2.5133,2.5033,2.434,2.3199,2.323,2.2793,2.223,2.2073,2.1702,2.1264,2.1422,2.1696,2.1984,2.2144,2.2505,2.2713,2.2793,2.2726,2.2806,2.2813,2.2713,2.2867,2.282,2.2679,2.2505,2.2398,2.2158,2.2017,2.1997,2.2138,2.2358,2.2612,2.2813,2.2833,2.2579,2.2378,2.2138,2.1856,2.1575,2.1395,2.1236,2.1136,2.1071,2.1046,2.1046,2.0982,2.0767,2.064,2.0513,2.0297,2.017,2.0043,2.0011,1.9979,1.9947,1.9469,1.9188,1.9126,1.9047,1.8935,1.8941,1.8929,1.8989,1.9032,1.9013,1.9001,1.9038,1.9038,1.9032,1.9038,1.9056,1.905,1.9104,1.9104,1.9104,1.9104,1.9104,1.9008,1.8483,1.8317,1.806,1.8188,1.8976,1.9008,1.9104,1.9104,1.9104,1.9072,1.9008,1.8944,1.8579,1.7598,1.7141,1.5944,1.4805,1.4222,1.4058,1.4548,1.4842,1.4838,1.4861,1.4866,1.5119,1.5308,1.6293,1.7407,1.8136,1.8241,3.0343,2.9442,2.9048,2.7877,2.6147,2.517,2.4294,2.372,2.3666,2.3386,2.3106,2.2863,2.2487,2.2111,2.1859,2.1488,2.1382,2.1416,2.1736,2.2037,2.2318,2.2626,2.2806,2.29,2.29,2.29,2.29,2.29,2.2893,2.29,2.2712,2.2472,2.2465,2.2372,2.2331,2.2291,2.2365,2.2478,2.2773,2.286,2.282,2.2572,2.2372,2.2078,2.1646,2.1374,2.1078,2.0858,2.0779,2.0849,2.0761,2.0697,2.0704,2.045,2.0227,2.0234,2.0138,2.0043,1.9807,1.9711,1.9488,1.92,1.904,1.9328,1.9296,1.9104,1.9008,1.9104,1.9104,1.9104,1.9104,1.9104,1.9104,1.9104,1.9104,1.9104,1.9104,1.9104,1.9104,1.9104,1.9104,1.9104,1.9104,1.9104,1.8906,1.8092,1.7534,1.7308,1.7211,1.7995,1.8258,1.8291,1.8387,1.8162,1.8682,1.8752,1.8784,1.8617,1.7243,1.5939,1.4903,1.3862,1.3046,1.2816,1.3144,1.3304,1.3407,1.3428,1.3454,1.3412,1.3669,1.4764,1.5816,1.6773,1.7443,2.9861,2.8661,2.8121,2.6519,2.4379,2.3448,2.3106,2.3106,2.3106,2.3043,2.2887,2.2707,2.2331,2.1915,2.1702,2.1463,2.1187,2.1596,2.1883,2.205,2.2378,2.2693,2.286,2.29,2.29,2.29,2.29,2.29,2.29,2.2887,2.2739,2.2639,2.2599,2.2585,2.2592,2.2592,2.2592,2.2659,2.2793,2.2873,2.2746,2.2565,2.2285,2.1879,2.1391,2.0722,2.0215,1.9941,1.9387,1.9228,1.8908,1.8742,1.862,1.8364,1.8048,1.7893,1.7765,1.7636,1.7469,1.7501,1.7539,1.77,1.7963,1.7893,1.8221,1.8226,1.8714,1.9104,1.9104,1.9104,1.9104,1.9104,1.9104,1.9104,1.9104,1.9104,1.9104,1.9104,1.9104,1.9104,1.9104,1.9104,1.9104,1.9104,1.8938,1.8387,1.77,1.7077,1.6689,1.6629,1.6726,1.6662,1.6861,1.6958,1.7545,1.7738,1.7184,1.6565,1.5386,1.4217,1.3534,1.2816,1.1934,1.1637,1.1571,1.1835,1.2194,1.2037,1.1982,1.2067,1.2267,1.2962,1.4376,1.6132,1.6612,2.9183,2.7755,2.6599,2.4958,2.327,2.3106,2.3106,2.3106,2.3106,2.2918,2.2668,2.2574,2.2174,2.1734,2.1544,2.1355,2.1306,2.1622,2.189,2.1997,2.2452,2.2746,2.286,2.29,2.29,2.29,2.29,2.29,2.29,2.2893,2.2887,2.29,2.2867,2.2833,2.282,2.2827,2.2779,2.282,2.2786,2.278,2.2733,2.2519,2.2211,2.1668,2.0674,1.9579,1.8755,1.7704,1.6479,1.6344,1.6215,1.6177,1.6053,1.5961,1.5581,1.5456,1.5689,1.5721,1.5716,1.5716,1.5489,1.5684,1.6041,1.6203,1.6629,1.7571,1.8253,1.7867,1.7641,1.8028,1.8156,1.7899,1.7802,1.8323,1.8708,1.8874,1.9072,1.9072,1.9104,1.9104,1.9104,1.9072,1.897,1.8874,1.7835,1.7963,1.7114,1.6166,1.5549,1.5033,1.5294,1.5168,1.5656,1.5884,1.5851,1.5819,1.4973,1.4156,1.3534,1.3107,1.2816,1.1901,1.0817,1.0916,1.1078,1.0916,1.1049,1.1085,1.1231,1.1273,1.1386,1.1358,1.2704,1.4829,1.5656,2.7082,2.5051,2.394,2.329,2.3122,2.3106,2.3106,2.3106,2.3106,2.2894,2.2613,2.2324,2.1978,2.1607,2.1355,2.1166,2.1248,2.1542,2.1796,2.1997,2.2385,2.2645,2.284,2.284,2.2867,2.29,2.29,2.29,2.29,2.29,2.29,2.29,2.2791,2.2688,2.2859,2.2818,2.2607,2.2572,2.2381,2.2214,2.2052,2.2051,2.1852,2.1261,2.0332,1.9196,1.8372,1.7657,1.677,1.6274,1.5761,1.5442,1.5163,1.5001,1.4935,1.4907,1.4581,1.4483,1.445,1.4385,1.4385,1.4646,1.507,1.5103,1.5619,1.6786,1.7109,1.6403,1.6273,1.6791,1.705,1.6732,1.6635,1.7442,1.8247,1.8579,1.8912,1.888,1.8906,1.8906,1.8906,1.881,1.8612,1.8028,1.705,1.5879,1.4539,1.353,1.2877,1.252,1.3731,1.3927,1.4744,1.494,1.4581,1.4222,1.3534,1.3407,1.3112,1.2651,1.2132,1.1442,1.0721,1.0721,1.075,1.0721,1.0721,1.0754,1.0855,1.088,1.0992,1.1151,1.1639,1.3355,1.4086,2.5597,2.3819,2.2939,2.2782,2.3069,2.3106,2.3106,2.3106,2.3106,2.2825,2.2418,2.2174,2.1828,2.1418,2.1166,2.1102,2.1162,2.1455,2.1756,2.1991,2.2138,2.2392,2.2592,2.2719,2.2645,2.2672,2.2853,2.29,2.29,2.29,2.29,2.2756,2.2516,2.2235,2.2524,2.2287,2.1789,2.1825,2.1473,2.1055,2.0764,2.0547,2.0214,1.9697,1.8403,1.7516,1.6548,1.5692,1.4632,1.3934,1.3384,1.3107,1.2882,1.2816,1.291,1.2914,1.2849,1.3046,1.3112,1.321,1.3239,1.3341,1.3866,1.3796,1.3013,1.4082,1.5424,1.494,1.5331,1.5846,1.5884,1.5661,1.5694,1.6208,1.7082,1.77,1.7475,1.7184,1.6985,1.6726,1.6726,1.6726,1.6565,1.65,1.5656,1.5391,1.3763,1.2812,1.1802,1.0853,1.1868,1.2622,1.3341,1.3243,1.2585,1.2487,1.2425,1.2392,1.2557,1.2,1.1376,1.1049,1.0721,1.0721,1.0721,1.0721,1.0721,1.0721,1.0795,1.0884,1.0985,1.1118,1.1639,1.2112,1.2938,2.4387,2.3317,2.2774,2.2784,2.3076,2.3106,2.3106,2.3106,2.3106,2.2738,2.2174,2.2104,2.167,2.126,2.1102,2.1102,2.1162,2.1323,2.1656,2.1863,2.1943,2.2191,2.2372,2.2445,2.2512,2.2619,2.28,2.2867,2.29,2.29,2.2791,2.2551,2.1919,2.1286,2.1705,2.1096,2.0127,2.0157,1.9791,1.8908,1.8597,1.8423,1.8204,1.6985,1.5547,1.4427,1.3654,1.2835,1.1792,1.1384,1.1455,1.1365,1.131,1.1376,1.1244,1.131,1.1376,1.131,1.1144,1.1277,1.1144,1.1211,1.2066,1.2132,1.1442,1.1901,1.3243,1.3763,1.4124,1.4418,1.445,1.432,1.439,1.5108,1.5981,1.6624,1.6138,1.5689,1.5364,1.4973,1.5005,1.5005,1.494,1.4875,1.4516,1.432,1.3763,1.3042,1.2194,1.1277,1.1244,1.1508,1.1769,1.1409,1.0982,1.1211,1.1571,1.1442,1.1505,1.1049,1.0721,1.0721,1.0721,1.0721,1.0721,1.0727,1.0721,1.0721,1.0782,1.0907,1.0945,1.1046,1.1357,1.1825,1.229,2.3053,2.2453,2.2318,2.2586,2.3047,2.3098,2.3106,2.3106,2.3074,2.2731,2.2237,2.2048,2.1734,2.1102,2.1102,2.1102,2.1116,2.1236,2.1415,2.1622,2.1669,2.1971,2.2218,2.2251,2.2539,2.2699,2.2827,2.2873,2.2756,2.2791,2.2825,2.2619,2.1154,2.0595,2.0513,1.9669,1.8654,1.8643,1.8348,1.7623,1.6857,1.6781,1.6985,1.6393,1.5938,1.4738,1.3747,1.2998,1.2075,1.1321,1.0846,1.0741,1.0721,1.0721,1.0721,1.0721,1.0721,1.0721,1.0721,1.0721,1.0721,1.0721,1.1409,1.131,1.0916,1.0949,1.1736,1.1736,1.2128,1.2557,1.2589,1.2128,1.2161,1.3866,1.5136,1.5196,1.4973,1.4777,1.4548,1.4422,1.4455,1.4418,1.4385,1.396,1.3206,1.2849,1.2227,1.1571,1.1505,1.1045,1.0721,1.0721,1.0721,1.0721,1.0784,1.0817,1.1016,1.0784,1.0721,1.0721,1.0721,1.0721,1.0721,1.0721,1.0731,1.0741,1.0734,1.0785,1.084,1.0948,1.0921,1.1005,1.1277,1.1521,1.1966]},{"header":{"parameterUnit":"m.s-1","parameterCategory":1,"la1":31.0,"la2":29.5877,"lo1":-88.7671,"lo2":-86.6584,"dy":0.0162,"dx":0.0185,"nx":115,"ny":88,"refTime":"2023-11-09T06:00:00:Z","depth":0,"parameterNumber":3,"parameterNumberName":"V-component_of_WINDS"},"data":[0.0,0.0,0.0,0.0,0.0,0.0,0.0,0.0,0.0,0.0,0.0,0.0,0.0,0.0,0.0,0.0,0.0,0.0,0.0,0.0,0.0,0.0,0.0,0.0,0.0,0.0,0.0,0.0,0.0,0.0,0.0,0.0,0.0,0.0,0.0,0.0,0.0,0.0,0.0,0.0,0.0,0.0,0.0,0.0,0.0,0.0,0.0,0.0,0.0,0.0,0.0,0.0,0.0,0.0,0.0,0.0,0.0,0.0,0.0,0.0,0.0,0.0,0.0,0.0,0.0,0.0,0.0,0.0,0.0,0.0,0.0,0.0,0.0,0.0,0.0,0.0,0.0,0.0,0.0,0.0,0.0,0.0,0.0,0.0,0.0,0.0,0.0,0.0,0.0,0.0,0.0,0.0,0.0,0.0,0.0,0.0,0.0,0.0,0.0,0.0,0.0,0.0,0.0,0.0,0.0,0.0,0.0,0.0,0.0,0.0,0.0,0.0,0.0,0.0,0.0,0.0,0.0,0.0,0.0,0.0,0.0,0.0,0.0,0.0,0.0,0.0,0.0,0.0,0.0,0.0,0.0,0.0,0.0,0.0,0.0,0.0,0.0,0.0,0.0,0.0,0.0,0.0,0.0,0.0,0.0,0.0,0.0,0.0,0.0,0.0,0.0,0.0,0.0,0.0,0.0,0.0,0.0,0.0,0.0,0.0,0.0,0.0,0.0,0.0,0.0,0.0,0.0,0.0,0.0,0.0,0.0,0.0,0.0,0.0,0.0,0.0,0.0,0.0,0.0,0.0,0.0,0.0,0.0,0.0,0.0,0.0,0.0,0.0,0.0,0.0,0.0,0.0,0.0,0.0,0.0,0.0,0.0,0.0,0.0,0.0,0.0,0.0,0.0,0.0,0.0,0.0,0.0,0.0,0.0,0.0,0.0,0.0,0.0,0.0,0.0,0.0,0.0,0.0,0.0,0.0,0.0,0.0,0.0,0.0,0.0,0.0,0.0,0.0,0.0,0.0,0.0,0.0,0.0,0.0,0.0,0.0,0.0,0.0,0.0,0.0,0.0,0.0,0.0,0.0,0.0,0.0,0.0,0.0,0.0,0.0,0.0,0.0,0.0,0.0,0.0,0.0,0.0,0.0,0.0,0.0,0.0,0.0,0.0,0.0,0.0,0.0,0.0,0.0,0.0,0.0,0.0,0.0,0.0,0.0,0.0,0.0,0.0,0.0,0.0,0.0,0.0,0.0,0.0,0.0,0.0,0.0,0.0,0.0,0.0,0.0,0.0,0.0,0.0,0.0,0.0,0.0,0.0,0.0,0.0,0.0,0.0,0.0,0.0,0.0,0.0,0.0,0.0,0.0,0.0,0.0,0.0,0.0,0.0,0.0,0.0,0.0,0.0,0.0,0.0,0.0,0.0,0.0,0.0,0.0,0.0,0.0,0.0,0.0,0.0,0.0,0.0,0.0,0.0,0.0,0.0,0.0,0.0,0.0,0.0,0.0,0.0,0.0,0.0,0.0,0.0,0.0,0.0,0.0,0.0,0.0,0.0,0.0,0.0,0.0,0.0,0.0,0.0,0.0,0.0,0.0,0.0,0.0,0.0,0.0,0.0,0.0,0.0,0.0,0.0,0.0,0.0,0.0,0.0,0.0,0.0,0.0,0.0,0.0,0.0,0.0,0.0,0.0,0.0,0.0,0.0,0.0,0.0,0.0,0.0,0.0,0.0,0.0,0.0,0.0,0.0,0.0,0.0,0.0,0.0,0.0,0.0,0.0,0.0,0.0,0.0,0.0,0.0,0.0,0.0,0.0,0.0,0.0,0.0,0.0,0.0,0.0,0.0,0.0,0.0,0.0,0.0,0.0,0.0,0.0,0.0,0.0,0.0,0.0,0.0,0.0,0.0,0.0,0.0,0.0,0.0,0.0,0.0,0.0,0.0,0.0,0.0,0.0,0.0,0.0,0.0,0.0,0.0,0.0,0.0,0.0,0.0,0.0,0.0,0.0,0.0,0.0,0.0,0.0,0.0,0.0,0.0,0.0,0.0,0.0,0.0,0.0,0.0,0.0,0.0,0.0,0.0,0.0,0.0,0.0,0.0,0.0,0.0,0.0,0.0,0.0,0.0,0.0,0.0,0.0,0.0,0.0,0.0,0.0,0.0,0.0,0.0,0.0,0.0,0.0,0.0,0.0,0.0,0.0,0.0,0.0,0.0,0.0,0.0,0.0,0.0,0.0,0.0,0.0,0.0,0.0,0.0,0.0,0.0,0.0,0.0,0.0,0.0,0.0,0.0,0.0,0.0,0.0,0.0,0.0,0.0,0.0,0.0,0.0,0.0,0.0,0.0,0.0,0.0,0.0,0.0,0.0,0.0,0.0,0.0,0.0,0.0,0.0,0.0,0.0,0.0,0.0,0.0,0.0,0.0,0.0,0.0,0.0,0.0,0.0,0.0,0.0,0.0,0.0,0.0,0.0,0.0,0.0,0.0,0.0,0.0,0.0,0.0,0.0,0.0,0.0,0.0,0.0,0.0,0.0,0.0,0.0,0.0,0.0,0.0,0.0,0.0,0.0,0.0,0.0,0.0,0.0,0.0,0.0,0.0,0.0,0.0,0.0,0.0,0.0,0.0,0.0,0.0,0.0,0.0,0.0,0.0,0.0,0.0,0.0,0.0,0.0,0.0,0.0,0.0,0.0,0.0,0.0,0.0,0.0,0.0,0.0,0.0,0.0,0.0,0.0,0.0,0.0,0.0,0.0,0.0,0.0,0.0,0.0,0.0,0.0,0.0,0.0,0.0,0.0,0.0,0.0,0.0,0.0,0.0,0.0,0.0,0.0,0.0,0.0,0.0,0.0,0.0,0.0,0.0,0.0,0.0,0.0,0.0,0.0,0.0,0.0,0.0,0.0,0.0,0.0,0.0,0.0,0.0,0.0,0.0,0.0,0.0,0.0,0.0,0.0,0.0,0.0,0.0,0.0,0.0,0.0,0.0,0.0,0.0,0.0,0.0,0.0,0.0,0.0,0.0,0.0,0.0,0.0,0.0,0.0,0.0,0.0,0.0,0.0,0.0,0.0,0.0,0.0,0.0,0.0,0.0,0.0,0.0,0.0,0.0,0.0,0.0,0.0,0.0,0.0,0.0,0.0,0.0,0.0,0.0,0.0,0.0,0.0,0.0,0.0,0.0,0.0,0.0,0.0,0.0,0.0,0.0,0.0,0.0,0.0,0.0,0.0,0.0,0.0,0.0,0.0,0.0,0.0,0.0,0.0,0.0,0.0,0.0,0.0,0.0,0.0,0.0,0.0,0.0,0.0,0.0,0.0,0.0,0.0,0.0,0.0,0.0,0.0,0.0,0.0,0.0,0.0,0.0,0.0,0.0,0.0,0.0,0.0,0.0,0.0,0.0,0.0,0.0,0.0,0.0,0.0,0.0,0.0,0.0,0.0,0.0,0.0,0.0,0.0,0.0,0.0,0.0,0.0,0.0,0.0,0.0,0.0,0.0,0.0,0.0,0.0,0.0,0.0,0.0,0.0,0.0,0.0,0.0,0.0,0.0,0.0,0.0,0.0,0.0,0.0,0.0,0.0,0.0,0.0,0.0,0.0,0.0,0.0,0.0,0.0,0.0,0.0,0.0,0.0,0.0,0.0,0.0,0.0,0.0,0.0,0.0,0.0,0.0,0.0,0.0,0.0,0.0,0.0,0.0,0.0,0.0,0.0,0.0,0.0,0.0,0.0,0.0,0.0,0.0,0.0,0.0,0.0,0.0,0.0,0.0,0.0,0.0,0.0,0.0,0.0,0.0,0.0,0.0,0.0,0.0,0.0,0.0,0.0,0.0,0.0,0.0,0.0,0.0,0.0,0.0,0.0,0.0,0.0,0.0,0.0,0.0,0.0,0.0,0.0,0.0,0.0,0.0,0.0,0.0,0.0,0.0,0.0,0.0,0.0,0.0,0.0,0.0,0.0,0.0,0.0,0.0,0.0,0.0,0.0,0.0,0.0,0.0,0.0,0.0,0.0,0.0,0.0,0.0,0.0,0.0,0.0,0.0,0.0,0.0,0.0,0.0,0.0,0.0,0.0,0.0,0.0,0.0,0.0,0.0,0.0,0.0,0.0,0.0,0.0,0.0,0.0,0.0,0.0,0.0,0.0,0.0,0.0,0.0,0.0,0.0,0.0,0.0,0.0,0.0,0.0,0.0,0.0,0.0,0.0,0.0,0.0,0.0,0.0,0.0,0.0,0.0,0.0,0.0,0.0,0.0,0.0,2.6792,0.0,0.0,0.0,0.0,0.0,0.0,0.0,0.0,0.0,0.0,0.0,0.0,0.0,0.0,0.0,0.0,0.0,0.0,0.0,0.0,0.0,0.0,0.0,0.0,0.0,0.0,0.0,0.0,0.0,0.0,0.0,0.0,0.0,0.0,0.0,0.0,0.0,0.0,0.0,0.0,0.0,0.0,0.0,0.0,0.0,0.0,0.0,0.0,0.0,0.0,0.0,0.0,0.0,0.0,0.0,0.0,0.0,0.0,0.0,0.0,0.0,0.0,0.0,0.0,0.0,0.0,0.0,0.0,0.0,0.0,0.0,0.0,0.0,0.0,0.0,0.0,0.0,0.0,0.0,0.0,0.0,0.0,0.0,0.0,0.0,0.0,0.0,0.0,0.0,0.0,0.0,0.0,0.0,0.0,0.0,0.0,0.0,0.0,0.0,0.0,0.0,0.0,0.0,0.0,0.0,0.0,0.0,0.0,0.0,0.0,2.5756,2.6286,2.6634,2.6807,2.6792,0.0,0.0,0.0,0.0,0.0,0.0,0.0,0.0,0.0,0.0,0.0,0.0,0.0,0.0,0.0,0.0,0.0,0.0,0.0,0.0,0.0,0.0,0.0,0.0,0.0,0.0,0.0,0.0,0.0,0.0,0.0,0.0,0.0,0.0,0.0,0.0,0.0,0.0,0.0,0.0,0.0,0.0,0.0,0.0,0.0,0.0,0.0,0.0,0.0,0.0,0.0,0.0,0.0,0.0,0.0,0.0,0.0,0.0,0.0,0.0,0.0,0.0,0.0,0.0,0.0,0.0,0.0,0.0,0.0,0.0,0.0,0.0,0.0,0.0,0.0,0.0,0.0,0.0,0.0,0.0,0.0,0.0,0.0,0.0,0.0,0.0,0.0,0.0,0.0,0.0,0.0,0.0,0.0,0.0,0.0,0.0,0.0,0.0,0.0,0.0,0.0,0.0,0.0,0.0,0.0,0.0,0.0,0.0,0.0,0.0,0.0,0.0,2.6568,2.6846,2.6897,0.0,0.0,0.0,0.0,0.0,0.0,0.0,0.0,0.0,0.0,0.0,0.0,0.0,0.0,0.0,0.0,0.0,0.0,0.0,0.0,0.0,0.0,0.0,0.0,0.0,0.0,0.0,0.0,0.0,0.0,0.0,0.0,0.0,0.0,0.0,0.0,0.0,0.0,0.0,0.0,0.0,0.0,0.0,0.0,0.0,0.0,0.0,0.0,0.0,0.0,0.0,0.0,0.0,0.0,0.0,0.0,0.0,0.0,0.0,0.0,0.0,0.0,0.0,0.0,0.0,0.0,0.0,0.0,0.0,0.0,0.0,0.0,0.0,0.0,0.0,0.0,0.0,0.0,0.0,0.0,0.0,0.0,0.0,0.0,0.0,0.0,0.0,0.0,0.0,0.0,0.0,0.0,0.0,0.0,0.0,0.0,0.0,0.0,0.0,0.0,0.0,0.0,0.0,0.0,0.0,0.0,0.0,0.0,0.0,0.0,2.6165,2.67,2.6766,0.0,2.7181,0.0,0.0,0.0,0.0,0.0,0.0,0.0,0.0,0.0,0.0,0.0,0.0,0.0,0.0,0.0,0.0,0.0,0.0,0.0,0.0,0.0,0.0,0.0,0.0,0.0,0.0,0.0,0.0,0.0,0.0,0.0,0.0,0.0,0.0,0.0,0.0,0.0,0.0,0.0,0.0,0.0,0.0,0.0,0.0,0.0,0.0,0.0,0.0,0.0,0.0,0.0,0.0,0.0,0.0,0.0,0.0,0.0,0.0,0.0,0.0,0.0,0.0,0.0,0.0,0.0,0.0,0.0,0.0,0.0,0.0,0.0,0.0,0.0,0.0,0.0,0.0,0.0,0.0,0.0,0.0,0.0,0.0,0.0,0.0,0.0,0.0,0.0,0.0,0.0,0.0,0.0,0.0,0.0,0.0,0.0,0.0,0.0,0.0,0.0,0.0,0.0,0.0,0.0,0.0,0.0,0.0,0.0,0.0,0.0,0.0,2.5964,2.6197,2.6197,2.6515,0.0,0.0,0.0,0.0,0.0,0.0,0.0,0.0,0.0,0.0,0.0,0.0,0.0,0.0,0.0,0.0,0.0,0.0,0.0,0.0,0.0,0.0,0.0,0.0,0.0,0.0,0.0,0.0,0.0,0.0,0.0,0.0,0.0,0.0,0.0,0.0,0.0,0.0,0.0,0.0,0.0,0.0,0.0,0.0,0.0,0.0,0.0,0.0,0.0,0.0,0.0,0.0,0.0,0.0,0.0,0.0,0.0,0.0,0.0,0.0,0.0,0.0,0.0,0.0,0.0,0.0,0.0,0.0,0.0,0.0,0.0,0.0,0.0,0.0,0.0,0.0,0.0,0.0,0.0,0.0,0.0,0.0,0.0,0.0,0.0,0.0,0.0,0.0,0.0,0.0,0.0,0.0,0.0,0.0,0.0,0.0,0.0,0.0,0.0,0.0,0.0,0.0,0.0,0.0,0.0,0.0,0.0,0.0,0.0,0.0,2.5354,2.579,2.579,2.579,2.615,2.6899,0.0,0.0,0.0,0.0,0.0,0.0,0.0,0.0,0.0,0.0,0.0,0.0,0.0,0.0,0.0,0.0,0.0,0.0,0.0,0.0,0.0,0.0,0.0,0.0,0.0,0.0,0.0,0.0,0.0,0.0,0.0,0.0,0.0,0.0,0.0,0.0,0.0,0.0,0.0,0.0,0.0,0.0,0.0,0.0,0.0,0.0,0.0,0.0,0.0,0.0,0.0,0.0,0.0,0.0,0.0,0.0,0.0,0.0,0.0,0.0,0.0,0.0,0.0,0.0,0.0,0.0,0.0,0.0,0.0,0.0,0.0,0.0,0.0,0.0,0.0,0.0,0.0,0.0,0.0,0.0,0.0,0.0,0.0,0.0,0.0,0.0,0.0,0.0,0.0,0.0,0.0,0.0,0.0,0.0,0.0,0.0,0.0,0.0,0.0,0.0,0.0,0.0,0.0,0.0,0.0,0.0,0.0,0.0,2.5609,2.5723,2.579,2.579,2.579,2.5946,0.0,0.0,0.0,0.0,0.0,0.0,0.0,0.0,0.0,0.0,0.0,0.0,0.0,0.0,0.0,0.0,0.0,0.0,0.0,0.0,0.0,0.0,0.0,0.0,0.0,0.0,0.0,0.0,0.0,0.0,0.0,0.0,0.0,0.0,0.0,0.0,0.0,0.0,0.0,0.0,0.0,0.0,0.0,0.0,0.0,0.0,0.0,0.0,0.0,0.0,0.0,0.0,0.0,0.0,0.0,0.0,0.0,0.0,0.0,0.0,0.0,0.0,0.0,0.0,0.0,0.0,0.0,0.0,0.0,0.0,0.0,0.0,0.0,0.0,0.0,0.0,0.0,0.0,0.0,0.0,0.0,0.0,0.0,0.0,0.0,0.0,0.0,0.0,0.0,0.0,0.0,0.0,0.0,0.0,0.0,0.0,0.0,0.0,0.0,0.0,0.0,0.0,0.0,0.0,0.0,0.0,0.0,0.0,0.0,2.4023,2.4391,2.4977,2.5718,2.5006,2.5087,0.0,0.0,0.0,0.0,0.0,0.0,0.0,0.0,0.0,0.0,0.0,0.0,0.0,0.0,0.0,0.0,0.0,0.0,0.0,0.0,0.0,0.0,0.0,0.0,0.0,0.0,0.0,0.0,0.0,0.0,0.0,0.0,0.0,0.0,0.0,0.0,0.0,0.0,0.0,0.0,0.0,0.0,0.0,0.0,0.0,0.0,0.0,0.0,0.0,0.0,0.0,0.0,0.0,0.0,0.0,0.0,0.0,0.0,0.0,0.0,0.0,0.0,0.0,0.0,0.0,0.0,0.0,0.0,0.0,0.0,0.0,0.0,0.0,0.0,0.0,0.0,0.0,0.0,0.0,0.0,0.0,0.0,0.0,0.0,0.0,0.0,0.0,0.0,0.0,0.0,0.0,0.0,0.0,0.0,0.0,0.0,0.0,0.0,0.0,0.0,0.0,0.0,0.0,0.0,0.0,0.0,0.0,0.0,0.0,2.3617,0.0,2.4411,2.5413,2.4469,2.453,0.0,0.0,0.0,0.0,0.0,0.0,0.0,0.0,0.0,0.0,0.0,0.0,0.0,0.0,0.0,0.0,0.0,0.0,0.0,0.0,0.0,0.0,0.0,0.0,0.0,0.0,0.0,0.0,0.0,0.0,0.0,0.0,0.0,0.0,0.0,0.0,0.0,0.0,0.0,0.0,0.0,0.0,0.0,0.0,0.0,0.0,0.0,0.0,0.0,0.0,0.0,0.0,0.0,0.0,0.0,0.0,0.0,0.0,0.0,0.0,0.0,0.0,0.0,0.0,0.0,0.0,0.0,0.0,0.0,0.0,0.0,0.0,0.0,0.0,0.0,0.0,0.0,0.0,0.0,0.0,0.0,0.0,0.0,0.0,0.0,0.0,0.0,0.0,0.0,0.0,0.0,0.0,0.0,0.0,0.0,0.0,0.0,0.0,0.0,0.0,0.0,0.0,0.0,0.0,0.0,0.0,0.0,0.0,2.3104,2.4715,2.4225,2.4268,2.489,2.4268,2.4352,0.0,0.0,0.0,0.0,0.0,0.0,0.0,0.0,0.0,0.0,0.0,0.0,0.0,0.0,0.0,0.0,0.0,0.0,0.0,0.0,0.0,0.0,0.0,0.0,0.0,0.0,0.0,0.0,0.0,0.0,0.0,0.0,0.0,0.0,0.0,0.0,0.0,0.0,0.0,0.0,0.0,0.0,0.0,0.0,0.0,0.0,0.0,0.0,0.0,0.0,0.0,0.0,0.0,0.0,0.0,0.0,0.0,0.0,0.0,0.0,0.0,0.0,0.0,0.0,0.0,0.0,0.0,0.0,0.0,0.0,0.0,0.0,0.0,0.0,0.0,0.0,0.0,0.0,0.0,0.0,0.0,0.0,0.0,0.0,0.0,0.0,0.0,0.0,0.0,0.0,0.0,0.0,0.0,0.0,0.0,0.0,0.0,0.0,0.0,0.0,0.0,0.0,0.0,0.0,0.0,0.0,0.0,0.0,0.0,2.3511,2.4172,2.4822,2.5456,2.4469,2.4735,0.0,0.0,0.0,0.0,0.0,0.0,0.0,0.0,0.0,0.0,0.0,0.0,0.0,0.0,0.0,0.0,0.0,0.0,0.0,0.0,0.0,0.0,0.0,0.0,0.0,0.0,0.0,0.0,0.0,0.0,0.0,0.0,0.0,0.0,0.0,0.0,0.0,0.0,0.0,0.0,0.0,0.0,0.0,0.0,0.0,0.0,0.0,0.0,0.0,0.0,0.0,0.0,0.0,0.0,0.0,0.0,0.0,0.0,0.0,0.0,0.0,0.0,0.0,0.0,0.0,0.0,0.0,0.0,0.0,0.0,0.0,0.0,0.0,0.0,0.0,0.0,0.0,0.0,0.0,0.0,0.0,0.0,0.0,0.0,0.0,0.0,0.0,0.0,0.0,0.0,0.0,0.0,0.0,0.0,0.0,0.0,0.0,0.0,0.0,0.0,0.0,0.0,0.0,0.0,0.0,0.0,0.0,0.0,0.0,2.4053,2.4534,2.5154,2.5776,2.4852,2.5092,2.6674,0.0,0.0,0.0,0.0,0.0,0.0,0.0,0.0,0.0,0.0,0.0,0.0,0.0,0.0,0.0,0.0,0.0,0.0,0.0,0.0,0.0,0.0,0.0,0.0,0.0,0.0,0.0,0.0,0.0,0.0,0.0,0.0,0.0,0.0,0.0,0.0,0.0,0.0,0.0,0.0,0.0,0.0,0.0,0.0,0.0,0.0,0.0,0.0,0.0,0.0,0.0,0.0,0.0,0.0,0.0,0.0,0.0,0.0,0.0,0.0,0.0,0.0,0.0,0.0,0.0,0.0,0.0,0.0,0.0,0.0,0.0,0.0,0.0,0.0,0.0,0.0,0.0,0.0,0.0,0.0,0.0,0.0,0.0,0.0,0.0,0.0,0.0,0.0,0.0,0.0,0.0,0.0,0.0,0.0,0.0,0.0,0.0,0.0,0.0,0.0,0.0,0.0,0.0,0.0,0.0,0.0,0.0,0.0,2.5863,2.5413,2.5456,2.5965,2.5489,2.5539,0.0,0.0,0.0,0.0,0.0,0.0,0.0,0.0,0.0,0.0,0.0,0.0,0.0,0.0,0.0,0.0,0.0,0.0,0.0,0.0,0.0,0.0,0.0,0.0,0.0,0.0,0.0,0.0,0.0,0.0,0.0,0.0,0.0,0.0,0.0,0.0,0.0,0.0,0.0,0.0,0.0,0.0,0.0,0.0,0.0,0.0,0.0,0.0,0.0,0.0,0.0,0.0,0.0,0.0,0.0,0.0,0.0,0.0,0.0,0.0,0.0,0.0,0.0,0.0,0.0,0.0,0.0,0.0,0.0,0.0,0.0,0.0,0.0,0.0,0.0,0.0,0.0,0.0,0.0,0.0,0.0,0.0,0.0,0.0,0.0,0.0,0.0,0.0,0.0,0.0,0.0,0.0,0.0,0.0,0.0,0.0,0.0,0.0,0.0,0.0,0.0,0.0,0.0,0.0,0.0,0.0,0.0,0.0,0.0,2.656,2.7737,2.8245,2.7925,2.7011,2.6863,0.0,0.0,0.0,0.0,0.0,0.0,0.0,0.0,0.0,0.0,0.0,0.0,0.0,0.0,0.0,0.0,0.0,0.0,0.0,0.0,0.0,0.0,0.0,0.0,0.0,0.0,0.0,0.0,0.0,0.0,0.0,0.0,0.0,0.0,0.0,0.0,0.0,0.0,0.0,0.0,0.0,0.0,0.0,0.0,0.0,0.0,0.0,0.0,0.0,0.0,0.0,0.0,0.0,0.0,0.0,0.0,0.0,0.0,0.0,0.0,0.0,0.0,0.0,0.0,0.0,0.0,0.0,0.0,0.0,0.0,0.0,0.0,0.0,0.0,0.0,0.0,0.0,0.0,0.0,0.0,0.0,0.0,0.0,0.0,0.0,0.0,0.0,0.0,0.0,0.0,0.0,0.0,0.0,0.0,0.0,0.0,0.0,0.0,0.0,0.0,0.0,0.0,0.0,0.0,0.0,0.0,0.0,0.0,2.7042,2.7969,2.9552,3.0394,3.044,2.9314,2.8557,0.0,0.0,0.0,0.0,0.0,0.0,0.0,0.0,0.0,0.0,0.0,0.0,0.0,0.0,0.0,0.0,0.0,0.0,0.0,0.0,0.0,0.0,0.0,0.0,0.0,0.0,0.0,0.0,0.0,0.0,0.0,0.0,0.0,0.0,0.0,0.0,0.0,0.0,0.0,0.0,0.0,0.0,0.0,0.0,0.0,0.0,0.0,0.0,0.0,0.0,0.0,0.0,0.0,0.0,0.0,0.0,0.0,0.0,0.0,0.0,0.0,0.0,0.0,0.0,0.0,0.0,0.0,0.0,0.0,0.0,0.0,0.0,0.0,0.0,0.0,0.0,0.0,0.0,0.0,0.0,0.0,0.0,0.0,0.0,0.0,0.0,0.0,0.0,0.0,0.0,0.0,0.0,0.0,0.0,0.0,0.0,0.0,0.0,0.0,0.0,0.0,0.0,0.0,0.0,0.0,0.0,0.0,0.0,2.826,2.961,3.0946,3.2056,3.2874,3.1735,3.0303,0.0,0.0,0.0,0.0,0.0,0.0,0.0,0.0,0.0,0.0,0.0,0.0,0.0,0.0,0.0,0.0,0.0,0.0,0.0,0.0,0.0,0.0,0.0,0.0,0.0,0.0,0.0,0.0,0.0,0.0,0.0,0.0,0.0,0.0,0.0,0.0,0.0,0.0,0.0,0.0,0.0,0.0,0.0,0.0,0.0,0.0,0.0,0.0,0.0,0.0,0.0,0.0,0.0,0.0,0.0,0.0,0.0,0.0,0.0,0.0,0.0,0.0,0.0,0.0,0.0,0.0,0.0,0.0,0.0,0.0,0.0,0.0,0.0,0.0,0.0,0.0,0.0,0.0,0.0,0.0,0.0,0.0,0.0,0.0,0.0,0.0,0.0,0.0,0.0,0.0,0.0,0.0,0.0,0.0,0.0,0.0,0.0,0.0,0.0,0.0,0.0,0.0,0.0,0.0,0.0,0.0,0.0,0.0,2.7922,2.9827,3.1595,3.2949,3.387,3.2032,3.0636,0.0,0.0,0.0,0.0,0.0,0.0,0.0,0.0,0.0,0.0,0.0,0.0,0.0,0.0,0.0,0.0,0.0,0.0,0.0,0.0,0.0,0.0,0.0,0.0,0.0,0.0,0.0,0.0,0.0,0.0,0.0,0.0,0.0,0.0,0.0,0.0,0.0,0.0,0.0,0.0,0.0,0.0,0.0,0.0,0.0,0.0,0.0,0.0,4.0113,0.0,0.0,0.0,0.0,0.0,0.0,0.0,0.0,0.0,0.0,0.0,0.0,0.0,0.0,0.0,0.0,0.0,0.0,0.0,0.0,0.0,0.0,0.0,0.0,0.0,0.0,0.0,0.0,0.0,0.0,0.0,0.0,0.0,0.0,0.0,0.0,0.0,0.0,0.0,0.0,0.0,0.0,0.0,0.0,0.0,0.0,0.0,0.0,0.0,0.0,0.0,0.0,0.0,0.0,0.0,0.0,0.0,0.0,0.0,2.8095,3.0719,3.2109,3.3396,3.4544,3.3244,3.1889,0.0,0.0,0.0,0.0,0.0,0.0,0.0,0.0,0.0,0.0,0.0,0.0,0.0,0.0,0.0,0.0,0.0,0.0,0.0,0.0,0.0,0.0,0.0,0.0,0.0,0.0,0.0,0.0,0.0,0.0,0.0,0.0,0.0,0.0,0.0,0.0,0.0,0.0,0.0,0.0,0.0,0.0,0.0,0.0,0.0,0.0,0.0,0.0,0.0,0.0,0.0,0.0,0.0,0.0,0.0,0.0,0.0,0.0,0.0,0.0,0.0,0.0,0.0,0.0,0.0,0.0,0.0,0.0,0.0,0.0,0.0,0.0,0.0,0.0,0.0,0.0,0.0,0.0,0.0,0.0,0.0,0.0,0.0,0.0,0.0,0.0,0.0,0.0,0.0,0.0,0.0,0.0,0.0,0.0,0.0,0.0,0.0,0.0,0.0,0.0,0.0,0.0,0.0,0.0,0.0,0.0,0.0,2.6471,2.8443,3.1686,3.2477,3.3606,3.517,3.4439,3.3198,3.1653,0.0,0.0,0.0,0.0,0.0,0.0,0.0,0.0,0.0,0.0,0.0,0.0,0.0,0.0,0.0,0.0,0.0,0.0,0.0,0.0,0.0,0.0,0.0,0.0,0.0,0.0,0.0,0.0,0.0,0.0,0.0,0.0,0.0,0.0,0.0,0.0,0.0,0.0,3.6851,3.8137,0.0,0.0,0.0,0.0,0.0,0.0,0.0,0.0,4.0113,0.0,0.0,0.0,0.0,0.0,0.0,0.0,0.0,0.0,0.0,0.0,0.0,0.0,0.0,0.0,0.0,0.0,0.0,0.0,0.0,0.0,0.0,0.0,0.0,0.0,0.0,0.0,0.0,0.0,0.0,0.0,0.0,0.0,0.0,0.0,0.0,0.0,0.0,0.0,0.0,0.0,0.0,0.0,0.0,0.0,0.0,0.0,0.0,0.0,0.0,0.0,0.0,0.0,0.0,0.0,0.0,2.5761,2.6458,2.8513,3.1942,3.265,3.3767,3.5336,3.4137,3.3208,3.277,0.0,0.0,0.0,0.0,0.0,0.0,0.0,0.0,0.0,0.0,0.0,0.0,0.0,0.0,0.0,0.0,0.0,0.0,0.0,0.0,0.0,0.0,0.0,0.0,0.0,0.0,0.0,0.0,0.0,0.0,0.0,0.0,0.0,0.0,0.0,0.0,0.0,0.0,0.0,3.8464,3.9271,0.0,0.0,0.0,0.0,0.0,0.0,0.0,0.0,4.0113,0.0,0.0,0.0,0.0,0.0,0.0,0.0,0.0,0.0,0.0,0.0,0.0,0.0,0.0,0.0,0.0,0.0,0.0,0.0,0.0,0.0,0.0,0.0,0.0,0.0,0.0,0.0,0.0,0.0,0.0,0.0,0.0,0.0,0.0,0.0,0.0,0.0,0.0,0.0,0.0,0.0,0.0,0.0,0.0,0.0,0.0,0.0,0.0,0.0,0.0,0.0,0.0,0.0,0.0,0.0,2.6354,2.7163,2.9219,3.2582,3.3012,3.387,3.5319,3.429,3.3456,0.0,0.0,0.0,0.0,0.0,0.0,0.0,0.0,0.0,0.0,0.0,0.0,0.0,0.0,0.0,0.0,0.0,0.0,0.0,0.0,0.0,0.0,0.0,0.0,0.0,0.0,0.0,0.0,0.0,0.0,0.0,0.0,0.0,0.0,0.0,0.0,0.0,0.0,0.0,0.0,3.878,3.9271,3.9994,0.0,0.0,0.0,0.0,0.0,0.0,4.0113,4.0113,0.0,0.0,0.0,0.0,0.0,0.0,0.0,0.0,0.0,0.0,0.0,0.0,0.0,0.0,0.0,0.0,0.0,0.0,0.0,0.0,0.0,0.0,0.0,0.0,0.0,0.0,0.0,0.0,0.0,0.0,0.0,0.0,0.0,0.0,0.0,0.0,0.0,0.0,0.0,0.0,0.0,0.0,0.0,0.0,0.0,0.0,0.0,0.0,0.0,0.0,0.0,0.0,0.0,0.0,0.0,2.7143,2.7876,2.9799,3.2941,3.3198,3.3834,3.5032,3.4444,3.3717,0.0,0.0,0.0,0.0,0.0,0.0,0.0,0.0,0.0,0.0,0.0,0.0,0.0,0.0,0.0,0.0,0.0,0.0,0.0,0.0,0.0,0.0,0.0,0.0,0.0,0.0,0.0,0.0,0.0,0.0,0.0,0.0,0.0,0.0,0.0,0.0,0.0,0.0,0.0,0.0,0.0,3.9597,4.0032,4.0218,0.0,0.0,0.0,0.0,4.0117,4.0455,0.0,0.0,0.0,0.0,0.0,0.0,0.0,0.0,0.0,0.0,0.0,0.0,0.0,0.0,0.0,0.0,0.0,0.0,0.0,0.0,0.0,0.0,0.0,0.0,0.0,0.0,0.0,0.0,0.0,0.0,0.0,0.0,0.0,0.0,0.0,0.0,0.0,0.0,0.0,0.0,0.0,0.0,0.0,0.0,0.0,0.0,0.0,0.0,0.0,0.0,0.0,0.0,0.0,0.0,0.0,0.0,2.7775,2.8098,2.9563,3.2258,3.2898,3.3537,3.4385,3.4146,3.3663,0.0,0.0,0.0,0.0,0.0,0.0,0.0,0.0,0.0,0.0,0.0,0.0,0.0,0.0,0.0,0.0,0.0,0.0,0.0,0.0,0.0,0.0,0.0,0.0,0.0,0.0,0.0,0.0,0.0,0.0,0.0,0.0,0.0,0.0,0.0,0.0,0.0,0.0,0.0,0.0,0.0,4.0747,4.0197,4.0658,4.0832,0.0,0.0,4.0849,4.0214,4.1728,0.0,0.0,0.0,0.0,0.0,0.0,0.0,0.0,0.0,0.0,0.0,0.0,0.0,0.0,0.0,0.0,0.0,0.0,0.0,0.0,0.0,0.0,0.0,0.0,0.0,0.0,0.0,0.0,0.0,0.0,0.0,0.0,0.0,0.0,0.0,0.0,0.0,0.0,0.0,0.0,0.0,0.0,0.0,0.0,0.0,0.0,0.0,0.0,0.0,0.0,0.0,0.0,0.0,0.0,0.0,2.595,2.8147,2.9025,3.0576,3.2833,3.3454,3.4039,3.4679,3.4236,3.3819,0.0,0.0,0.0,0.0,0.0,0.0,0.0,0.0,0.0,0.0,0.0,0.0,0.0,0.0,0.0,0.0,0.0,0.0,0.0,0.0,0.0,0.0,0.0,0.0,0.0,0.0,0.0,0.0,0.0,0.0,0.0,0.0,0.0,0.0,0.0,0.0,0.0,0.0,0.0,0.0,0.0,0.0,4.0202,4.073,0.0,0.0,0.0,4.1863,4.1965,0.0,0.0,0.0,0.0,0.0,0.0,0.0,0.0,0.0,0.0,0.0,0.0,0.0,0.0,0.0,0.0,0.0,0.0,0.0,0.0,0.0,0.0,0.0,0.0,0.0,0.0,0.0,0.0,0.0,0.0,0.0,0.0,0.0,0.0,0.0,0.0,0.0,0.0,0.0,0.0,0.0,0.0,0.0,0.0,0.0,0.0,0.0,0.0,0.0,0.0,0.0,0.0,0.0,0.0,0.0,0.0,0.0,2.86,2.9986,3.1557,3.3364,3.4079,3.462,3.4998,3.4488,0.0,0.0,0.0,0.0,0.0,0.0,0.0,0.0,0.0,0.0,0.0,0.0,0.0,0.0,0.0,0.0,0.0,0.0,0.0,0.0,0.0,0.0,0.0,0.0,0.0,0.0,0.0,3.5628,0.0,0.0,0.0,0.0,0.0,0.0,0.0,0.0,0.0,0.0,0.0,0.0,0.0,0.0,4.1424,4.0506,4.1183,4.1749,0.0,0.0,4.276,4.3321,4.3406,4.3112,0.0,0.0,0.0,0.0,0.0,0.0,0.0,0.0,0.0,0.0,0.0,0.0,0.0,0.0,0.0,0.0,0.0,0.0,0.0,0.0,0.0,0.0,0.0,0.0,0.0,0.0,0.0,0.0,0.0,0.0,0.0,0.0,0.0,0.0,0.0,0.0,0.0,0.0,0.0,0.0,0.0,0.0,0.0,0.0,0.0,0.0,0.0,0.0,0.0,0.0,0.0,0.0,0.0,0.0,0.0,2.928,3.0712,3.2087,3.3479,3.4499,3.5053,3.5092,3.4915,3.4516,0.0,0.0,0.0,0.0,0.0,0.0,0.0,0.0,0.0,0.0,0.0,0.0,0.0,0.0,0.0,0.0,0.0,0.0,0.0,0.0,0.0,0.0,0.0,0.0,0.0,0.0,0.0,0.0,0.0,0.0,0.0,0.0,0.0,0.0,0.0,0.0,0.0,0.0,0.0,0.0,0.0,4.2746,4.1339,4.2341,4.3271,0.0,0.0,4.3355,4.3406,4.5145,4.5314,4.1847,0.0,0.0,0.0,0.0,0.0,0.0,0.0,0.0,0.0,0.0,0.0,0.0,0.0,0.0,0.0,0.0,0.0,0.0,0.0,0.0,0.0,0.0,0.0,0.0,0.0,0.0,0.0,0.0,0.0,0.0,0.0,0.0,0.0,0.0,0.0,0.0,0.0,0.0,0.0,0.0,0.0,0.0,0.0,0.0,0.0,0.0,0.0,0.0,0.0,0.0,0.0,0.0,0.0,2.7415,2.9979,3.0879,3.2142,3.3802,3.4603,3.4964,3.4976,3.5008,3.4885,0.0,0.0,0.0,0.0,0.0,0.0,0.0,0.0,0.0,0.0,0.0,0.0,0.0,0.0,0.0,0.0,0.0,0.0,0.0,0.0,0.0,0.0,0.0,0.0,0.0,0.0,0.0,0.0,3.5898,3.5797,3.6282,0.0,0.0,0.0,0.0,0.0,0.0,0.0,0.0,0.0,0.0,4.3758,4.2709,4.3862,0.0,0.0,4.4434,4.4299,4.4756,4.4756,4.4201,4.278,4.1897,0.0,0.0,0.0,0.0,0.0,0.0,0.0,0.0,0.0,0.0,0.0,0.0,0.0,0.0,0.0,0.0,0.0,0.0,0.0,0.0,0.0,0.0,0.0,0.0,0.0,0.0,0.0,0.0,0.0,0.0,0.0,0.0,0.0,0.0,0.0,0.0,0.0,0.0,0.0,0.0,0.0,0.0,0.0,0.0,0.0,0.0,0.0,0.0,0.0,0.0,0.0,0.0,2.8147,3.068,3.1649,3.2991,3.4712,3.5535,3.585,3.5639,3.5538,3.5392,0.0,0.0,0.0,0.0,0.0,0.0,0.0,0.0,0.0,0.0,0.0,0.0,0.0,0.0,0.0,0.0,0.0,0.0,0.0,0.0,0.0,0.0,0.0,0.0,0.0,0.0,0.0,0.0,3.6625,3.6615,3.7423,0.0,0.0,0.0,0.0,0.0,0.0,0.0,0.0,0.0,0.0,4.3961,4.3186,4.4401,4.5365,4.5382,4.4939,4.4855,4.5602,4.459,4.3592,4.3135,0.0,0.0,0.0,0.0,0.0,0.0,0.0,0.0,0.0,0.0,0.0,0.0,0.0,0.0,0.0,0.0,0.0,0.0,0.0,0.0,0.0,0.0,0.0,0.0,0.0,0.0,0.0,0.0,0.0,0.0,2.5619,0.0,0.0,0.0,0.0,0.0,0.0,0.0,0.0,0.0,0.0,0.0,0.0,0.0,0.0,0.0,0.0,0.0,0.0,0.0,0.0,0.0,0.0,2.8841,3.1362,3.3275,3.4867,3.611,3.7566,3.7886,3.7191,3.6654,3.6006,3.5336,0.0,0.0,0.0,0.0,0.0,0.0,0.0,0.0,0.0,0.0,0.0,0.0,0.0,0.0,0.0,0.0,0.0,0.0,0.0,0.0,0.0,0.0,0.0,0.0,0.0,0.0,3.7855,3.7855,3.8139,0.0,0.0,0.0,0.0,0.0,0.0,0.0,0.0,0.0,0.0,4.2459,4.3169,4.2486,4.3653,4.4699,4.4666,4.4615,4.4838,4.5534,4.5024,4.4059,0.0,0.0,0.0,0.0,0.0,0.0,0.0,0.0,0.0,0.0,0.0,0.0,0.0,0.0,0.0,0.0,0.0,0.0,0.0,0.0,0.0,0.0,0.0,0.0,0.0,0.0,0.0,2.7872,2.7756,0.0,0.0,0.0,0.0,0.0,0.0,0.0,0.0,0.0,0.0,0.0,3.0722,3.0923,0.0,0.0,0.0,0.0,0.0,0.0,0.0,0.0,0.0,0.0,0.0,0.0,3.0058,3.2578,3.3732,3.4892,3.617,3.6692,3.6623,3.599,3.5852,3.5687,3.552,0.0,0.0,0.0,0.0,0.0,0.0,0.0,0.0,0.0,0.0,0.0,0.0,0.0,0.0,0.0,0.0,0.0,0.0,0.0,0.0,0.0,0.0,0.0,0.0,0.0,3.8586,0.0,0.0,0.0,0.0,0.0,0.0,0.0,0.0,0.0,0.0,0.0,4.046,4.0703,4.2431,4.3579,4.332,4.461,4.5569,0.0,0.0,0.0,0.0,0.0,0.0,0.0,0.0,0.0,0.0,0.0,0.0,0.0,0.0,4.2841,4.2066,4.1724,4.1724,4.2198,0.0,0.0,0.0,0.0,0.0,0.0,0.0,0.0,0.0,0.0,0.0,0.0,0.0,0.0,2.9973,0.0,2.9608,0.0,0.0,0.0,0.0,0.0,0.0,0.0,0.0,3.1283,3.1981,3.2523,3.2517,3.2524,0.0,3.2123,3.1353,0.0,0.0,0.0,0.0,0.0,0.0,0.0,0.0,3.1347,3.3824,3.4616,3.5612,3.6895,3.7302,3.7187,3.6539,3.6143,3.5847,3.5616,3.5864,3.6033,0.0,0.0,0.0,0.0,0.0,0.0,0.0,0.0,0.0,0.0,0.0,0.0,0.0,0.0,0.0,0.0,0.0,0.0,0.0,0.0,0.0,0.0,0.0,3.9484,0.0,0.0,0.0,0.0,0.0,0.0,0.0,0.0,0.0,4.0375,4.0448,4.0698,4.1198,4.2283,4.3128,4.3384,0.0,0.0,0.0,0.0,0.0,0.0,0.0,4.3613,4.363,4.3803,4.4027,4.4282,4.4992,4.5529,4.5532,0.0,0.0,4.3721,4.3264,4.3247,4.3772,4.3873,4.4262,4.5514,4.5954,4.6411,0.0,0.0,0.0,0.0,0.0,0.0,0.0,0.0,3.1073,3.1168,0.0,3.1102,0.0,0.0,0.0,0.0,0.0,3.243,0.0,0.0,3.3283,3.3436,3.3589,3.3544,3.3544,3.3559,3.3484,3.314,3.2437,3.1082,0.0,0.0,0.0,0.0,0.0,0.0,3.2704,3.5114,3.6017,3.7084,3.8365,3.9319,3.948,3.8693,3.7491,3.6468,3.5752,3.6445,3.6818,3.6834,3.7499,0.0,0.0,0.0,0.0,0.0,0.0,0.0,0.0,0.0,0.0,0.0,0.0,0.0,0.0,0.0,0.0,0.0,0.0,0.0,0.0,4.051,0.0,0.0,0.0,0.0,0.0,0.0,0.0,0.0,0.0,0.0,4.0603,4.0573,4.1091,4.2565,0.0,0.0,0.0,0.0,4.427,4.5039,4.5672,4.6643,4.8011,4.7005,4.6051,4.6068,0.0,0.0,4.6068,4.6882,4.7412,4.7395,4.7288,4.6874,4.6085,4.5309,4.5193,4.6498,4.6752,4.709,4.7802,4.836,4.89,3.2757,0.0,0.0,0.0,0.0,3.1992,3.2874,3.3637,3.3796,3.3813,3.3667,3.2892,0.0,0.0,0.0,0.0,0.0,0.0,3.3303,3.3937,3.3937,3.4537,3.5594,3.4652,3.4458,3.4891,3.3948,3.3395,3.32,3.2796,3.1795,3.0282,0.0,0.0,0.0,0.0,3.452,3.6697,3.7478,3.8101,3.8669,3.8975,3.8827,3.8154,3.778,3.7483,3.7263,3.7466,3.7584,3.7584,3.7804,0.0,0.0,0.0,0.0,0.0,0.0,0.0,0.0,0.0,0.0,0.0,0.0,0.0,0.0,0.0,0.0,0.0,0.0,0.0,4.0636,4.0631,4.0667,0.0,0.0,0.0,0.0,0.0,0.0,0.0,0.0,0.0,4.1579,4.1567,4.2135,0.0,0.0,4.3408,4.5236,4.5683,4.6055,4.6697,0.0,0.0,0.0,4.639,4.6102,4.6102,4.6834,4.7674,4.8392,4.9141,4.9654,4.9669,5.0086,5.0347,5.0011,4.8339,4.7409,4.8139,4.8376,4.8612,4.9306,4.9661,4.9965,3.53,3.2797,3.274,3.2895,3.3253,3.415,3.5018,3.5764,3.5889,3.5924,3.5793,3.4907,3.4224,3.3719,3.3079,0.0,0.0,0.0,3.4706,3.5492,3.5477,3.5959,3.6761,3.6044,3.5745,3.5865,3.5312,3.4773,3.4273,3.453,3.3913,3.2486,0.0,0.0,3.395,3.4697,3.5983,3.7781,3.8314,3.8774,3.9232,3.9282,3.9003,3.8362,3.8328,3.8198,3.791,3.8176,3.8328,3.8345,3.8599,3.8768,0.0,0.0,0.0,0.0,0.0,0.0,0.0,0.0,0.0,0.0,0.0,4.0375,4.0375,0.0,0.0,0.0,4.0631,4.0692,4.0769,4.0781,0.0,0.0,0.0,0.0,0.0,0.0,0.0,4.0641,4.1435,4.2228,4.2832,4.3453,4.3953,4.4276,4.416,4.4682,4.6358,0.0,4.7448,4.8637,4.8539,4.8421,4.8671,4.8458,4.8384,4.8707,4.922,5.0063,5.1098,5.1432,5.1575,5.1902,5.2277,5.2562,5.2639,5.1296,5.0118,5.0127,5.0339,5.078,5.1492,5.1662,5.1834,3.7729,3.7148,3.5732,3.5445,3.5931,3.6223,3.6778,3.7449,3.759,3.7614,3.7524,3.6926,3.6186,3.5352,3.461,0.0,3.5396,3.6019,3.6652,3.7387,3.7387,3.7434,3.7479,3.7434,3.7169,3.6758,3.7247,3.6846,3.572,3.6252,3.6253,3.5612,3.5014,3.5254,3.6265,3.646,3.7209,3.849,3.8774,3.9219,3.991,4.0037,3.9779,3.9119,3.9085,3.8768,3.8125,3.8717,3.9085,3.9102,3.974,4.0125,4.0125,0.0,0.0,0.0,0.0,0.0,0.0,0.0,0.0,0.0,0.0,0.0,0.0,0.0,0.0,0.0,4.0829,0.0,4.0894,4.0894,0.0,0.0,0.0,4.0929,4.0981,4.0986,4.1274,4.2004,0.0,0.0,4.4138,4.5579,4.604,4.4807,4.5294,4.6096,4.6978,4.78,4.8806,5.067,5.0365,5.0585,5.1822,5.1671,5.147,5.2052,5.2095,5.2019,5.3181,5.3145,5.3108,5.3573,5.3779,5.3797,5.4022,5.3786,5.3483,5.2366,5.2615,5.3239,5.3769,5.3905,5.3995,4.0715,4.0313,3.9951,3.8986,3.7779,3.8878,3.9478,3.9639,3.9675,3.9391,3.8883,3.8242,3.7552,3.6858,3.6675,3.669,3.6873,3.7037,3.7219,3.7387,3.7387,3.7674,3.8123,3.7627,3.7892,3.8721,3.8428,3.8073,3.7788,3.7923,3.7869,3.7613,3.755,3.7418,3.7229,3.7682,3.8469,3.9542,3.9606,3.9779,4.0049,4.007,4.0011,3.9829,3.9842,3.9757,3.9592,3.9745,3.9829,3.9842,4.0099,4.0251,4.0267,4.0362,0.0,0.0,0.0,0.0,0.0,0.0,0.0,0.0,0.0,4.0643,4.0648,0.0,4.0829,0.0,4.09,4.0894,4.0894,4.0894,0.0,0.0,4.0894,4.1124,4.1659,4.1728,4.2038,4.2827,4.3414,4.388,4.4259,4.5113,4.6178,4.7377,4.8327,4.9512,5.1186,5.1661,5.1887,5.2179,5.2536,5.2637,5.2017,5.1731,5.1697,5.1851,5.1738,5.1762,5.2113,5.2498,5.2806,5.3003,5.3463,5.3993,5.4717,5.48,5.4936,5.5087,5.4819,5.4468,5.4641,5.4691,5.4605,4.2449,4.2252,4.2252,4.1573,4.053,4.077,4.0831,4.0864,4.0849,4.0621,4.0262,3.9556,3.8751,3.7868,3.7838,3.7838,3.7853,3.7853,3.8003,3.8285,3.8285,3.8497,3.8844,3.8801,3.9028,3.9512,3.9718,3.9675,3.9436,3.9656,3.9784,3.9823,3.9893,3.9789,3.954,3.9237,3.9491,4.0385,4.0112,4.0024,4.0113,4.0113,4.0113,4.0113,4.0113,4.0138,4.0205,4.0188,4.0226,4.0288,4.035,4.0404,4.0387,4.0461,4.0534,0.0,0.0,0.0,0.0,0.0,0.0,0.0,0.0,0.0,0.0,0.0,4.0894,4.0894,4.0894,4.0894,4.0894,4.0894,4.1032,4.1348,4.1101,4.1326,4.2413,4.2211,4.2418,4.3552,4.4035,4.4521,4.5079,4.6078,4.7382,4.9152,5.0418,5.1561,5.2654,5.3222,5.3358,5.312,5.346,5.3464,5.243,5.2315,5.2453,5.2724,5.2543,5.2543,5.3224,5.3399,5.3658,5.4375,5.458,5.4897,5.577,5.5669,5.5736,5.633,5.6254,5.5947,5.598,5.5742,5.5452,4.3334,4.3429,4.3319,4.3305,4.3235,4.2102,4.1624,4.1658,4.1643,4.1598,4.1493,4.0816,3.9873,3.8799,3.8781,3.8784,3.8799,3.8799,3.9095,3.9631,3.966,3.9655,3.9673,4.0305,4.035,3.9969,4.1086,4.1349,4.0818,4.1327,4.1621,4.1724,4.1752,4.1924,4.2159,4.0873,4.0415,4.0879,4.0472,4.0248,4.0235,4.0248,4.0231,4.0235,4.0176,4.0188,4.0292,4.0313,4.0392,4.048,4.0522,4.0522,4.0517,4.0546,4.0607,0.0,4.0721,0.0,0.0,0.0,0.0,0.0,0.0,0.0,0.0,4.0894,4.0894,4.0894,4.0894,4.0894,4.0894,4.0998,4.1279,4.19,4.1533,4.1781,4.319,4.2805,4.2968,4.445,4.4636,4.5085,4.6117,4.745,4.8713,5.0215,5.1281,5.2235,5.2982,5.3619,5.3918,5.3658,5.3667,5.3617,5.3207,5.3143,5.3363,5.3945,5.3572,5.371,5.4833,5.4558,5.466,5.5908,5.5691,5.5743,5.686,5.646,5.6309,5.7053,5.7166,5.7162,5.7159,5.6773,5.658,4.3609,4.4042,4.3514,4.3305,4.326,4.3055,4.2951,4.2951,4.2951,4.2656,4.2186,4.1508,4.1055,4.0834,4.0834,4.0834,4.0834,4.0834,4.0894,4.101,4.1029,4.1014,4.1031,4.1175,4.1496,4.1997,4.2265,4.2387,4.2363,4.248,4.2308,4.1874,4.1983,4.2337,4.2927,0.0,0.0,0.0,4.0747,4.0984,4.0984,4.1001,4.1001,4.0967,4.0523,0.0,4.0305,4.0412,4.0485,4.051,4.0612,0.0,0.0,0.0,0.0,0.0,0.0,0.0,0.0,0.0,0.0,0.0,4.0894,4.0894,4.0894,4.0894,4.0894,4.0894,4.0894,4.0894,4.0912,4.1435,4.1861,4.1987,4.2447,4.3259,4.4467,4.4504,4.4946,4.623,4.64,4.6459,4.6718,4.7026,4.8186,5.0502,5.0726,5.15,5.374,5.4254,5.4454,5.4274,5.4181,5.395,5.3314,5.3196,5.3251,5.3379,5.3343,5.3343,5.3618,5.3618,5.3728,5.4766,5.473,5.5111,5.6564,5.6729,5.6761,5.7674,5.7809,5.7703,5.7264,5.7059,5.6858,4.4296,0.0,4.3938,4.3609,0.0,4.3305,4.3305,4.3305,4.3305,4.3115,4.2821,4.2491,4.2162,4.1882,4.1901,4.1703,4.1403,4.1403,4.1599,4.1911,4.1574,4.1607,4.1994,4.1988,4.2203,4.2601,4.2927,4.3174,4.3333,4.3331,4.3261,4.3099,4.3171,4.3426,4.3847,4.3189,4.2286,4.12,4.1204,4.1191,4.1187,4.0849,4.0684,4.0748,0.0,0.0,0.0,0.0,0.0,0.0,0.0,0.0,0.0,0.0,0.0,4.1186,4.1006,4.0989,4.118,4.1341,4.1452,4.1452,4.1809,4.1705,4.0981,4.0894,4.1067,4.14,4.1452,4.1619,4.2011,4.2574,4.3078,4.3438,4.3722,4.4431,4.5617,4.5575,4.5756,4.6691,4.6897,4.6976,4.7215,4.7643,4.8471,5.0088,5.0427,5.1049,5.2849,5.4008,5.4501,5.4403,5.4032,5.3654,5.3306,5.3196,5.3214,5.3196,5.3196,5.3196,5.3196,5.3196,5.3471,5.4179,5.4095,5.4425,5.6242,5.6187,5.6106,5.7501,5.7666,5.7535,5.7473,5.7553,5.7456,4.505,4.4625,4.4401,4.3982,4.3489,4.3334,4.3305,4.3305,0.0,0.0,0.0,4.3305,4.3025,4.2556,4.2556,4.2256,4.1762,4.1747,4.2138,4.2823,4.2248,4.2371,4.3122,4.3138,4.315,4.3194,4.3619,4.3931,4.4125,4.4021,4.4097,4.4324,4.4352,4.444,4.455,4.393,4.3304,4.2706,4.1965,4.1525,4.139,4.0794,4.0485,4.0492,4.0381,4.0453,4.0685,4.0721,4.0781,4.09,4.0894,4.0894,4.0912,4.1021,4.1232,4.1543,4.1406,4.1457,4.1781,4.2059,4.2223,4.2194,4.2896,4.2735,4.1407,4.1309,4.1567,4.2142,4.2211,4.2519,4.3269,4.3802,4.4361,4.5059,4.5049,4.5572,4.6753,4.6471,4.6372,4.699,4.7182,4.728,4.77,4.826,4.8949,4.9548,5.013,5.0967,5.1969,5.3442,5.4338,5.4113,5.3794,5.3434,5.3251,5.3398,5.3343,5.3232,5.3324,5.3379,5.3251,5.3196,5.3526,5.4252,5.382,5.448,5.6168,5.5904,5.5611,5.7604,5.7483,5.7207,5.7795,5.7978,5.7955,4.5574,4.5927,4.4796,4.4237,4.4117,4.3529,4.3305,4.3305,4.3305,4.3305,4.3305,4.3305,4.323,4.3175,4.3175,4.311,4.3021,4.3021,4.346,0.0,4.4107,4.4494,4.525,4.5255,4.5277,4.5327,4.493,4.4812,4.494,4.4502,4.4355,4.4544,4.4556,4.4573,4.4581,4.4499,4.4381,4.4262,4.3504,4.278,4.2164,4.2046,4.1756,4.124,4.0736,4.0534,4.068,4.0817,4.0888,4.0894,4.0894,4.0894,4.0929,4.1498,4.1885,4.1962,4.2519,4.2916,4.2943,4.3019,4.3017,4.3059,4.3514,4.3534,4.2946,4.2879,4.2913,4.3034,4.3046,4.3249,4.3775,4.4466,4.5099,4.5596,4.6208,4.6816,4.7442,4.738,4.748,4.7967,4.8103,4.8083,4.8151,4.8327,4.8749,4.9379,4.9729,5.0308,5.1693,5.3382,5.3995,5.3636,5.3875,5.3885,5.3416,5.3801,5.3812,5.3306,5.371,5.3849,5.3287,5.3196,5.3453,5.4216,5.4161,5.4811,5.637,5.6682,5.6657,5.7556,5.7611,5.7685,5.785,5.7923,5.7978,4.6367,4.6226,4.5627,4.5164,4.4796,4.4132,4.3638,4.3305,4.3305,4.3305,4.3305,4.3305,4.3305,4.3349,4.3752,4.3966,4.3966,4.4412,4.502,4.5688,4.5324,4.5571,4.6274,4.6043,4.5922,4.5938,4.5774,4.5743,4.5874,4.5627,4.5594,4.5754,4.5399,4.5007,4.4618,4.4584,4.4584,4.4584,4.3809,4.3278,4.3067,4.2639,4.2154,4.1625,4.1341,4.1079,4.0822,4.0876,4.0894,4.0894,4.0894,4.0894,4.0929,4.1829,4.237,4.2398,4.3136,4.3566,4.3548,4.3702,4.3966,4.4354,4.4601,4.4742,4.4821,4.4054,4.3619,4.3792,4.4022,4.4436,4.5086,4.5903,4.6505,4.6723,4.7297,4.7744,4.7935,4.7985,4.8055,4.8286,4.8315,4.8315,4.8315,4.871,4.8875,4.8995,4.9233,4.9913,5.0629,5.1712,5.2682,5.3104,5.3508,5.3563,5.3269,5.3471,5.3544,5.3232,5.3508,5.3592,5.3232,5.3214,5.3379,5.3636,5.3765,5.4205,5.5335,5.5115,5.5445,5.6411,5.6686,5.6796,5.7189,5.7666,5.7978,4.701,4.6525,4.636,4.5933,4.5244,4.4586,4.4087,4.3758,4.3589,4.3534,4.3499,4.3364,4.3389,4.363,4.4239,4.4605,4.4849,4.5405,4.6076,4.6694,4.6228,4.6387,4.7106,4.6765,4.6593,4.6622,4.661,4.6646,4.6735,4.6628,4.6634,4.6735,4.6227,4.5667,4.5108,4.5091,4.5007,4.4821,4.4259,4.3888,4.3671,4.3072,4.2569,4.2126,4.2082,4.1857,4.1435,4.1257,4.1141,4.1159,4.1153,4.1141,4.12,4.2346,4.3109,4.3272,4.398,4.4437,4.4489,4.4637,4.5025,4.567,4.5739,4.5912,4.6215,4.5387,4.4753,4.493,4.5231,4.5729,4.6395,4.7113,4.7643,4.7764,4.8065,4.8248,4.8287,4.8315,4.8315,4.8315,4.8315,4.8315,4.8416,4.8875,4.8976,4.8563,4.905,4.9564,4.9674,5.0298,5.1389,5.2435,5.2931,5.2902,5.2957,5.3324,5.3489,5.3453,5.3691,5.3783,5.3654,5.3508,5.3361,5.3361,5.3232,5.3636,5.4179,5.4021,5.4308,5.5456,5.5805,5.5952,5.673,5.7483,5.7941,4.7264,4.713,4.657,4.5912,4.5274,4.4631,4.4631,4.496,4.4461,4.4207,4.4147,4.3579,4.3758,4.432,4.4488,4.4924,4.557,4.566,4.6129,4.6793,4.6729,4.7189,4.7997,4.8011,4.8108,4.815,4.7719,4.7494,4.749,4.7068,4.6805,4.6786,4.6718,4.6633,4.658,4.6563,4.6259,4.5618,4.5645,4.5034,4.3786,4.3633,4.3358,4.2906,4.2902,4.2918,4.2879,4.2309,4.1912,4.19,4.1925,4.1925,4.2058,4.3333,4.4337,4.4752,4.5526,4.6164,4.6505,4.6258,4.6215,4.6695,4.6713,4.6736,4.6833,4.7053,4.7065,4.6748,4.6674,4.6896,4.7374,4.7569,4.7805,4.8132,4.8258,4.8315,4.8315,4.8315,4.8315,4.8315,4.8315,4.8315,4.8333,4.8453,4.8443,4.8351,4.894,4.949,4.9637,5.0188,5.0912,5.1775,5.2087,5.2171,5.2372,5.3408,5.4032,5.4271,5.4887,5.4832,5.4399,5.4161,5.4087,5.3324,5.3196,5.3489,5.4014,5.4326,5.4473,5.4997,5.5438,5.5842,5.6657,5.7446,5.7923,4.7309,4.7279,4.6988,4.6495,4.5903,4.5583,4.5424,4.5259,4.5005,4.4885,4.4952,4.5132,4.4989,4.4545,4.4999,4.5642,4.6359,4.686,4.7236,4.7622,4.7638,4.7902,4.8356,4.8516,4.8595,4.8674,4.8495,4.8422,4.8387,4.821,4.7885,4.7481,4.7462,4.7242,4.6851,4.6857,4.6779,4.6494,4.6649,4.647,4.5908,4.5032,4.4321,4.3834,4.3756,4.3575,4.3244,4.3121,4.3126,4.3138,4.3383,4.3554,4.3543,4.4839,4.5545,4.5472,4.6164,4.6689,4.6886,4.6713,4.6689,4.6897,4.6897,4.701,4.7291,4.7496,4.7611,4.7702,4.7474,4.741,4.7601,4.7846,4.8103,4.8267,4.8315,4.8315,4.8315,4.8315,4.8315,4.8315,4.8315,4.8315,4.8315,4.8315,4.8315,4.8315,4.8691,4.9077,4.9509,4.9894,5.017,5.0537,5.0959,5.1738,5.2472,5.3599,5.4271,5.4528,5.5071,5.5291,5.4638,5.4418,5.4142,5.3361,5.3232,5.3298,5.3563,5.3702,5.3849,5.4363,5.5236,5.5842,5.6638,5.7446,5.7886,4.7309,4.7309,4.7309,4.7025,4.657,4.6375,4.6142,4.5885,4.5919,4.5952,4.6019,4.6823,4.6683,4.5869,4.6167,4.6638,4.7236,4.7787,4.8131,4.8276,4.8476,4.8588,4.8613,4.8958,4.9019,4.8931,4.9142,4.9289,4.9272,4.9069,4.8731,4.8259,4.8208,4.7921,4.746,4.7541,4.7512,4.7355,4.7526,4.7615,4.736,4.6436,4.5675,4.5251,4.4816,4.4483,4.4349,4.4246,4.4272,4.4405,4.4707,4.49,4.4957,4.5992,4.6481,4.6316,4.6891,4.7288,4.7288,4.7178,4.7149,4.7248,4.72,4.7291,4.7674,4.7795,4.7945,4.8181,4.7995,4.7795,4.7836,4.8113,4.8305,4.8315,4.8315,4.8315,4.8315,4.8315,4.8315,4.8315,4.8315,4.8315,4.8351,4.8498,4.8673,4.837,4.8737,4.9003,4.9527,4.9802,4.9986,4.9968,5.0657,5.1438,5.2435,5.3078,5.372,5.4539,5.5063,5.5372,5.4689,5.4597,5.4298,5.3668,5.3406,5.3256,5.3388,5.3322,5.3261,5.3482,5.4355,5.5578,5.6198,5.7097,5.7666,4.7309,4.7309,4.7309,4.7279,4.7204,4.6627,4.6687,4.7182,4.7399,4.7511,4.7612,4.8377,4.8737,4.8645,4.8118,4.7956,4.8149,4.8263,4.8458,4.8668,4.9237,4.9267,4.8854,4.9493,4.9572,4.9242,4.9764,5.0066,4.9999,4.939,4.8984,4.8968,4.8951,4.8934,4.8812,4.8899,4.8738,4.8184,4.8396,4.8249,4.768,4.7585,4.7534,4.7427,4.6121,4.5823,4.6667,4.5665,4.517,4.5608,4.5686,4.569,4.575,4.6469,4.7085,4.7458,4.7921,4.8209,4.8132,4.7795,4.7733,4.8073,4.7803,4.7764,4.8142,4.8191,4.8238,4.8315,4.8239,4.8229,4.8229,4.8248,4.8315,4.8315,4.8315,4.8315,4.8315,4.8315,4.8315,4.837,4.8498,4.8608,4.8462,4.9031,4.9123,4.8985,4.9701,5.0417,5.0023,5.0353,5.0674,5.0887,5.1323,5.1787,5.1255,5.2579,5.3414,5.417,5.5227,5.5671,5.5256,5.4888,5.4423,5.3928,5.3539,5.3316,5.3295,5.3282,5.3259,5.3532,5.4159,5.5078,5.5904,5.6429,5.7134,4.7309,4.7309,4.7309,4.7309,4.7344,4.7634,4.7916,4.8168,4.8766,4.9007,4.9201,5.0023,5.0237,4.9867,5.0224,5.0107,4.9643,4.9742,4.9906,5.0119,5.0371,5.0419,5.0378,5.0631,5.0647,5.0508,5.0693,5.0811,5.0794,5.0508,5.0153,4.9763,4.971,4.9539,4.9223,4.9322,4.9287,4.9186,4.9374,4.9355,4.9042,4.864,4.8858,4.9686,4.7462,4.6366,4.6838,4.6414,4.6291,4.6462,4.7012,4.7369,4.7377,4.765,4.7846,4.8053,4.8201,4.8315,4.8277,4.8152,4.8094,4.8258,4.8152,4.8085,4.8267,4.8315,4.8315,4.8315,4.8315,4.8315,4.8315,4.8315,4.8315,4.8315,4.8315,4.8351,4.8315,4.8315,4.8508,4.904,4.9536,4.9893,4.9848,5.0178,5.0233,5.005,5.0435,5.0839,5.1161,5.14,5.1585,5.1638,5.1872,5.2041,5.1887,5.3498,5.4788,5.512,5.5742,5.6508,5.6545,5.5734,5.5212,5.4271,5.3762,5.3429,5.3408,5.3398,5.3373,5.3641,5.4267,5.4998,5.5687,5.6603,5.736,4.7309,4.7352,4.7602,4.7715,4.7843,4.8641,4.8974,4.9096,4.9939,5.0329,5.0506,5.1422,5.1599,5.1312,5.1944,5.1933,5.1279,5.0978,5.0892,5.1089,5.1308,5.134,5.1252,5.1438,5.1404,5.1218,5.1218,5.1286,5.1505,5.1319,5.0947,5.0473,5.0299,5.0006,4.9653,4.9594,4.9605,4.974,4.9906,5.0048,5.0134,4.9743,4.9997,5.0743,4.9036,4.7954,4.8159,4.7755,4.7599,4.7789,4.814,4.8315,4.8315,4.8315,4.8315,4.8315,4.8315,4.8315,4.8315,4.8315,4.8296,4.8315,4.8315,4.8315,4.8315,4.8315,4.8315,4.8315,4.8315,4.837,4.8655,4.8728,4.8618,4.8434,4.8526,4.8728,4.8746,4.8985,4.9407,4.9913,5.038,5.071,5.0857,5.1041,5.1022,5.0875,5.1187,5.1775,5.1955,5.2296,5.2336,5.2254,5.2479,5.2326,5.2301,5.3485,5.4737,5.5217,5.5894,5.6858,5.7069,5.634,5.5611,5.4687,5.4067,5.3706,5.3519,5.3509,5.3657,5.387,5.4439,5.517,5.6044,5.7037,5.7648,4.7309,4.7424,4.8214,4.8511,4.8599,4.9427,4.9805,4.9998,5.0938,5.1366,5.1477,5.2414,5.2731,5.2836,5.2941,5.3111,5.2775,5.1765,5.1292,5.1456,5.203,5.1979,5.1472,5.203,5.2029,5.1455,5.1319,5.1674,5.2266,5.1742,5.137,5.1165,5.0801,5.0589,5.0433,5.0058,4.9762,4.9853,4.9999,5.0291,5.0739,5.0706,5.0982,5.1495,5.0724,5.0576,5.1263,4.9685,4.8903,4.923,4.8744,4.8333,4.8315,4.8315,4.8315,4.8315,4.8315,4.8315,4.8315,4.8315,4.8315,4.8315,4.8315,4.8315,4.8315,4.8315,4.8315,4.8315,4.8425,4.8673,4.9362,4.9564,4.9325,4.859,4.9169,4.9582,4.9729,5.0316,5.0802,5.0839,5.0986,5.0875,5.1041,5.1555,5.1756,5.152,5.2107,5.2745,5.2443,5.2794,5.2909,5.2722,5.2884,5.297,5.2982,5.3188,5.413,5.4995,5.5823,5.6603,5.649,5.5971,5.5557,5.4734,5.4065,5.3704,5.3619,5.3646,5.3977,5.4282,5.4862,5.5517,5.6502,5.7385,5.7773,4.7309,4.7402,4.8256,4.8579,4.88,5.0092,5.0707,5.0819,5.1786,5.2218,5.2325,5.2834,5.3127,5.3161,5.3298,5.3399,5.3366,5.2909,5.274,5.279,5.2993,5.2993,5.2841,5.2993,5.301,5.2824,5.279,5.2875,5.3027,5.2858,5.2603,5.2209,5.1986,5.177,5.146,5.0896,5.056,5.0654,5.0588,5.0643,5.0847,5.1171,5.1673,5.2248,5.1988,5.2125,5.2714,5.0789,4.9488,4.9185,4.9149,4.894,4.8453,4.8315,4.8315,4.8315,4.8315,4.8315,4.8315,4.8315,4.8315,4.8315,4.8315,4.8315,4.8315,4.8315,4.8315,4.8388,4.882,4.9362,4.9619,5.0133,5.027,5.005,5.027,5.0435,5.0592,5.1151,5.1555,5.1701,5.2105,5.2407,5.2443,5.2729,5.2632,5.2484,5.2943,5.3105,5.3142,5.3219,5.3452,5.333,5.3564,5.3613,5.3495,5.3663,5.4404,5.5225,5.5979,5.6462,5.6248,5.5793,5.5351,5.4804,5.4145,5.3791,5.3725,5.3827,5.4104,5.4762,5.5402,5.6187,5.7043,5.7632,5.8084,4.7794,4.7913,4.905,4.9519,4.9678,5.1067,5.1639,5.1767,5.2484,5.2816,5.2886,5.3161,5.3298,5.3331,5.3433,5.3484,5.3501,5.3501,5.3501,5.3501,5.3501,5.3501,5.3501,5.3501,5.3501,5.3501,5.3484,5.3501,5.3501,5.3534,5.3363,5.3055,5.2862,5.2663,5.2315,5.1483,5.1114,5.1281,5.1001,5.1004,5.1378,5.1713,5.2221,5.2744,5.2771,5.2926,5.3236,5.1934,5.0972,5.0458,5.0249,4.9507,4.8462,4.8315,4.8315,4.8315,4.8315,4.8315,4.8315,4.8315,4.8315,4.8315,4.8315,4.8315,4.8315,4.8315,4.8398,4.8848,4.9252,4.9849,5.0445,5.0894,5.1353,5.1683,5.1389,5.1408,5.1636,5.2113,5.2399,5.2535,5.2847,5.3162,5.323,5.3222,5.3264,5.332,5.3361,5.341,5.3519,5.3559,5.3637,5.3696,5.3716,5.3755,5.3812,5.4212,5.4769,5.5483,5.6216,5.6486,5.6494,5.5779,5.5223,5.4573,5.3914,5.3821,5.3765,5.3793,5.4025,5.4936,5.5957,5.6716,5.7489,5.8082,5.8498,4.862,4.8867,5.04,5.0989,5.1121,5.2092,5.25,5.2641,5.3006,5.3144,5.3212,5.3382,5.3484,5.3484,5.3501,5.3501,5.3501,5.3501,5.3501,5.3501,5.3501,5.3501,5.3501,5.3501,5.3501,5.3501,5.3501,5.3501,5.3534,5.3634,5.3734,5.363,5.336,5.3191,5.3011,5.1899,5.1726,5.2039,5.1534,5.1765,5.2539,5.2546,5.2776,5.3272,5.3195,5.3169,5.3158,5.3085,5.3062,5.2873,5.1479,5.0141,4.8773,4.8406,4.8608,4.8535,4.8406,4.8545,4.8489,4.8553,4.8572,4.8682,4.8718,4.8443,4.8682,4.8802,4.9022,4.9582,4.9858,5.0427,5.1528,5.1995,5.2362,5.2902,5.2435,5.238,5.3012,5.3104,5.3059,5.3107,5.3198,5.323,5.3308,5.3318,5.338,5.3451,5.3509,5.3578,5.3647,5.3696,5.3725,5.3764,5.3774,5.3784,5.3822,5.4323,5.4834,5.5196,5.5846,5.6023,5.6116,5.5466,5.4899,5.4267,5.3896,5.3831,5.3887,5.3933,5.4527,5.5605,5.6487,5.7212,5.7833,5.8415,5.8646,4.8953,4.9583,5.065,5.1194,5.142,5.2252,5.2693,5.285,5.3076,5.3196,5.3247,5.3416,5.3501,5.3501,5.3501,5.3501,5.3501,5.3501,5.3501,5.3501,5.3501,5.3501,5.3501,5.3501,5.3501,5.3501,5.3501,5.3551,5.3634,5.3684,5.3832,5.4061,5.3967,5.3976,5.3964,5.3567,5.346,5.363,5.3736,5.3765,5.3995,5.3929,5.3928,5.4,5.3544,5.3269,5.3287,5.3765,5.3445,5.238,5.1977,5.0941,4.9527,4.9738,4.9774,4.9334,4.927,4.9536,4.9866,4.9554,4.9517,5.0058,4.9966,5.0131,5.015,5.0141,5.027,5.061,5.0996,5.1491,5.2024,5.2527,5.2949,5.3104,5.2939,5.2902,5.3122,5.3196,5.3217,5.3264,5.3256,5.3328,5.3418,5.344,5.3499,5.3598,5.3656,5.3675,5.3735,5.3774,5.3774,5.3784,5.3803,5.3803,5.3961,5.4444,5.4787,5.4973,5.5215,5.5243,5.5131,5.4704,5.4286,5.384,5.384,5.3813,5.4054,5.424,5.5243,5.6106,5.684,5.7472,5.8093,5.8677,5.8677,5.091,5.1462,5.2316,5.2762,5.297,5.3224,5.3389,5.3444,5.3364,5.3331,5.3348,5.345,5.3501,5.3501,5.3501,5.3501,5.3501,5.3501,5.3501,5.3501,5.3501,5.3501,5.3501,5.3501,5.3501,5.3501,5.3551,5.3634,5.3734,5.3816,5.4029,5.4238,5.4537,5.4772,5.4822,5.4699,5.4691,5.4831,5.4896,5.4875,5.5091,5.5001,5.4928,5.484,5.4399,5.4106,5.3885,5.4161,5.3775,5.2803,5.2454,5.1775,5.0353,5.0508,5.0563,5.0115,5.0096,5.0325,5.06,5.0325,5.0325,5.0674,5.082,5.082,5.0765,5.082,5.0857,5.1316,5.1767,5.2115,5.2509,5.2939,5.3159,5.3196,5.3196,5.3196,5.3196,5.322,5.3254,5.3297,5.3359,5.343,5.3568,5.3578,5.3637,5.3724,5.3754,5.3764,5.3802,5.3803,5.3813,5.3813,5.3813,5.3813,5.3961,5.4407,5.4444,5.462,5.4639,5.463,5.4574,5.424,5.4054,5.3877,5.3831,5.3924,5.4258,5.4648,5.527,5.6106,5.6933,5.7695,5.8335,5.8687,5.8687,5.3457,5.3768,5.4496,5.49,5.4812,5.4589,5.4238,5.4089,5.3805,5.3585,5.3501,5.3501,5.3501,5.3501,5.3501,5.3501,5.3501,5.3501,5.3501,5.3501,5.3501,5.3501,5.3501,5.3501,5.3501,5.3517,5.3634,5.3717,5.3849,5.4109,5.4334,5.4584,5.5132,5.5426,5.5498,5.5403,5.5597,5.5837,5.5686,5.5711,5.5916,5.5856,5.5721,5.5684,5.5456,5.4961,5.4491,5.4363,5.3985,5.3232,5.3269,5.2491,5.1206,5.0967,5.1004,5.0949,5.093,5.0986,5.1059,5.1096,5.1022,5.1206,5.1224,5.1041,5.1242,5.1353,5.1555,5.2068,5.2134,5.2509,5.2939,5.3196,5.3196,5.3196,5.3196,5.3196,5.3206,5.3243,5.3279,5.33,5.341,5.3539,5.3656,5.3723,5.3734,5.3764,5.3793,5.3784,5.3803,5.3803,5.3813,5.3813,5.3813,5.3813,5.4035,5.4323,5.4203,5.4147,5.411,5.4147,5.436,5.4203,5.4054,5.3943,5.398,5.4221,5.4611,5.5057,5.5605,5.6366,5.7369,5.7992,5.8512,5.8632,5.8687,5.3782,5.4568,5.4715,5.467,5.4571,5.4929,5.4579,5.3771,5.4177,5.394,5.3585,5.3501,5.3501,5.3501,5.3501,5.3501,5.3501,5.3501,5.3501,5.3501,5.3501,5.3501,5.3501,5.3517,5.3517,5.3534,5.3634,5.38,5.4045,5.4614,5.4996,5.5224,5.573,5.6111,5.614,5.6449,5.6705,5.6888,5.7054,5.718,5.7132,5.6785,5.6547,5.6492,5.5959,5.5236,5.4601,5.4418,5.4014,5.3563,5.3618,5.3243,5.216,5.227,5.2252,5.1867,5.1756,5.1995,5.2407,5.2105,5.2032,5.2462,5.2462,5.2682,5.2682,5.259,5.2682,5.292,5.2939,5.2957,5.3141,5.3196,5.3196,5.3196,5.3196,5.3196,5.3196,5.3227,5.3254,5.3308,5.342,5.3539,5.3675,5.3745,5.3765,5.3803,5.3813,5.3813,5.3813,5.3813,5.3813,5.3813,5.3813,5.3813,5.3887,5.4203,5.4314,5.4296,5.424,5.4314,5.4537,5.4546,5.4546,5.436,5.4156,5.4527,5.515,5.5707,5.631,5.709,5.7759,5.8242,5.8595,5.8669,5.8687,5.5192,5.5467,5.5542,5.5542,5.5422,5.5154,5.4835,5.4481,5.416,5.3873,5.3568,5.3501,5.3501,5.3501,5.3501,5.3501,5.3501,5.3501,5.3501,5.3517,5.3551,5.3601,5.3635,5.3685,5.3718,5.3701,5.4092,5.4332,5.4674,5.5231,5.5727,5.5858,5.6394,5.6652,5.677,5.7222,5.748,5.7552,5.7797,5.7978,5.7886,5.7629,5.7361,5.7207,5.6602,5.5904,5.5611,5.4748,5.426,5.3893,5.3812,5.3518,5.2821,5.2939,5.292,5.2674,5.2564,5.2711,5.2939,5.2865,5.2729,5.3159,5.3196,5.3185,5.3196,5.3196,5.3196,5.3196,5.3177,5.3196,5.3196,5.3196,5.3196,5.3196,5.3196,5.3196,5.3196,5.322,5.3254,5.3328,5.3479,5.3606,5.3705,5.3745,5.3793,5.3813,5.3813,5.3813,5.3813,5.3813,5.3813,5.3813,5.3813,5.3813,5.3813,5.4073,5.45,5.4667,5.488,5.5131,5.5447,5.5345,5.5233,5.514,5.5103,5.5354,5.5912,5.6469,5.6886,5.7369,5.7889,5.8409,5.8687,5.8687,5.8687,5.6702,5.6255,5.6438,5.6501,5.6291,5.5277,5.4955,5.5023,5.4211,5.3721,5.3501,5.3501,5.3501,5.3501,5.3501,5.3501,5.3501,5.3501,5.3501,5.3568,5.3634,5.3816,5.3947,5.4109,5.4253,5.4106,5.4565,5.4966,5.5379,5.5981,5.6349,5.6501,5.6976,5.7234,5.737,5.7672,5.792,5.792,5.7944,5.7978,5.7978,5.7923,5.7905,5.774,5.7373,5.6822,5.64,5.5611,5.4785,5.4546,5.3812,5.3453,5.3361,5.3232,5.3196,5.3177,5.3104,5.3122,5.3159,5.3159,5.3141,5.3196,5.3196,5.3196,5.3196,5.3196,5.3196,5.3196,5.3196,5.3196,5.3196,5.3196,5.3196,5.3196,5.3196,5.3196,5.322,5.3256,5.3279,5.3339,5.3518,5.3674,5.3715,5.3754,5.3774,5.3813,5.3813,5.3813,5.3813,5.3813,5.3813,5.3813,5.3813,5.3813,5.3813,5.3924,5.4351,5.4927,5.527,5.5753,5.6172,5.6302,5.6217,5.6265,5.632,5.645,5.6599,5.7035,5.7406,5.7666,5.8019,5.8539,5.8687,5.8687,5.8687,5.6778,5.6456,5.6492,5.5928,5.5124,5.531,5.4837,5.4059,5.4245,5.4042,5.3534,5.3501,5.3501,5.3501,5.3501,5.3501,5.3501,5.3517,5.3568,5.3668,5.3783,5.4043,5.4551,5.4767,5.5054,5.5376,5.5435,5.5464,5.5946,5.6563,5.6933,5.7103,5.751,5.7785,5.7785,5.7962,5.7978,5.7978,5.7978,5.7978,5.7978,5.7978,5.7978,5.7978,5.774,5.7428,5.695,5.6583,5.6106,5.5438,5.462,5.4289,5.4106,5.3654,5.3361,5.3196,5.3196,5.3196,5.3196,5.3196,5.3196,5.3196,5.3196,5.3196,5.3196,5.3196,5.3196,5.3196,5.3196,5.3196,5.3196,5.3196,5.3196,5.3196,5.3206,5.3248,5.3274,5.3318,5.332,5.3369,5.3576,5.3704,5.3724,5.3745,5.3784,5.3813,5.3813,5.3813,5.3813,5.3813,5.3813,5.3813,5.3813,5.3813,5.3813,5.3943,5.424,5.4992,5.553,5.618,5.6607,5.7119,5.7268,5.723,5.7138,5.7082,5.7323,5.7666,5.7907,5.8178,5.8446,5.8687,5.8687,5.8687,5.8687,5.6102,5.5383,5.5473,5.5173,5.4651,5.4549,5.4397,5.4093,5.4042,5.3839,5.3585,5.3501,5.3501,5.3501,5.3501,5.3501,5.3501,5.3584,5.3634,5.375,5.4187,5.4581,5.5132,5.5411,5.596,5.6331,5.629,5.6254,5.6598,5.7241,5.7492,5.7625,5.7886,5.7978,5.7978,5.7967,5.7978,5.7978,5.7978,5.7978,5.7978,5.7978,5.7978,5.7978,5.7978,5.7776,5.7483,5.6921,5.6627,5.6143,5.5438,5.5108,5.4876,5.4601,5.4032,5.3434,5.3251,5.3214,5.3196,5.3196,5.3196,5.3196,5.3196,5.3196,5.3196,5.3196,5.3196,5.3196,5.3196,5.3196,5.3196,5.3196,5.3198,5.3233,5.3254,5.3287,5.3369,5.3459,5.3479,5.3498,5.3616,5.3714,5.3705,5.3745,5.3793,5.3813,5.3813,5.3813,5.3813,5.3813,5.3813,5.3961,5.4017,5.424,5.4314,5.4481,5.476,5.54,5.5939,5.657,5.7127,5.7647,5.7963,5.8093,5.7973,5.7732,5.7963,5.8279,5.8465,5.8586,5.8632,5.8687,5.8687,5.8687,5.8687,5.5392,5.4376,5.4532,5.4533,5.4296,5.3771,5.3839,5.416,5.3754,5.3518,5.3501,5.3501,5.3501,5.3501,5.3501,5.3484,5.3501,5.3634,5.3783,5.4156,5.4689,5.5177,5.5889,5.6209,5.6942,5.7922,5.7603,5.7429,5.7333,5.7696,5.792,5.7932,5.7967,5.7978,5.7978,5.7978,5.7978,5.7978,5.7978,5.7978,5.7978,5.7978,5.7978,5.7978,5.7978,5.7978,5.7831,5.7446,5.7171,5.684,5.6356,5.586,5.5824,5.5695,5.4997,5.394,5.3563,5.3398,5.3214,5.3196,5.3196,5.3196,5.3196,5.3196,5.3196,5.3196,5.3196,5.3196,5.3196,5.3217,5.3238,5.3227,5.3254,5.3308,5.3349,5.3371,5.3528,5.3616,5.3637,5.3675,5.3705,5.3724,5.3735,5.3754,5.3803,5.3813,5.3813,5.3813,5.3813,5.3813,5.3868,5.411,5.4333,5.4676,5.4936,5.528,5.5707,5.6357,5.6756,5.7239,5.774,5.8223,5.8409,5.852,5.852,5.8353,5.8613,5.8687,5.865,5.865,5.8669,5.8687,5.8687,5.8687,5.8687,5.5116,5.4583,5.4583,5.4228,5.3687,5.3534,5.3551,5.3636,5.3534,5.3501,5.3501,5.3501,5.3501,5.3501,5.3501,5.3501,5.3584,5.3767,5.4188,5.4751,5.5189,5.6163,5.7401,5.7173,5.8077,5.9,5.8975,5.8564,5.8253,5.8177,5.8125,5.818,5.8253,5.807,5.8327,5.8235,5.7978,5.8015,5.7997,5.7997,5.8033,5.8015,5.7978,5.7978,5.7978,5.7978,5.7978,5.7758,5.7721,5.7685,5.7079,5.6701,5.6565,5.5941,5.564,5.5163,5.4675,5.3977,5.3453,5.3324,5.3232,5.3251,5.3269,5.3214,5.3196,5.3196,5.3196,5.3196,5.3196,5.3241,5.3295,5.3287,5.3359,5.3439,5.3479,5.3529,5.3646,5.3676,5.3725,5.3754,5.3764,5.3783,5.3784,5.3793,5.3813,5.3813,5.3813,5.3813,5.3887,5.3961,5.437,5.4741,5.4983,5.5307,5.5753,5.6079,5.6562,5.723,5.7536,5.7833,5.8149,5.8483,5.8557,5.865,5.8687,5.8687,5.8687,5.8687,5.8687,5.8687,5.8687,5.8687,5.8687,5.8687,5.8687,5.4176,5.3991,5.3974,5.3805,5.3518,5.3501,5.3501,5.3501,5.3501,5.3501,5.3501,5.3501,5.3501,5.3517,5.3501,5.375,5.4075,5.4299,5.4778,5.5522,5.6009,5.6734,5.7347,5.7668,5.8541,5.937,5.9459,5.9399,5.9208,5.9336,5.9355,5.9245,5.93,5.9428,5.9043,5.8859,5.8737,5.8584,5.8327,5.8253,5.8437,5.8253,5.7978,5.7978,5.7978,5.7978,5.7978,5.7978,5.7978,5.7941,5.7593,5.7501,5.7428,5.7116,5.6804,5.6253,5.5996,5.5177,5.4132,5.3922,5.3673,5.3453,5.3544,5.371,5.3379,5.3196,5.322,5.3254,5.3254,5.3305,5.3398,5.341,5.3489,5.3568,5.3608,5.3657,5.3716,5.3726,5.3765,5.3793,5.385,5.3924,5.398,5.3961,5.3924,5.3813,5.3831,5.385,5.4091,5.4342,5.4927,5.5652,5.5856,5.606,5.6562,5.697,5.735,5.7889,5.8093,5.8353,5.8483,5.8669,5.8687,5.8687,5.8687,5.8687,5.8687,5.8687,5.8687,5.8687,5.8687,5.8687,5.8687,5.8687,5.8687,5.3501,5.3501,5.3501,5.3501,5.3501,5.3501,5.3501,5.3501,5.3501,5.3501,5.3551,5.3651,5.3734,5.3816,5.3995,5.4407,5.4835,5.5082,5.5594,5.6236,5.6796,5.7279,5.7728,5.8108,5.8641,5.971,5.9398,5.9765,6.0382,6.0401,6.0126,6.0114,5.974,5.9875,5.9857,5.9435,5.9013,5.8646,5.8235,5.829,5.8584,5.8272,5.8052,5.7978,5.7978,5.7978,5.7978,5.7978,5.7978,5.796,5.7941,5.7868,5.785,5.7758,5.7574,5.7116,5.6785,5.618,5.5317,5.4858,5.4399,5.4179,5.3893,5.3995,5.3324,5.3217,5.3241,5.3287,5.3349,5.341,5.3509,5.3558,5.3617,5.3667,5.3724,5.3764,5.3802,5.3858,5.4062,5.4313,5.4342,5.4258,5.4277,5.4193,5.4063,5.3868,5.3831,5.3943,5.4351,5.4825,5.554,5.6339,5.6636,5.6878,5.7416,5.787,5.8279,5.8409,5.8595,5.8687,5.8687,5.8687,5.8687,5.8687,5.8687,5.8687,5.8687,5.8687,5.8687,5.8687,5.8687,5.8687,5.8687,5.8687,5.8687,5.3501,5.3501,5.3501,5.3501,5.3501,5.3501,5.3501,5.3501,5.3501,5.3517,5.3651,5.4027,5.4265,5.4485,5.4881,5.5253,5.5487,5.5791,5.629,5.6708,5.7107,5.7783,5.8165,5.8477,5.8988,6.0474,5.9893,6.0095,6.0951,6.0621,6.004,5.9404,5.9747,5.9471,5.9404,5.9471,5.9031,5.8664,5.8309,5.8309,5.8474,5.8327,5.818,5.8088,5.8052,5.8008,5.7978,5.7978,5.7978,5.7978,5.7978,5.7978,5.7978,5.7978,5.7831,5.7666,5.7262,5.6822,5.6418,5.5868,5.5548,5.5254,5.4788,5.4156,5.3563,5.334,5.3297,5.3349,5.343,5.3622,5.3673,5.3685,5.3706,5.3912,5.3996,5.3932,5.3979,5.4026,5.4286,5.475,5.4936,5.4946,5.4946,5.4955,5.4527,5.4304,5.4593,5.4704,5.5113,5.5614,5.6265,5.6915,5.7305,5.7732,5.8316,5.8613,5.8539,5.8539,5.865,5.8687,5.8687,5.8687,5.8687,5.8687,5.8687,5.8687,5.8687,5.8687,5.8687,5.8687,5.8687,5.8687,5.8687,5.8687,5.8687,5.3501,5.3501,5.3501,5.3501,5.3501,5.3501,5.3501,5.3501,5.3501,5.3734,5.4075,5.4313,5.467,5.5077,5.5323,5.584,5.6304,5.6483,5.6976,5.7401,5.7776,5.8017,5.8279,5.851,5.8731,5.9869,5.9563,6.0022,6.1337,6.0768,6.0786,6.0456,6.004,6.037,6.0315,5.9728,5.9288,5.9306,5.9086,5.9098,6.0052,5.9648,5.9245,5.8767,5.8737,5.8437,5.8088,5.7997,5.7978,5.7978,5.7978,5.7978,5.7978,5.7978,5.7978,5.7978,5.7593,5.7501,5.7354,5.6815,5.6404,5.6151,5.5297,5.4362,5.4083,5.3769,5.3543,5.3519,5.3699,5.399,5.4421,5.4116,5.3876,5.4183,5.4323,5.4286,5.436,5.4509,5.4927,5.5586,5.5753,5.5819,5.5819,5.5819,5.527,5.4806,5.5169,5.5522,5.593,5.6339,5.6952,5.748,5.787,5.8056,5.8595,5.8687,5.8687,5.8687,5.8687,5.8687,5.8687,5.8687,5.8687,5.8687,5.8687,5.8687,5.8687,5.8687,5.8687,5.8687,5.8687,5.8687,5.8687,5.8687,5.8687,5.3501,5.3501,5.3501,5.3501,5.3501,5.3501,5.3501,5.3534,5.3718,5.4125,5.4703,5.487,5.5241,5.5716,5.6108,5.6479,5.704,5.7265,5.7735,5.8115,5.839,5.8492,5.8639,5.8933,5.941,5.9692,5.971,6.037,6.1502,6.0768,6.086,6.0951,6.0639,6.0511,6.0676,6.0291,5.9747,5.9802,5.9967,5.9948,6.0988,6.0334,6.0022,5.9343,5.9049,5.8719,5.8345,5.8217,5.7978,5.7978,5.7978,5.7978,5.7978,5.7978,5.7978,5.7978,5.7978,5.7978,5.7843,5.7638,5.7162,5.6812,5.6189,5.5439,5.4966,5.4574,5.4588,5.4536,5.4567,5.4728,5.5345,5.5019,5.4889,5.528,5.514,5.5122,5.5252,5.5429,5.5949,5.6506,5.658,5.6655,5.6655,5.6617,5.618,5.5679,5.566,5.6153,5.6756,5.7146,5.7555,5.8037,5.8465,5.8576,5.8687,5.8687,5.8687,5.8687,5.8687,5.8687,5.8687,5.8708,5.8708,5.8687,5.8687,5.8687,5.8698,5.8708,5.8698,5.8687,5.8687,5.8687,5.8687,5.8687,5.8687,5.3501,5.3501,5.3501,5.3501,5.3568,5.3517,5.3534,5.3684,5.4155,5.4749,5.5399,5.5876,5.6252,5.6559,5.702,5.7382,5.7601,5.7834,5.8269,5.8842,5.8958,5.9508,5.9893,6.0144,6.0162,6.1043,6.0768,6.0639,6.1575,6.097,6.1062,6.1062,6.0517,5.9747,6.0382,6.0401,5.9967,5.9508,6.004,6.0493,6.0676,6.0187,6.0059,5.9832,5.9061,5.8646,5.8535,5.8235,5.7997,5.7978,5.7978,5.7978,5.7978,5.7978,5.7978,5.7978,5.7978,5.799,5.8001,5.8085,5.7807,5.7368,5.6767,5.6462,5.6061,5.5838,5.5734,5.5505,5.5786,5.6022,5.6209,5.6172,5.6079,5.6116,5.5995,5.5949,5.6079,5.6265,5.6747,5.7286,5.7416,5.7472,5.7472,5.7379,5.7035,5.6682,5.6385,5.6719,5.7462,5.7815,5.813,5.8316,5.8687,5.8687,5.8687,5.8687,5.8687,5.8687,5.8708,5.8721,5.8772,5.8815,5.8784,5.8741,5.8782,5.8865,5.8793,5.8729,5.8793,5.8855,5.8719,5.8687,5.8687,5.8687,5.8687,5.3501,5.3501,5.3501,5.3751,5.4059,5.409,5.4107,5.4203,5.4765,5.5411,5.5918,5.6274,5.6701,5.717,5.7425,5.7727,5.7927,5.798,5.8437,5.9159,5.9325,5.971,6.0224,6.0609,6.0676,6.0676,6.0529,6.0915,6.1575,6.1282,6.1704,6.1802,6.075,5.9581,5.9178,5.9251,5.9581,6.0077,6.0756,6.141,6.1796,6.1172,6.0621,6.0438,5.9355,5.8737,5.8572,5.818,5.8015,5.7978,5.7978,5.7978,5.8008,5.8008,5.8008,5.8008,5.8008,5.8088,5.8208,5.829,5.8194,5.7818,5.7448,5.7143,5.6837,5.6413,5.6297,5.6307,5.6494,5.6692,5.6933,5.6477,5.6385,5.6793,5.6793,5.6729,5.6803,5.7026,5.7387,5.7982,5.8297,5.8205,5.8167,5.8037,5.774,5.7722,5.748,5.7573,5.8186,5.8316,5.8502,5.852,5.8687,5.8687,5.8687,5.8687,5.8731,5.8782,5.8803,5.8815,5.8875,5.9006,5.915,5.9252,5.915,5.9045,5.9045,5.9045,5.9045,5.9035,5.9097,5.8969,5.8873,5.8817,5.8706,5.3501,5.3517,5.3734,5.4027,5.4375,5.4424,5.4608,5.5069,5.5528,5.6045,5.6528,5.6621,5.6936,5.7437,5.7625,5.7763,5.8022,5.8345,5.8859,5.9581,5.9967,6.0627,6.1104,6.1196,6.1471,6.1208,6.1263,6.1612,6.2071,6.2034,6.2089,6.1924,6.1337,6.0291,5.9575,5.9618,6.0095,6.0805,6.1575,6.2187,6.2316,6.1961,6.1282,6.0694,5.982,5.8976,5.8517,5.8198,5.7978,5.7978,5.799,5.799,5.8008,5.8042,5.8054,5.8084,5.8141,5.8231,5.8349,5.8401,5.8312,5.8224,5.7824,5.7738,5.7738,5.7476,5.7322,5.7239,5.7053,5.7332,5.7629,5.7109,5.722,5.7647,5.7629,5.7565,5.7602,5.7815,5.7907,5.852,5.8687,5.8687,5.8687,5.865,5.8427,5.852,5.8613,5.8719,5.8729,5.8698,5.8698,5.8687,5.8687,5.8687,5.8687,5.8687,5.8752,5.8855,5.8906,5.8966,5.9234,5.9423,5.9588,5.9698,5.9537,5.9415,5.9415,5.9415,5.949,5.9661,5.9852,5.9617,5.92,5.9188,5.9241,5.3501,5.3618,5.4155,5.4422,5.4484,5.467,5.5273,5.6284,5.6307,5.6653,5.715,5.7138,5.7313,5.7534,5.7595,5.7756,5.8127,5.8756,5.9508,6.0297,6.0841,6.1728,6.2297,6.2517,6.2334,6.2554,6.2572,6.2297,6.2719,6.2591,6.231,6.1832,6.1539,6.0878,6.0493,6.0438,6.0823,6.1429,6.2126,6.2572,6.2627,6.2034,6.1484,6.0823,5.9948,5.9178,5.8682,5.8345,5.807,5.799,5.802,5.802,5.8042,5.8141,5.8186,5.8231,5.8327,5.8371,5.8415,5.8426,5.8437,5.8448,5.8506,5.8619,5.8537,5.8295,5.8167,5.8186,5.8149,5.8335,5.8465,5.8409,5.8372,5.8483,5.8483,5.8465,5.8483,5.8539,5.852,5.8687,5.8687,5.8687,5.8687,5.8687,5.8719,5.8845,5.8877,5.8956,5.8916,5.8729,5.8719,5.8687,5.8687,5.8687,5.8698,5.8719,5.8739,5.8815,5.9055,5.9169,5.9502,5.9796,5.9957,5.9996,5.9879,5.9807,5.9788,5.9883,6.0042,6.0221,6.0274,6.0541,6.021,6.026,6.0371,5.3767,5.4155,5.4345,5.4933,5.5755,5.6203,5.663,5.6915,5.6959,5.7074,5.7188,5.7307,5.7455,5.7601,5.7697,5.7857,5.825,5.8841,5.9618,6.0444,6.1318,6.2059,6.2554,6.2811,6.2811,6.2811,6.2811,6.2811,6.2793,6.2811,6.2401,6.1741,6.1722,6.1465,6.1355,6.1245,6.1447,6.1759,6.2462,6.2701,6.2591,6.2016,6.1465,6.0658,5.9879,5.9126,5.8506,5.8295,5.8074,5.807,5.8122,5.8145,5.8163,5.8253,5.8331,5.8349,5.8382,5.8415,5.8454,5.8486,5.8561,5.8656,5.8708,5.8614,5.8625,5.8687,5.8719,5.8687,5.8687,5.8687,5.8687,5.8687,5.8687,5.8687,5.8687,5.8687,5.8687,5.8687,5.8687,5.8687,5.8687,5.8687,5.8687,5.8687,5.8731,5.8946,5.9074,5.914,5.9169,5.8976,5.8915,5.8905,5.8875,5.8945,5.8803,5.8801,5.8791,5.8823,5.9159,5.9484,5.9772,6.0042,6.0244,6.0293,6.0223,6.0168,6.0165,6.026,6.0374,6.0344,6.0406,6.0912,6.1293,6.1261,6.1337,5.3388,5.3975,5.4237,5.5211,5.6572,5.7049,5.7188,5.7188,5.7188,5.7213,5.7276,5.7369,5.7516,5.7655,5.7756,5.7887,5.8113,5.9233,6.0022,6.0481,6.1484,6.2242,6.2701,6.2811,6.2811,6.2811,6.2811,6.2811,6.2811,6.2774,6.2475,6.2199,6.2089,6.2053,6.2071,6.2071,6.2071,6.2254,6.2517,6.2738,6.2493,6.1998,6.1227,6.0418,5.9681,5.9027,5.8397,5.8326,5.8471,5.8524,5.8628,5.8661,5.872,5.8801,5.8919,5.8986,5.9025,5.9064,5.9093,5.9083,5.9093,5.9045,5.8985,5.8986,5.8906,5.8925,5.8793,5.8687,5.8687,5.8687,5.8687,5.8687,5.8687,5.8687,5.8687,5.8687,5.8687,5.8687,5.8687,5.8687,5.8687,5.8687,5.8687,5.8687,5.8721,5.8875,5.9045,5.9187,5.9298,5.9335,5.9307,5.9326,5.929,5.9262,5.9111,5.9054,5.9197,5.9353,5.9629,5.9938,6.0116,6.0293,6.0514,6.0572,6.0585,6.0533,6.0442,6.0514,6.0584,6.0667,6.1145,6.1979,6.2268,6.1958,6.2134,5.2715,5.3459,5.4087,5.5485,5.7058,5.7188,5.7188,5.7188,5.7188,5.7264,5.7363,5.74,5.7577,5.7745,5.7815,5.7886,5.834,5.9306,6.004,6.0438,6.1686,6.2493,6.2701,6.2811,6.2811,6.2811,6.2811,6.2811,6.2811,6.2793,6.2774,6.2811,6.2719,6.2627,6.2591,6.2609,6.2585,6.2591,6.2499,6.2481,6.2352,6.1869,6.1129,6.0349,5.9829,5.9375,5.8923,5.8941,5.9296,5.9313,5.9348,5.9338,5.9392,5.9437,5.9578,5.9631,5.959,5.9582,5.9563,5.9563,5.9622,5.9571,5.9476,5.9432,5.9335,5.9083,5.8897,5.9015,5.9082,5.8966,5.8926,5.9005,5.9034,5.8895,5.8774,5.8741,5.8698,5.8698,5.8687,5.8687,5.8687,5.8698,5.871,5.8741,5.9024,5.8985,5.9197,5.9422,5.9587,5.9739,5.9673,5.9725,5.9599,5.9539,5.9547,5.9556,5.9774,5.9973,6.0116,6.0211,6.0293,6.052,6.0763,6.0746,6.0696,6.0746,6.0722,6.0735,6.0966,6.1574,6.2189,6.3206,6.3328,6.2824,6.3086,5.2795,5.3875,5.5059,5.6227,5.7139,5.7188,5.7188,5.7188,5.7188,5.7294,5.7406,5.7498,5.7631,5.7792,5.7886,5.7955,5.8279,5.9086,5.9783,6.0438,6.1502,6.2218,6.2646,6.2646,6.2719,6.2811,6.2811,6.2811,6.2811,6.2811,6.2811,6.2811,6.283,6.2867,6.2805,6.2799,6.2751,6.2867,6.223,6.2083,6.2058,6.1207,6.0345,5.9934,5.9575,5.952,5.9166,5.9017,5.9214,5.9312,5.947,5.9574,5.9706,5.9747,5.9763,5.9791,5.9871,5.9895,5.9903,5.9918,5.9918,5.9855,5.975,5.9741,5.9588,5.927,5.9178,5.9398,5.9433,5.9289,5.9215,5.9326,5.9354,5.9121,5.8878,5.8815,5.875,5.876,5.8731,5.8731,5.8731,5.8762,5.8805,5.8966,5.9215,5.952,5.9841,6.0097,6.026,6.0356,6.0072,6.0026,5.9831,5.9782,5.9871,5.9957,6.0116,6.0165,6.023,6.0328,6.0475,6.0629,6.08,6.08,6.0775,6.08,6.08,6.0794,6.1173,6.1903,6.2537,6.3243,6.3771,6.3513,6.4035,5.2555,5.3577,5.5294,5.6476,5.7098,5.7188,5.7188,5.7188,5.7188,5.7301,5.7461,5.7577,5.7709,5.7862,5.7955,5.7978,5.8143,5.8847,5.9673,6.0419,6.0823,6.152,6.1967,6.2316,6.2218,6.2291,6.2683,6.2811,6.2811,6.2811,6.2811,6.2842,6.2929,6.3008,6.2843,6.272,6.2833,6.3048,6.2033,6.1805,6.1944,6.1296,6.1078,6.0733,6.0546,6.0341,6.031,6.0135,6.008,6.0205,6.037,6.0211,6.0279,6.0293,6.0253,6.0272,6.0286,6.0244,6.023,6.0208,6.0182,6.0179,6.0061,6.0057,6.0251,5.995,5.9639,5.9782,5.9683,5.9528,5.9539,5.9618,5.9609,5.9451,5.9206,5.9045,5.9112,5.9197,5.9234,5.9307,5.9307,5.9307,5.9353,5.9371,5.9599,5.9648,6.0064,6.0274,6.054,6.0777,6.0527,6.0354,6.0179,6.0201,6.0342,6.0362,6.0395,6.0402,6.0368,6.0501,6.0641,6.0722,6.08,6.08,6.08,6.08,6.08,6.08,6.1223,6.1922,6.2499,6.3051,6.3572,6.4179,6.4675,5.2374,5.3307,5.5066,5.6391,5.7116,5.7188,5.7188,5.7188,5.7188,5.7356,5.7577,5.7583,5.7768,5.792,5.7978,5.7978,5.8143,5.8584,5.9398,5.9967,6.0187,6.097,6.1465,6.1667,6.1851,6.2144,6.2536,6.2719,6.2811,6.2811,6.283,6.2917,6.3098,6.3273,6.2924,6.2822,6.2995,6.3088,6.2651,6.2332,6.216,6.1947,6.1951,6.2033,6.2067,6.1875,6.191,6.1706,6.1377,6.1236,6.1064,6.0763,6.0654,6.0641,6.0666,6.0654,6.0641,6.0654,6.0684,6.066,6.0684,6.0672,6.0488,6.0475,6.0629,6.052,6.0201,6.0064,5.9981,5.9911,5.9903,5.9934,5.9937,5.976,5.9513,5.9316,5.945,5.959,5.9675,5.9774,5.9766,5.9766,5.9782,5.9799,5.9887,5.9934,6.0064,6.0225,6.0442,6.066,6.0666,6.0616,6.0546,6.0635,6.0734,6.0672,6.0585,6.0629,6.0597,6.0722,6.08,6.08,6.08,6.08,6.08,6.0839,6.08,6.08,6.1345,6.2056,6.2268,6.2845,6.4,6.459,6.512,5.2783,5.4543,5.4979,5.5903,5.7043,5.717,5.7188,5.7188,5.7201,5.7338,5.7553,5.7625,5.7745,5.7978,5.7978,5.7978,5.8015,5.8345,5.8737,5.9306,5.9435,6.0364,6.1043,6.1135,6.1924,6.2365,6.2609,6.2738,6.2842,6.283,6.2818,6.2892,6.3338,6.3502,6.3487,6.3467,6.361,6.3573,6.3333,6.3012,6.3463,6.3039,6.2033,6.199,6.2048,6.2284,6.233,6.1812,6.176,6.1645,6.1314,6.0916,6.08,6.08,6.08,6.08,6.08,6.08,6.08,6.08,6.08,6.08,6.0635,6.0654,6.0746,6.074,6.0553,6.0553,6.0455,6.0368,6.0361,6.0455,6.0449,6.0061,5.9733,5.9698,5.9774,5.9823,5.9879,5.9929,5.9922,5.9911,5.9918,6.0019,6.0189,6.0286,6.0436,6.0585,6.0597,6.0702,6.08,6.08,6.08,6.08,6.0769,6.0763,6.0728,6.0769,6.08,6.08,6.08,6.08,6.08,6.08,6.0858,6.0916,6.0877,6.1166,6.1672,6.2287,6.2133,6.2614,6.3955,6.4923,6.5359]}]]